<?xml version="1.0" encoding="UTF-8" standalone="no" ?>
<gpx xmlns="http://www.topografix.com/GPX/1/1" xmlns:xsi="http://www.w3.org/2001/XMLSchema-instance" xsi:schemaLocation="http://www.topografix.com/GPX/1/1 http://www.topografix.com/GPX/1/1/gpx.xsd" version="1.1" creator="VisuGPX - https://www.visugpx.com">
  <metadata>
    <name>Road trip fait P/E</name>
  </metadata>
  <trk>
    <name><![CDATA[Road trip fait P/E_8]]></name>
    <extensions>
      <line xmlns="http://www.topografix.com/GPX/gpx_style/0/2">
        <color>008800</color>
        <width>4</width>
      </line>
    </extensions>
    <trkseg>
      <trkpt lat="37.32153" lon="-7.20446">
        <ele>44.32567</ele>
        <time>2021-07-12T19:44:22Z</time>
      </trkpt>
      <trkpt lat="37.32153" lon="-7.20446">
        <ele>44.32567</ele>
        <time>2021-07-12T19:44:22Z</time>
      </trkpt>
      <trkpt lat="37.32153" lon="-7.20441">
        <ele>44.43804</ele>
        <time>2021-07-13T07:47:22Z</time>
      </trkpt>
      <trkpt lat="37.3215" lon="-7.20437">
        <ele>44.71199</ele>
        <time>2021-07-13T07:47:45Z</time>
      </trkpt>
      <trkpt lat="37.32151" lon="-7.20438">
        <ele>43.68064</ele>
        <time>2021-07-13T07:48:44Z</time>
      </trkpt>
      <trkpt lat="37.32151" lon="-7.20442">
        <ele>44.19683</ele>
        <time>2021-07-13T07:49:43Z</time>
      </trkpt>
      <trkpt lat="37.3215" lon="-7.20437">
        <ele>44.49245</ele>
        <time>2021-07-13T07:50:36Z</time>
      </trkpt>
      <trkpt lat="37.32155" lon="-7.20375">
        <ele>46.32222</ele>
        <time>2021-07-13T07:50:47Z</time>
      </trkpt>
      <trkpt lat="37.32138" lon="-7.20313">
        <ele>48.19079</ele>
        <time>2021-07-13T07:50:58Z</time>
      </trkpt>
      <trkpt lat="37.32117" lon="-7.20246">
        <ele>44.11715</ele>
        <time>2021-07-13T07:51:09Z</time>
      </trkpt>
      <trkpt lat="37.32089" lon="-7.20207">
        <ele>40.07316</ele>
        <time>2021-07-13T07:51:20Z</time>
      </trkpt>
      <trkpt lat="37.3205" lon="-7.20156">
        <ele>37.50061</ele>
        <time>2021-07-13T07:51:31Z</time>
      </trkpt>
      <trkpt lat="37.3198" lon="-7.20116">
        <ele>37.13723</ele>
        <time>2021-07-13T07:51:42Z</time>
      </trkpt>
      <trkpt lat="37.31942" lon="-7.20094">
        <ele>31.83734</ele>
        <time>2021-07-13T07:51:53Z</time>
      </trkpt>
      <trkpt lat="37.31922" lon="-7.20062">
        <ele>30.11721</ele>
        <time>2021-07-13T07:52:04Z</time>
      </trkpt>
      <trkpt lat="37.31865" lon="-7.20097">
        <ele>34.18116</ele>
        <time>2021-07-13T07:52:15Z</time>
      </trkpt>
      <trkpt lat="37.31833" lon="-7.20149">
        <ele>31.42005</ele>
        <time>2021-07-13T07:52:26Z</time>
      </trkpt>
      <trkpt lat="37.31784" lon="-7.20252">
        <ele>35.24004</ele>
        <time>2021-07-13T07:52:37Z</time>
      </trkpt>
      <trkpt lat="37.31684" lon="-7.20208">
        <ele>37.79343</ele>
        <time>2021-07-13T07:52:48Z</time>
      </trkpt>
      <trkpt lat="37.31577" lon="-7.20211">
        <ele>29.54175</ele>
        <time>2021-07-13T07:52:59Z</time>
      </trkpt>
      <trkpt lat="37.31496" lon="-7.20274">
        <ele>32.59441</ele>
        <time>2021-07-13T07:53:10Z</time>
      </trkpt>
      <trkpt lat="37.31494" lon="-7.20311">
        <ele>32.09896</ele>
        <time>2021-07-13T07:53:21Z</time>
      </trkpt>
      <trkpt lat="37.31494" lon="-7.20283">
        <ele>31.75833</ele>
        <time>2021-07-13T07:53:32Z</time>
      </trkpt>
      <trkpt lat="37.31441" lon="-7.20143">
        <ele>32.40919</ele>
        <time>2021-07-13T07:53:43Z</time>
      </trkpt>
      <trkpt lat="37.31402" lon="-7.20008">
        <ele>22.44509</ele>
        <time>2021-07-13T07:53:54Z</time>
      </trkpt>
      <trkpt lat="37.31359" lon="-7.19887">
        <ele>19.31783</ele>
        <time>2021-07-13T07:54:05Z</time>
      </trkpt>
      <trkpt lat="37.3147" lon="-7.19705">
        <ele>20.62568</ele>
        <time>2021-07-13T07:54:16Z</time>
      </trkpt>
      <trkpt lat="37.31534" lon="-7.19619">
        <ele>36.05137</ele>
        <time>2021-07-13T07:54:27Z</time>
      </trkpt>
      <trkpt lat="37.31521" lon="-7.19582">
        <ele>34.33728</ele>
        <time>2021-07-13T07:54:38Z</time>
      </trkpt>
      <trkpt lat="37.31451" lon="-7.19492">
        <ele>28.70263</ele>
        <time>2021-07-13T07:54:49Z</time>
      </trkpt>
      <trkpt lat="37.31362" lon="-7.19378">
        <ele>35.81774</ele>
        <time>2021-07-13T07:55:00Z</time>
      </trkpt>
      <trkpt lat="37.31289" lon="-7.1926">
        <ele>39.55407</ele>
        <time>2021-07-13T07:55:11Z</time>
      </trkpt>
      <trkpt lat="37.31187" lon="-7.19146">
        <ele>33.75771</ele>
        <time>2021-07-13T07:55:22Z</time>
      </trkpt>
      <trkpt lat="37.31117" lon="-7.18996">
        <ele>36.16953</ele>
        <time>2021-07-13T07:55:33Z</time>
      </trkpt>
      <trkpt lat="37.31062" lon="-7.18848">
        <ele>33.51135</ele>
        <time>2021-07-13T07:55:44Z</time>
      </trkpt>
      <trkpt lat="37.30994" lon="-7.18724">
        <ele>29.27719</ele>
        <time>2021-07-13T07:55:55Z</time>
      </trkpt>
      <trkpt lat="37.30986" lon="-7.18573">
        <ele>26.38453</ele>
        <time>2021-07-13T07:56:06Z</time>
      </trkpt>
      <trkpt lat="37.30963" lon="-7.18473">
        <ele>31.74224</ele>
        <time>2021-07-13T07:56:17Z</time>
      </trkpt>
      <trkpt lat="37.30935" lon="-7.18441">
        <ele>36.51313</ele>
        <time>2021-07-13T07:56:28Z</time>
      </trkpt>
      <trkpt lat="37.30896" lon="-7.18466">
        <ele>37.79807</ele>
        <time>2021-07-13T07:56:39Z</time>
      </trkpt>
      <trkpt lat="37.30806" lon="-7.18536">
        <ele>35.53841</ele>
        <time>2021-07-13T07:56:50Z</time>
      </trkpt>
      <trkpt lat="37.30687" lon="-7.18571">
        <ele>36.4715</ele>
        <time>2021-07-13T07:57:01Z</time>
      </trkpt>
      <trkpt lat="37.30574" lon="-7.1862">
        <ele>32.33975</ele>
        <time>2021-07-13T07:57:12Z</time>
      </trkpt>
      <trkpt lat="37.30476" lon="-7.1865">
        <ele>38.36629</ele>
        <time>2021-07-13T07:57:23Z</time>
      </trkpt>
      <trkpt lat="37.30371" lon="-7.18625">
        <ele>34.29301</ele>
        <time>2021-07-13T07:57:34Z</time>
      </trkpt>
      <trkpt lat="37.30259" lon="-7.18583">
        <ele>33.2612</ele>
        <time>2021-07-13T07:57:45Z</time>
      </trkpt>
      <trkpt lat="37.30162" lon="-7.18549">
        <ele>30.23468</ele>
        <time>2021-07-13T07:57:56Z</time>
      </trkpt>
      <trkpt lat="37.30077" lon="-7.1849">
        <ele>16.56911</ele>
        <time>2021-07-13T07:58:07Z</time>
      </trkpt>
      <trkpt lat="37.30013" lon="-7.18421">
        <ele>12.91153</ele>
        <time>2021-07-13T07:58:18Z</time>
      </trkpt>
      <trkpt lat="37.29927" lon="-7.1832">
        <ele>8.705704</ele>
        <time>2021-07-13T07:58:29Z</time>
      </trkpt>
      <trkpt lat="37.29859" lon="-7.18247">
        <ele>8.768708</ele>
        <time>2021-07-13T07:58:40Z</time>
      </trkpt>
      <trkpt lat="37.29865" lon="-7.18127">
        <ele>8.583003</ele>
        <time>2021-07-13T07:58:51Z</time>
      </trkpt>
      <trkpt lat="37.29868" lon="-7.18085">
        <ele>15.27947</ele>
        <time>2021-07-13T07:59:02Z</time>
      </trkpt>
      <trkpt lat="37.29879" lon="-7.18033">
        <ele>16.77048</ele>
        <time>2021-07-13T07:59:13Z</time>
      </trkpt>
      <trkpt lat="37.29864" lon="-7.17904">
        <ele>15.9715</ele>
        <time>2021-07-13T07:59:24Z</time>
      </trkpt>
      <trkpt lat="37.29796" lon="-7.17772">
        <ele>15.90799</ele>
        <time>2021-07-13T07:59:35Z</time>
      </trkpt>
      <trkpt lat="37.29776" lon="-7.1766">
        <ele>15.65958</ele>
        <time>2021-07-13T07:59:46Z</time>
      </trkpt>
      <trkpt lat="37.29692" lon="-7.17538">
        <ele>19.28989</ele>
        <time>2021-07-13T07:59:57Z</time>
      </trkpt>
      <trkpt lat="37.29609" lon="-7.17396">
        <ele>17.41494</ele>
        <time>2021-07-13T08:00:08Z</time>
      </trkpt>
      <trkpt lat="37.29524" lon="-7.17294">
        <ele>9.936907</ele>
        <time>2021-07-13T08:00:19Z</time>
      </trkpt>
      <trkpt lat="37.29478" lon="-7.17276">
        <ele>6.835066</ele>
        <time>2021-07-13T08:00:30Z</time>
      </trkpt>
      <trkpt lat="37.29418" lon="-7.17203">
        <ele>7.67196</ele>
        <time>2021-07-13T08:00:41Z</time>
      </trkpt>
      <trkpt lat="37.2933" lon="-7.17111">
        <ele>8.665489</ele>
        <time>2021-07-13T08:00:52Z</time>
      </trkpt>
      <trkpt lat="37.29232" lon="-7.1704">
        <ele>6.864725</ele>
        <time>2021-07-13T08:01:03Z</time>
      </trkpt>
      <trkpt lat="37.2911" lon="-7.1683">
        <ele>16.27344</ele>
        <time>2021-07-13T08:01:14Z</time>
      </trkpt>
      <trkpt lat="37.29005" lon="-7.16697">
        <ele>9.069261</ele>
        <time>2021-07-13T08:01:25Z</time>
      </trkpt>
      <trkpt lat="37.28959" lon="-7.16708">
        <ele>13.1583</ele>
        <time>2021-07-13T08:01:36Z</time>
      </trkpt>
      <trkpt lat="37.28851" lon="-7.16733">
        <ele>18.20774</ele>
        <time>2021-07-13T08:01:47Z</time>
      </trkpt>
      <trkpt lat="37.28753" lon="-7.16716">
        <ele>16.0713</ele>
        <time>2021-07-13T08:01:58Z</time>
      </trkpt>
      <trkpt lat="37.28694" lon="-7.16677">
        <ele>14.93394</ele>
        <time>2021-07-13T08:02:09Z</time>
      </trkpt>
      <trkpt lat="37.28694" lon="-7.16668">
        <ele>15.6623</ele>
        <time>2021-07-13T08:02:20Z</time>
      </trkpt>
      <trkpt lat="37.28695" lon="-7.16663">
        <ele>14.57285</ele>
        <time>2021-07-13T08:02:41Z</time>
      </trkpt>
      <trkpt lat="37.28711" lon="-7.16635">
        <ele>15.18057</ele>
        <time>2021-07-13T08:02:52Z</time>
      </trkpt>
      <trkpt lat="37.28698" lon="-7.16497">
        <ele>12.52515</ele>
        <time>2021-07-13T08:03:03Z</time>
      </trkpt>
      <trkpt lat="37.28664" lon="-7.16331">
        <ele>7.792658</ele>
        <time>2021-07-13T08:03:14Z</time>
      </trkpt>
      <trkpt lat="37.2863" lon="-7.16174">
        <ele>5.899378</ele>
        <time>2021-07-13T08:03:25Z</time>
      </trkpt>
      <trkpt lat="37.28599" lon="-7.1604">
        <ele>11.10012</ele>
        <time>2021-07-13T08:03:36Z</time>
      </trkpt>
      <trkpt lat="37.2857" lon="-7.15921">
        <ele>19.43172</ele>
        <time>2021-07-13T08:03:47Z</time>
      </trkpt>
      <trkpt lat="37.28546" lon="-7.15799">
        <ele>21.59218</ele>
        <time>2021-07-13T08:03:58Z</time>
      </trkpt>
      <trkpt lat="37.28508" lon="-7.15697">
        <ele>21.23943</ele>
        <time>2021-07-13T08:04:09Z</time>
      </trkpt>
      <trkpt lat="37.28454" lon="-7.15614">
        <ele>19.76074</ele>
        <time>2021-07-13T08:04:20Z</time>
      </trkpt>
      <trkpt lat="37.28402" lon="-7.15608">
        <ele>22.94374</ele>
        <time>2021-07-13T08:04:32Z</time>
      </trkpt>
      <trkpt lat="37.28327" lon="-7.15631">
        <ele>26.56183</ele>
        <time>2021-07-13T08:04:43Z</time>
      </trkpt>
      <trkpt lat="37.28294" lon="-7.15627">
        <ele>27.39678</ele>
        <time>2021-07-13T08:04:54Z</time>
      </trkpt>
      <trkpt lat="37.28288" lon="-7.15624">
        <ele>35.59846</ele>
        <time>2021-07-13T08:05:13Z</time>
      </trkpt>
      <trkpt lat="37.28229" lon="-7.1559">
        <ele>34.27137</ele>
        <time>2021-07-13T08:05:24Z</time>
      </trkpt>
      <trkpt lat="37.28206" lon="-7.15574">
        <ele>26.00564</ele>
        <time>2021-07-13T08:05:35Z</time>
      </trkpt>
      <trkpt lat="37.2821" lon="-7.15503">
        <ele>20.20754</ele>
        <time>2021-07-13T08:05:46Z</time>
      </trkpt>
      <trkpt lat="37.28229" lon="-7.15443">
        <ele>18.67121</ele>
        <time>2021-07-13T08:05:57Z</time>
      </trkpt>
      <trkpt lat="37.28204" lon="-7.1539">
        <ele>15.48669</ele>
        <time>2021-07-13T08:06:08Z</time>
      </trkpt>
      <trkpt lat="37.28169" lon="-7.15341">
        <ele>15.51634</ele>
        <time>2021-07-13T08:06:19Z</time>
      </trkpt>
      <trkpt lat="37.28129" lon="-7.15293">
        <ele>15.09036</ele>
        <time>2021-07-13T08:06:30Z</time>
      </trkpt>
      <trkpt lat="37.28077" lon="-7.15349">
        <ele>17.02215</ele>
        <time>2021-07-13T08:06:41Z</time>
      </trkpt>
      <trkpt lat="37.28034" lon="-7.15297">
        <ele>13.58481</ele>
        <time>2021-07-13T08:06:52Z</time>
      </trkpt>
      <trkpt lat="37.27983" lon="-7.15253">
        <ele>12.18532</ele>
        <time>2021-07-13T08:07:03Z</time>
      </trkpt>
      <trkpt lat="37.27942" lon="-7.152">
        <ele>11.98177</ele>
        <time>2021-07-13T08:07:14Z</time>
      </trkpt>
      <trkpt lat="37.28005" lon="-7.1515">
        <ele>12.60749</ele>
        <time>2021-07-13T08:07:25Z</time>
      </trkpt>
      <trkpt lat="37.28099" lon="-7.15113">
        <ele>19.7335</ele>
        <time>2021-07-13T08:07:36Z</time>
      </trkpt>
      <trkpt lat="37.28171" lon="-7.15131">
        <ele>17.01467</ele>
        <time>2021-07-13T08:07:47Z</time>
      </trkpt>
      <trkpt lat="37.28176" lon="-7.15067">
        <ele>16.02121</ele>
        <time>2021-07-13T08:07:58Z</time>
      </trkpt>
      <trkpt lat="37.28161" lon="-7.14981">
        <ele>17.94172</ele>
        <time>2021-07-13T08:08:09Z</time>
      </trkpt>
      <trkpt lat="37.28157" lon="-7.14908">
        <ele>12.62274</ele>
        <time>2021-07-13T08:08:20Z</time>
      </trkpt>
      <trkpt lat="37.28125" lon="-7.14836">
        <ele>12.81916</ele>
        <time>2021-07-13T08:08:31Z</time>
      </trkpt>
      <trkpt lat="37.28059" lon="-7.1469">
        <ele>13.72518</ele>
        <time>2021-07-13T08:08:42Z</time>
      </trkpt>
      <trkpt lat="37.28008" lon="-7.14594">
        <ele>17.48886</ele>
        <time>2021-07-13T08:08:53Z</time>
      </trkpt>
      <trkpt lat="37.28004" lon="-7.1454">
        <ele>17.92918</ele>
        <time>2021-07-13T08:09:04Z</time>
      </trkpt>
      <trkpt lat="37.28036" lon="-7.1445">
        <ele>19.99512</ele>
        <time>2021-07-13T08:09:15Z</time>
      </trkpt>
      <trkpt lat="37.28037" lon="-7.14215">
        <ele>25.90242</ele>
        <time>2021-07-13T08:09:26Z</time>
      </trkpt>
      <trkpt lat="37.28058" lon="-7.13989">
        <ele>25.73836</ele>
        <time>2021-07-13T08:09:37Z</time>
      </trkpt>
      <trkpt lat="37.27962" lon="-7.1386">
        <ele>18.98899</ele>
        <time>2021-07-13T08:09:48Z</time>
      </trkpt>
      <trkpt lat="37.27831" lon="-7.13701">
        <ele>19.77914</ele>
        <time>2021-07-13T08:09:59Z</time>
      </trkpt>
      <trkpt lat="37.2779" lon="-7.135">
        <ele>27.10507</ele>
        <time>2021-07-13T08:10:10Z</time>
      </trkpt>
      <trkpt lat="37.27657" lon="-7.13325">
        <ele>20.41849</ele>
        <time>2021-07-13T08:10:21Z</time>
      </trkpt>
      <trkpt lat="37.27542" lon="-7.13146">
        <ele>20.78179</ele>
        <time>2021-07-13T08:10:32Z</time>
      </trkpt>
      <trkpt lat="37.27428" lon="-7.12977">
        <ele>24.55476</ele>
        <time>2021-07-13T08:10:43Z</time>
      </trkpt>
      <trkpt lat="37.27349" lon="-7.12907">
        <ele>22.44015</ele>
        <time>2021-07-13T08:10:54Z</time>
      </trkpt>
      <trkpt lat="37.2722" lon="-7.12799">
        <ele>16.56198</ele>
        <time>2021-07-13T08:11:05Z</time>
      </trkpt>
      <trkpt lat="37.27128" lon="-7.12586">
        <ele>10.96738</ele>
        <time>2021-07-13T08:11:16Z</time>
      </trkpt>
      <trkpt lat="37.27109" lon="-7.12445">
        <ele>6.530682</ele>
        <time>2021-07-13T08:11:27Z</time>
      </trkpt>
      <trkpt lat="37.27117" lon="-7.12397">
        <ele>11.70908</ele>
        <time>2021-07-13T08:11:38Z</time>
      </trkpt>
      <trkpt lat="37.27034" lon="-7.1233">
        <ele>8.54467</ele>
        <time>2021-07-13T08:11:49Z</time>
      </trkpt>
      <trkpt lat="37.27033" lon="-7.12156">
        <ele>-17.75581</ele>
        <time>2021-07-13T08:12:00Z</time>
      </trkpt>
      <trkpt lat="37.27045" lon="-7.11944">
        <ele>10.0034</ele>
        <time>2021-07-13T08:12:11Z</time>
      </trkpt>
      <trkpt lat="37.27024" lon="-7.11841">
        <ele>18.22352</ele>
        <time>2021-07-13T08:12:22Z</time>
      </trkpt>
      <trkpt lat="37.27028" lon="-7.11667">
        <ele>23.34623</ele>
        <time>2021-07-13T08:12:33Z</time>
      </trkpt>
      <trkpt lat="37.26983" lon="-7.11511">
        <ele>25.40872</ele>
        <time>2021-07-13T08:12:44Z</time>
      </trkpt>
      <trkpt lat="37.26929" lon="-7.11376">
        <ele>24.42975</ele>
        <time>2021-07-13T08:12:55Z</time>
      </trkpt>
      <trkpt lat="37.26912" lon="-7.11267">
        <ele>23.45241</ele>
        <time>2021-07-13T08:13:06Z</time>
      </trkpt>
      <trkpt lat="37.26949" lon="-7.11186">
        <ele>27.22668</ele>
        <time>2021-07-13T08:13:17Z</time>
      </trkpt>
      <trkpt lat="37.27046" lon="-7.11144">
        <ele>26.10979</ele>
        <time>2021-07-13T08:13:28Z</time>
      </trkpt>
      <trkpt lat="37.27106" lon="-7.11077">
        <ele>31.845</ele>
        <time>2021-07-13T08:13:39Z</time>
      </trkpt>
      <trkpt lat="37.27167" lon="-7.11001">
        <ele>34.90147</ele>
        <time>2021-07-13T08:13:50Z</time>
      </trkpt>
      <trkpt lat="37.27256" lon="-7.1096">
        <ele>34.09078</ele>
        <time>2021-07-13T08:14:01Z</time>
      </trkpt>
      <trkpt lat="37.27318" lon="-7.109">
        <ele>34.01797</ele>
        <time>2021-07-13T08:14:12Z</time>
      </trkpt>
      <trkpt lat="37.27371" lon="-7.10844">
        <ele>29.66731</ele>
        <time>2021-07-13T08:14:23Z</time>
      </trkpt>
      <trkpt lat="37.27427" lon="-7.1079">
        <ele>30.60907</ele>
        <time>2021-07-13T08:14:34Z</time>
      </trkpt>
      <trkpt lat="37.2748" lon="-7.10747">
        <ele>34.98672</ele>
        <time>2021-07-13T08:14:45Z</time>
      </trkpt>
      <trkpt lat="37.27553" lon="-7.10755">
        <ele>37.15078</ele>
        <time>2021-07-13T08:14:56Z</time>
      </trkpt>
      <trkpt lat="37.27607" lon="-7.10769">
        <ele>34.00875</ele>
        <time>2021-07-13T08:15:07Z</time>
      </trkpt>
      <trkpt lat="37.27611" lon="-7.10771">
        <ele>34.38558</ele>
        <time>2021-07-13T08:15:45Z</time>
      </trkpt>
      <trkpt lat="37.27657" lon="-7.10729">
        <ele>34.34124</ele>
        <time>2021-07-13T08:15:56Z</time>
      </trkpt>
      <trkpt lat="37.27675" lon="-7.10653">
        <ele>32.20195</ele>
        <time>2021-07-13T08:16:07Z</time>
      </trkpt>
      <trkpt lat="37.27687" lon="-7.10582">
        <ele>33.9289</ele>
        <time>2021-07-13T08:16:18Z</time>
      </trkpt>
      <trkpt lat="37.27731" lon="-7.10523">
        <ele>34.27634</ele>
        <time>2021-07-13T08:16:29Z</time>
      </trkpt>
      <trkpt lat="37.27786" lon="-7.10486">
        <ele>37.84813</ele>
        <time>2021-07-13T08:16:40Z</time>
      </trkpt>
      <trkpt lat="37.27822" lon="-7.10423">
        <ele>39.49433</ele>
        <time>2021-07-13T08:16:51Z</time>
      </trkpt>
      <trkpt lat="37.27876" lon="-7.1036">
        <ele>39.39126</ele>
        <time>2021-07-13T08:17:02Z</time>
      </trkpt>
      <trkpt lat="37.27917" lon="-7.10289">
        <ele>33.25808</ele>
        <time>2021-07-13T08:17:13Z</time>
      </trkpt>
      <trkpt lat="37.27959" lon="-7.10226">
        <ele>35.07014</ele>
        <time>2021-07-13T08:17:24Z</time>
      </trkpt>
      <trkpt lat="37.28005" lon="-7.10138">
        <ele>27.56637</ele>
        <time>2021-07-13T08:17:35Z</time>
      </trkpt>
      <trkpt lat="37.28039" lon="-7.10076">
        <ele>27.21199</ele>
        <time>2021-07-13T08:17:46Z</time>
      </trkpt>
      <trkpt lat="37.28061" lon="-7.10007">
        <ele>29.35325</ele>
        <time>2021-07-13T08:17:57Z</time>
      </trkpt>
      <trkpt lat="37.28099" lon="-7.09888">
        <ele>33.51852</ele>
        <time>2021-07-13T08:18:08Z</time>
      </trkpt>
      <trkpt lat="37.28102" lon="-7.09877">
        <ele>32.2566</ele>
        <time>2021-07-13T08:18:19Z</time>
      </trkpt>
      <trkpt lat="37.28155" lon="-7.0976">
        <ele>38.97924</ele>
        <time>2021-07-13T08:18:30Z</time>
      </trkpt>
      <trkpt lat="37.28226" lon="-7.0955">
        <ele>46.58609</ele>
        <time>2021-07-13T08:18:41Z</time>
      </trkpt>
      <trkpt lat="37.28277" lon="-7.0936">
        <ele>53.88098</ele>
        <time>2021-07-13T08:18:52Z</time>
      </trkpt>
      <trkpt lat="37.28231" lon="-7.09214">
        <ele>55.02209</ele>
        <time>2021-07-13T08:19:03Z</time>
      </trkpt>
      <trkpt lat="37.28145" lon="-7.09038">
        <ele>65.244</ele>
        <time>2021-07-13T08:19:14Z</time>
      </trkpt>
      <trkpt lat="37.28067" lon="-7.08866">
        <ele>64.21693</ele>
        <time>2021-07-13T08:19:25Z</time>
      </trkpt>
      <trkpt lat="37.27952" lon="-7.08734">
        <ele>64.87242</ele>
        <time>2021-07-13T08:19:36Z</time>
      </trkpt>
      <trkpt lat="37.27842" lon="-7.08571">
        <ele>66.2646</ele>
        <time>2021-07-13T08:19:47Z</time>
      </trkpt>
      <trkpt lat="37.27677" lon="-7.08457">
        <ele>67.50581</ele>
        <time>2021-07-13T08:19:58Z</time>
      </trkpt>
      <trkpt lat="37.27559" lon="-7.08304">
        <ele>62.94512</ele>
        <time>2021-07-13T08:20:09Z</time>
      </trkpt>
      <trkpt lat="37.27504" lon="-7.08224">
        <ele>61.98199</ele>
        <time>2021-07-13T08:20:20Z</time>
      </trkpt>
      <trkpt lat="37.27563" lon="-7.08051">
        <ele>67.30545</ele>
        <time>2021-07-13T08:20:31Z</time>
      </trkpt>
      <trkpt lat="37.27643" lon="-7.07915">
        <ele>70.57936</ele>
        <time>2021-07-13T08:20:42Z</time>
      </trkpt>
      <trkpt lat="37.27758" lon="-7.07895">
        <ele>73.71613</ele>
        <time>2021-07-13T08:20:53Z</time>
      </trkpt>
      <trkpt lat="37.27815" lon="-7.0785">
        <ele>72.83748</ele>
        <time>2021-07-13T08:21:04Z</time>
      </trkpt>
      <trkpt lat="37.27867" lon="-7.07754">
        <ele>68.28199</ele>
        <time>2021-07-13T08:21:15Z</time>
      </trkpt>
      <trkpt lat="37.27823" lon="-7.07572">
        <ele>68.97945</ele>
        <time>2021-07-13T08:21:26Z</time>
      </trkpt>
      <trkpt lat="37.2778" lon="-7.07406">
        <ele>64.78546</ele>
        <time>2021-07-13T08:21:37Z</time>
      </trkpt>
      <trkpt lat="37.27726" lon="-7.07258">
        <ele>63.40373</ele>
        <time>2021-07-13T08:21:48Z</time>
      </trkpt>
      <trkpt lat="37.27655" lon="-7.07207">
        <ele>63.8083</ele>
        <time>2021-07-13T08:21:59Z</time>
      </trkpt>
      <trkpt lat="37.27554" lon="-7.0721">
        <ele>60.74809</ele>
        <time>2021-07-13T08:22:10Z</time>
      </trkpt>
      <trkpt lat="37.27485" lon="-7.07151">
        <ele>59.40358</ele>
        <time>2021-07-13T08:22:21Z</time>
      </trkpt>
      <trkpt lat="37.27384" lon="-7.07064">
        <ele>59.41871</ele>
        <time>2021-07-13T08:22:32Z</time>
      </trkpt>
      <trkpt lat="37.27283" lon="-7.06983">
        <ele>59.9396</ele>
        <time>2021-07-13T08:22:43Z</time>
      </trkpt>
      <trkpt lat="37.27237" lon="-7.06845">
        <ele>57.56326</ele>
        <time>2021-07-13T08:22:54Z</time>
      </trkpt>
      <trkpt lat="37.27246" lon="-7.0671">
        <ele>53.52741</ele>
        <time>2021-07-13T08:23:05Z</time>
      </trkpt>
      <trkpt lat="37.27207" lon="-7.0655">
        <ele>54.31655</ele>
        <time>2021-07-13T08:23:16Z</time>
      </trkpt>
      <trkpt lat="37.27149" lon="-7.06406">
        <ele>52.0992</ele>
        <time>2021-07-13T08:23:27Z</time>
      </trkpt>
      <trkpt lat="37.27056" lon="-7.06303">
        <ele>56.58311</ele>
        <time>2021-07-13T08:23:38Z</time>
      </trkpt>
      <trkpt lat="37.26987" lon="-7.06197">
        <ele>59.09038</ele>
        <time>2021-07-13T08:23:49Z</time>
      </trkpt>
      <trkpt lat="37.26937" lon="-7.0609">
        <ele>56.50724</ele>
        <time>2021-07-13T08:24:00Z</time>
      </trkpt>
      <trkpt lat="37.26869" lon="-7.05995">
        <ele>56.79263</ele>
        <time>2021-07-13T08:24:11Z</time>
      </trkpt>
      <trkpt lat="37.26853" lon="-7.05848">
        <ele>62.39622</ele>
        <time>2021-07-13T08:24:22Z</time>
      </trkpt>
      <trkpt lat="37.2686" lon="-7.05697">
        <ele>62.06818</ele>
        <time>2021-07-13T08:24:33Z</time>
      </trkpt>
      <trkpt lat="37.2685" lon="-7.05554">
        <ele>61.27025</ele>
        <time>2021-07-13T08:24:44Z</time>
      </trkpt>
      <trkpt lat="37.2688" lon="-7.05436">
        <ele>61.37924</ele>
        <time>2021-07-13T08:24:55Z</time>
      </trkpt>
      <trkpt lat="37.26906" lon="-7.05311">
        <ele>59.2203</ele>
        <time>2021-07-13T08:25:06Z</time>
      </trkpt>
      <trkpt lat="37.26984" lon="-7.05209">
        <ele>56.59201</ele>
        <time>2021-07-13T08:25:17Z</time>
      </trkpt>
      <trkpt lat="37.27009" lon="-7.05076">
        <ele>51.01542</ele>
        <time>2021-07-13T08:25:28Z</time>
      </trkpt>
      <trkpt lat="37.27031" lon="-7.04946">
        <ele>54.24715</ele>
        <time>2021-07-13T08:25:39Z</time>
      </trkpt>
      <trkpt lat="37.27056" lon="-7.04861">
        <ele>53.44647</ele>
        <time>2021-07-13T08:25:50Z</time>
      </trkpt>
      <trkpt lat="37.27037" lon="-7.04751">
        <ele>53.79125</ele>
        <time>2021-07-13T08:26:01Z</time>
      </trkpt>
      <trkpt lat="37.26955" lon="-7.04629">
        <ele>58.37691</ele>
        <time>2021-07-13T08:26:12Z</time>
      </trkpt>
      <trkpt lat="37.26874" lon="-7.04564">
        <ele>56.17008</ele>
        <time>2021-07-13T08:26:23Z</time>
      </trkpt>
      <trkpt lat="37.26829" lon="-7.04472">
        <ele>53.18984</ele>
        <time>2021-07-13T08:26:34Z</time>
      </trkpt>
      <trkpt lat="37.26784" lon="-7.04419">
        <ele>43.73448</ele>
        <time>2021-07-13T08:26:45Z</time>
      </trkpt>
      <trkpt lat="37.26682" lon="-7.04407">
        <ele>45.01132</ele>
        <time>2021-07-13T08:26:56Z</time>
      </trkpt>
      <trkpt lat="37.26595" lon="-7.04302">
        <ele>43.31898</ele>
        <time>2021-07-13T08:27:07Z</time>
      </trkpt>
      <trkpt lat="37.26498" lon="-7.04255">
        <ele>42.20971</ele>
        <time>2021-07-13T08:27:18Z</time>
      </trkpt>
      <trkpt lat="37.2638" lon="-7.04172">
        <ele>37.43938</ele>
        <time>2021-07-13T08:27:29Z</time>
      </trkpt>
      <trkpt lat="37.26355" lon="-7.03988">
        <ele>41.01615</ele>
        <time>2021-07-13T08:27:40Z</time>
      </trkpt>
      <trkpt lat="37.26382" lon="-7.03898">
        <ele>39.31739</ele>
        <time>2021-07-13T08:27:51Z</time>
      </trkpt>
      <trkpt lat="37.26461" lon="-7.03727">
        <ele>36.82818</ele>
        <time>2021-07-13T08:28:02Z</time>
      </trkpt>
      <trkpt lat="37.2654" lon="-7.03575">
        <ele>36.91345</ele>
        <time>2021-07-13T08:28:13Z</time>
      </trkpt>
      <trkpt lat="37.26661" lon="-7.03463">
        <ele>34.41529</ele>
        <time>2021-07-13T08:28:24Z</time>
      </trkpt>
      <trkpt lat="37.26783" lon="-7.03345">
        <ele>35.6973</ele>
        <time>2021-07-13T08:28:35Z</time>
      </trkpt>
      <trkpt lat="37.26884" lon="-7.03258">
        <ele>36.70414</ele>
        <time>2021-07-13T08:28:46Z</time>
      </trkpt>
      <trkpt lat="37.26918" lon="-7.03075">
        <ele>38.0262</ele>
        <time>2021-07-13T08:28:57Z</time>
      </trkpt>
      <trkpt lat="37.26958" lon="-7.0291">
        <ele>35.54098</ele>
        <time>2021-07-13T08:29:08Z</time>
      </trkpt>
      <trkpt lat="37.26988" lon="-7.02772">
        <ele>35.27013</ele>
        <time>2021-07-13T08:29:19Z</time>
      </trkpt>
      <trkpt lat="37.27024" lon="-7.02645">
        <ele>33.09945</ele>
        <time>2021-07-13T08:29:30Z</time>
      </trkpt>
      <trkpt lat="37.27086" lon="-7.02606">
        <ele>33.32764</ele>
        <time>2021-07-13T08:29:41Z</time>
      </trkpt>
      <trkpt lat="37.27205" lon="-7.02642">
        <ele>23.07183</ele>
        <time>2021-07-13T08:29:52Z</time>
      </trkpt>
      <trkpt lat="37.27289" lon="-7.02681">
        <ele>21.50627</ele>
        <time>2021-07-13T08:30:03Z</time>
      </trkpt>
      <trkpt lat="37.27329" lon="-7.02704">
        <ele>18.49812</ele>
        <time>2021-07-13T08:30:14Z</time>
      </trkpt>
      <trkpt lat="37.27428" lon="-7.02561">
        <ele>10.71008</ele>
        <time>2021-07-13T08:30:25Z</time>
      </trkpt>
      <trkpt lat="37.27548" lon="-7.02384">
        <ele>7.484952</ele>
        <time>2021-07-13T08:30:36Z</time>
      </trkpt>
      <trkpt lat="37.27607" lon="-7.02273">
        <ele>7.125371</ele>
        <time>2021-07-13T08:30:47Z</time>
      </trkpt>
      <trkpt lat="37.276" lon="-7.02195">
        <ele>5.246373</ele>
        <time>2021-07-13T08:30:58Z</time>
      </trkpt>
      <trkpt lat="37.27569" lon="-7.01964">
        <ele>7.618652</ele>
        <time>2021-07-13T08:31:09Z</time>
      </trkpt>
      <trkpt lat="37.27534" lon="-7.01718">
        <ele>8.983206</ele>
        <time>2021-07-13T08:31:20Z</time>
      </trkpt>
      <trkpt lat="37.27556" lon="-7.01543">
        <ele>10.52376</ele>
        <time>2021-07-13T08:31:31Z</time>
      </trkpt>
      <trkpt lat="37.27612" lon="-7.01426">
        <ele>14.19383</ele>
        <time>2021-07-13T08:31:42Z</time>
      </trkpt>
      <trkpt lat="37.27703" lon="-7.01237">
        <ele>14.21961</ele>
        <time>2021-07-13T08:31:53Z</time>
      </trkpt>
      <trkpt lat="37.27816" lon="-7.01027">
        <ele>7.866539</ele>
        <time>2021-07-13T08:32:04Z</time>
      </trkpt>
      <trkpt lat="37.27922" lon="-7.00791">
        <ele>6.936296</ele>
        <time>2021-07-13T08:32:15Z</time>
      </trkpt>
      <trkpt lat="37.28018" lon="-7.00543">
        <ele>8.589407</ele>
        <time>2021-07-13T08:32:26Z</time>
      </trkpt>
      <trkpt lat="37.28063" lon="-7.00286">
        <ele>12.35998</ele>
        <time>2021-07-13T08:32:37Z</time>
      </trkpt>
      <trkpt lat="37.28022" lon="-7.00104">
        <ele>14.75234</ele>
        <time>2021-07-13T08:32:48Z</time>
      </trkpt>
      <trkpt lat="37.27999" lon="-6.99958">
        <ele>14.78985</ele>
        <time>2021-07-13T08:32:59Z</time>
      </trkpt>
      <trkpt lat="37.27979" lon="-6.99808">
        <ele>12.31402</ele>
        <time>2021-07-13T08:33:10Z</time>
      </trkpt>
      <trkpt lat="37.27939" lon="-6.99615">
        <ele>8.838633</ele>
        <time>2021-07-13T08:33:21Z</time>
      </trkpt>
      <trkpt lat="37.27887" lon="-6.99415">
        <ele>6.439268</ele>
        <time>2021-07-13T08:33:32Z</time>
      </trkpt>
      <trkpt lat="37.27796" lon="-6.99272">
        <ele>12.41837</ele>
        <time>2021-07-13T08:33:43Z</time>
      </trkpt>
      <trkpt lat="37.27713" lon="-6.99196">
        <ele>14.40854</ele>
        <time>2021-07-13T08:33:54Z</time>
      </trkpt>
      <trkpt lat="37.27677" lon="-6.99164">
        <ele>19.58668</ele>
        <time>2021-07-13T08:34:05Z</time>
      </trkpt>
      <trkpt lat="37.27647" lon="-6.99138">
        <ele>21.56237</ele>
        <time>2021-07-13T08:34:16Z</time>
      </trkpt>
      <trkpt lat="37.27586" lon="-6.99136">
        <ele>23.90964</ele>
        <time>2021-07-13T08:34:27Z</time>
      </trkpt>
      <trkpt lat="37.27575" lon="-6.99114">
        <ele>25.06947</ele>
        <time>2021-07-13T08:34:38Z</time>
      </trkpt>
      <trkpt lat="37.27561" lon="-6.99118">
        <ele>21.90505</ele>
        <time>2021-07-13T08:34:51Z</time>
      </trkpt>
      <trkpt lat="37.27483" lon="-6.99128">
        <ele>24.99487</ele>
        <time>2021-07-13T08:35:02Z</time>
      </trkpt>
      <trkpt lat="37.27405" lon="-6.99136">
        <ele>20.61097</ele>
        <time>2021-07-13T08:35:13Z</time>
      </trkpt>
      <trkpt lat="37.27364" lon="-6.99155">
        <ele>21.58944</ele>
        <time>2021-07-13T08:35:24Z</time>
      </trkpt>
      <trkpt lat="37.27219" lon="-6.99088">
        <ele>21.84463</ele>
        <time>2021-07-13T08:35:35Z</time>
      </trkpt>
      <trkpt lat="37.27134" lon="-6.98992">
        <ele>21.11253</ele>
        <time>2021-07-13T08:35:46Z</time>
      </trkpt>
      <trkpt lat="37.27085" lon="-6.98858">
        <ele>16.01458</ele>
        <time>2021-07-13T08:35:57Z</time>
      </trkpt>
      <trkpt lat="37.27076" lon="-6.98728">
        <ele>6.092424</ele>
        <time>2021-07-13T08:36:08Z</time>
      </trkpt>
      <trkpt lat="37.27064" lon="-6.98655">
        <ele>4.821209</ele>
        <time>2021-07-13T08:36:19Z</time>
      </trkpt>
      <trkpt lat="37.27142" lon="-6.98601">
        <ele>2.105478</ele>
        <time>2021-07-13T08:36:30Z</time>
      </trkpt>
      <trkpt lat="37.27107" lon="-6.98411">
        <ele>1.300422</ele>
        <time>2021-07-13T08:36:41Z</time>
      </trkpt>
      <trkpt lat="37.26992" lon="-6.98227">
        <ele>2.667271</ele>
        <time>2021-07-13T08:36:52Z</time>
      </trkpt>
      <trkpt lat="37.26864" lon="-6.98033">
        <ele>5.413296</ele>
        <time>2021-07-13T08:37:03Z</time>
      </trkpt>
      <trkpt lat="37.26736" lon="-6.97832">
        <ele>9.397664</ele>
        <time>2021-07-13T08:37:14Z</time>
      </trkpt>
      <trkpt lat="37.26681" lon="-6.97595">
        <ele>10.47922</ele>
        <time>2021-07-13T08:37:25Z</time>
      </trkpt>
      <trkpt lat="37.26683" lon="-6.97357">
        <ele>10.10646</ele>
        <time>2021-07-13T08:37:36Z</time>
      </trkpt>
      <trkpt lat="37.26687" lon="-6.97115">
        <ele>9.067926</ele>
        <time>2021-07-13T08:37:47Z</time>
      </trkpt>
      <trkpt lat="37.2669" lon="-6.96873">
        <ele>8.527159</ele>
        <time>2021-07-13T08:37:58Z</time>
      </trkpt>
      <trkpt lat="37.26693" lon="-6.96638">
        <ele>7.426014</ele>
        <time>2021-07-13T08:38:09Z</time>
      </trkpt>
      <trkpt lat="37.26696" lon="-6.96409">
        <ele>7.195528</ele>
        <time>2021-07-13T08:38:20Z</time>
      </trkpt>
      <trkpt lat="37.26699" lon="-6.96194">
        <ele>3.778738</ele>
        <time>2021-07-13T08:38:31Z</time>
      </trkpt>
      <trkpt lat="37.26698" lon="-6.9605">
        <ele>1.002223</ele>
        <time>2021-07-13T08:38:42Z</time>
      </trkpt>
      <trkpt lat="37.26697" lon="-6.95883">
        <ele>-0.815155</ele>
        <time>2021-07-13T08:38:53Z</time>
      </trkpt>
      <trkpt lat="37.2659" lon="-6.95914">
        <ele>6.269676</ele>
        <time>2021-07-13T08:39:04Z</time>
      </trkpt>
      <trkpt lat="37.26508" lon="-6.95941">
        <ele>8.457837</ele>
        <time>2021-07-13T08:39:15Z</time>
      </trkpt>
      <trkpt lat="37.26472" lon="-6.95954">
        <ele>24.97277</ele>
        <time>2021-07-13T08:39:26Z</time>
      </trkpt>
      <trkpt lat="37.26404" lon="-6.95973">
        <ele>31.45322</ele>
        <time>2021-07-13T08:39:37Z</time>
      </trkpt>
      <trkpt lat="37.26374" lon="-6.95947">
        <ele>34.4096</ele>
        <time>2021-07-13T08:39:48Z</time>
      </trkpt>
      <trkpt lat="37.26343" lon="-6.95878">
        <ele>23.90678</ele>
        <time>2021-07-13T08:39:59Z</time>
      </trkpt>
      <trkpt lat="37.26342" lon="-6.95917">
        <ele>14.97586</ele>
        <time>2021-07-13T08:40:10Z</time>
      </trkpt>
      <trkpt lat="37.26244" lon="-6.95945">
        <ele>2.41267</ele>
        <time>2021-07-13T08:40:21Z</time>
      </trkpt>
      <trkpt lat="37.2618" lon="-6.9593">
        <ele>10.54944</ele>
        <time>2021-07-13T08:40:32Z</time>
      </trkpt>
      <trkpt lat="37.26103" lon="-6.95889">
        <ele>13.63988</ele>
        <time>2021-07-13T08:40:43Z</time>
      </trkpt>
      <trkpt lat="37.26037" lon="-6.95873">
        <ele>13.11848</ele>
        <time>2021-07-13T08:40:54Z</time>
      </trkpt>
      <trkpt lat="37.25975" lon="-6.95856">
        <ele>16.28952</ele>
        <time>2021-07-13T08:41:05Z</time>
      </trkpt>
      <trkpt lat="37.25929" lon="-6.95847">
        <ele>20.78618</ele>
        <time>2021-07-13T08:41:16Z</time>
      </trkpt>
      <trkpt lat="37.25923" lon="-6.95845">
        <ele>23.28538</ele>
        <time>2021-07-13T08:41:27Z</time>
      </trkpt>
      <trkpt lat="37.25919" lon="-6.95844">
        <ele>25.12892</ele>
        <time>2021-07-13T08:41:38Z</time>
      </trkpt>
      <trkpt lat="37.259" lon="-6.95839">
        <ele>24.15753</ele>
        <time>2021-07-13T08:41:49Z</time>
      </trkpt>
      <trkpt lat="37.25763" lon="-6.95807">
        <ele>11.18742</ele>
        <time>2021-07-13T08:42:00Z</time>
      </trkpt>
      <trkpt lat="37.25648" lon="-6.95779">
        <ele>8.027126</ele>
        <time>2021-07-13T08:42:11Z</time>
      </trkpt>
      <trkpt lat="37.2558" lon="-6.95762">
        <ele>6.468378</ele>
        <time>2021-07-13T08:42:22Z</time>
      </trkpt>
      <trkpt lat="37.25581" lon="-6.95758">
        <ele>5.689679</ele>
        <time>2021-07-13T08:42:33Z</time>
      </trkpt>
      <trkpt lat="37.25545" lon="-6.95735">
        <ele>6.676418</ele>
        <time>2021-07-13T08:42:44Z</time>
      </trkpt>
      <trkpt lat="37.25467" lon="-6.95651">
        <ele>10.20159</ele>
        <time>2021-07-13T08:42:55Z</time>
      </trkpt>
      <trkpt lat="37.25447" lon="-6.9563">
        <ele>14.45182</ele>
        <time>2021-07-13T08:43:06Z</time>
      </trkpt>
      <trkpt lat="37.25432" lon="-6.95611">
        <ele>19.39079</ele>
        <time>2021-07-13T08:43:17Z</time>
      </trkpt>
      <trkpt lat="37.25406" lon="-6.95583">
        <ele>17.41147</ele>
        <time>2021-07-13T08:43:28Z</time>
      </trkpt>
      <trkpt lat="37.25403" lon="-6.95578">
        <ele>19.99568</ele>
        <time>2021-07-13T08:43:39Z</time>
      </trkpt>
      <trkpt lat="37.25401" lon="-6.95573">
        <ele>19.75673</ele>
        <time>2021-07-13T08:43:50Z</time>
      </trkpt>
      <trkpt lat="37.25399" lon="-6.95577">
        <ele>11.89588</ele>
        <time>2021-07-13T08:44:07Z</time>
      </trkpt>
      <trkpt lat="37.25402" lon="-6.9558">
        <ele>9.294286</ele>
        <time>2021-07-13T08:44:18Z</time>
      </trkpt>
      <trkpt lat="37.254" lon="-6.95574">
        <ele>14.44558</ele>
        <time>2021-07-13T08:44:39Z</time>
      </trkpt>
      <trkpt lat="37.2539" lon="-6.95565">
        <ele>16.44372</ele>
        <time>2021-07-13T08:44:50Z</time>
      </trkpt>
      <trkpt lat="37.25391" lon="-6.95569">
        <ele>16.10281</ele>
        <time>2021-07-13T08:45:03Z</time>
      </trkpt>
      <trkpt lat="37.25335" lon="-6.95611">
        <ele>23.47631</ele>
        <time>2021-07-13T08:45:14Z</time>
      </trkpt>
      <trkpt lat="37.25249" lon="-6.95671">
        <ele>38.60209</ele>
        <time>2021-07-13T08:45:25Z</time>
      </trkpt>
      <trkpt lat="37.25165" lon="-6.9573">
        <ele>36.97088</ele>
        <time>2021-07-13T08:45:36Z</time>
      </trkpt>
      <trkpt lat="37.25144" lon="-6.95762">
        <ele>27.15795</ele>
        <time>2021-07-13T08:45:47Z</time>
      </trkpt>
      <trkpt lat="37.25034" lon="-6.95721">
        <ele>17.30344</ele>
        <time>2021-07-13T08:45:58Z</time>
      </trkpt>
      <trkpt lat="37.2491" lon="-6.95673">
        <ele>12.20751</ele>
        <time>2021-07-13T08:46:09Z</time>
      </trkpt>
      <trkpt lat="37.2478" lon="-6.95623">
        <ele>6.197265</ele>
        <time>2021-07-13T08:46:20Z</time>
      </trkpt>
      <trkpt lat="37.24652" lon="-6.95572">
        <ele>3.34962</ele>
        <time>2021-07-13T08:46:31Z</time>
      </trkpt>
      <trkpt lat="37.24509" lon="-6.9553">
        <ele>4.311902</ele>
        <time>2021-07-13T08:46:42Z</time>
      </trkpt>
      <trkpt lat="37.24376" lon="-6.95508">
        <ele>3.461311</ele>
        <time>2021-07-13T08:46:53Z</time>
      </trkpt>
      <trkpt lat="37.24233" lon="-6.95512">
        <ele>2.317984</ele>
        <time>2021-07-13T08:47:04Z</time>
      </trkpt>
      <trkpt lat="37.24103" lon="-6.95469">
        <ele>0.983114</ele>
        <time>2021-07-13T08:47:15Z</time>
      </trkpt>
      <trkpt lat="37.23973" lon="-6.95439">
        <ele>0.123562</ele>
        <time>2021-07-13T08:47:26Z</time>
      </trkpt>
      <trkpt lat="37.23865" lon="-6.95452">
        <ele>-0.925514</ele>
        <time>2021-07-13T08:47:37Z</time>
      </trkpt>
      <trkpt lat="37.23917" lon="-6.95414">
        <ele>1.236309</ele>
        <time>2021-07-13T08:47:48Z</time>
      </trkpt>
      <trkpt lat="37.24047" lon="-6.9544">
        <ele>1.356516</ele>
        <time>2021-07-13T08:47:59Z</time>
      </trkpt>
      <trkpt lat="37.24081" lon="-6.95424">
        <ele>0.570775</ele>
        <time>2021-07-13T08:48:10Z</time>
      </trkpt>
      <trkpt lat="37.24067" lon="-6.95421">
        <ele>6.105615</ele>
        <time>2021-07-13T08:48:21Z</time>
      </trkpt>
      <trkpt lat="37.24061" lon="-6.9542">
        <ele>7.403226</ele>
        <time>2021-07-13T08:48:49Z</time>
      </trkpt>
      <trkpt lat="37.24065" lon="-6.95421">
        <ele>11.08034</ele>
        <time>2021-07-13T08:49:01Z</time>
      </trkpt>
      <trkpt lat="37.24068" lon="-6.95421">
        <ele>12.35906</ele>
        <time>2021-07-13T08:49:16Z</time>
      </trkpt>
      <trkpt lat="37.24072" lon="-6.95422">
        <ele>8.276357</ele>
        <time>2021-07-13T08:49:27Z</time>
      </trkpt>
      <trkpt lat="37.24074" lon="-6.95431">
        <ele>9.087383</ele>
        <time>2021-07-13T08:49:38Z</time>
      </trkpt>
      <trkpt lat="37.24073" lon="-6.95431">
        <ele>2.619458</ele>
        <time>2021-07-13T08:50:38Z</time>
      </trkpt>
      <trkpt lat="37.24076" lon="-6.95429">
        <ele>3.815475</ele>
        <time>2021-07-13T08:51:07Z</time>
      </trkpt>
      <trkpt lat="37.24075" lon="-6.95424">
        <ele>3.769359</ele>
        <time>2021-07-13T08:51:44Z</time>
      </trkpt>
      <trkpt lat="37.24078" lon="-6.95427">
        <ele>3.729933</ele>
        <time>2021-07-13T08:52:32Z</time>
      </trkpt>
      <trkpt lat="37.24075" lon="-6.95429">
        <ele>4.004918</ele>
        <time>2021-07-13T08:52:44Z</time>
      </trkpt>
      <trkpt lat="37.24072" lon="-6.95427">
        <ele>3.700178</ele>
        <time>2021-07-13T08:53:18Z</time>
      </trkpt>
      <trkpt lat="37.24074" lon="-6.95429">
        <ele>3.562863</ele>
        <time>2021-07-13T08:54:17Z</time>
      </trkpt>
      <trkpt lat="37.24077" lon="-6.95426">
        <ele>2.956391</ele>
        <time>2021-07-13T08:55:05Z</time>
      </trkpt>
      <trkpt lat="37.24074" lon="-6.95426">
        <ele>2.626037</ele>
        <time>2021-07-13T08:56:05Z</time>
      </trkpt>
      <trkpt lat="37.24072" lon="-6.9543">
        <ele>3.214128</ele>
        <time>2021-07-13T08:56:17Z</time>
      </trkpt>
      <trkpt lat="37.24072" lon="-6.95428">
        <ele>3.740039</ele>
        <time>2021-07-13T08:57:17Z</time>
      </trkpt>
      <trkpt lat="37.24077" lon="-6.95426">
        <ele>3.759292</ele>
        <time>2021-07-13T08:57:33Z</time>
      </trkpt>
      <trkpt lat="37.24074" lon="-6.9542">
        <ele>3.45865</ele>
        <time>2021-07-13T08:57:53Z</time>
      </trkpt>
      <trkpt lat="37.24069" lon="-6.95419">
        <ele>3.434943</ele>
        <time>2021-07-13T08:58:04Z</time>
      </trkpt>
      <trkpt lat="37.24065" lon="-6.95421">
        <ele>4.852154</ele>
        <time>2021-07-13T08:58:21Z</time>
      </trkpt>
      <trkpt lat="37.24067" lon="-6.95434">
        <ele>2.694822</ele>
        <time>2021-07-13T08:58:32Z</time>
      </trkpt>
      <trkpt lat="37.24071" lon="-6.95432">
        <ele>2.8226</ele>
        <time>2021-07-13T08:58:43Z</time>
      </trkpt>
      <trkpt lat="37.24075" lon="-6.9543">
        <ele>3.836261</ele>
        <time>2021-07-13T08:59:14Z</time>
      </trkpt>
      <trkpt lat="37.24071" lon="-6.95428">
        <ele>4.129804</ele>
        <time>2021-07-13T08:59:27Z</time>
      </trkpt>
      <trkpt lat="37.24074" lon="-6.95427">
        <ele>4.94478</ele>
        <time>2021-07-13T08:59:46Z</time>
      </trkpt>
      <trkpt lat="37.24074" lon="-6.95428">
        <ele>3.097262</ele>
        <time>2021-07-13T09:00:46Z</time>
      </trkpt>
      <trkpt lat="37.24074" lon="-6.95428">
        <ele>3.097262</ele>
        <time>2021-07-13T09:01:46Z</time>
      </trkpt>
      <trkpt lat="37.24074" lon="-6.95429">
        <ele>3.458775</ele>
        <time>2021-07-13T09:02:45Z</time>
      </trkpt>
      <trkpt lat="37.2407" lon="-6.95427">
        <ele>3.34283</ele>
        <time>2021-07-13T09:03:18Z</time>
      </trkpt>
      <trkpt lat="37.24069" lon="-6.9543">
        <ele>3.44764</ele>
        <time>2021-07-13T09:04:18Z</time>
      </trkpt>
      <trkpt lat="37.24074" lon="-6.95431">
        <ele>3.809036</ele>
        <time>2021-07-13T09:04:47Z</time>
      </trkpt>
      <trkpt lat="37.24072" lon="-6.9543">
        <ele>3.941215</ele>
        <time>2021-07-13T09:05:46Z</time>
      </trkpt>
      <trkpt lat="37.24076" lon="-6.95429">
        <ele>4.339669</ele>
        <time>2021-07-13T09:06:09Z</time>
      </trkpt>
      <trkpt lat="37.24073" lon="-6.9543">
        <ele>3.591369</ele>
        <time>2021-07-13T09:07:08Z</time>
      </trkpt>
      <trkpt lat="37.24073" lon="-6.9543">
        <ele>3.591369</ele>
        <time>2021-07-13T09:08:07Z</time>
      </trkpt>
      <trkpt lat="37.24073" lon="-6.9543">
        <ele>3.591369</ele>
        <time>2021-07-13T09:09:06Z</time>
      </trkpt>
      <trkpt lat="37.24074" lon="-6.95434">
        <ele>3.355101</ele>
        <time>2021-07-13T09:10:05Z</time>
      </trkpt>
      <trkpt lat="37.24075" lon="-6.95429">
        <ele>3.546843</ele>
        <time>2021-07-13T09:10:57Z</time>
      </trkpt>
      <trkpt lat="37.24074" lon="-6.95425">
        <ele>3.309212</ele>
        <time>2021-07-13T09:11:31Z</time>
      </trkpt>
      <trkpt lat="37.24073" lon="-6.9543">
        <ele>3.197128</ele>
        <time>2021-07-13T09:12:10Z</time>
      </trkpt>
      <trkpt lat="37.24069" lon="-6.95428">
        <ele>4.436459</ele>
        <time>2021-07-13T09:12:45Z</time>
      </trkpt>
      <trkpt lat="37.24073" lon="-6.9543">
        <ele>3.751765</ele>
        <time>2021-07-13T09:13:42Z</time>
      </trkpt>
      <trkpt lat="37.24075" lon="-6.95424">
        <ele>4.668942</ele>
        <time>2021-07-13T09:13:56Z</time>
      </trkpt>
      <trkpt lat="37.24075" lon="-6.9542">
        <ele>4.219889</ele>
        <time>2021-07-13T09:14:07Z</time>
      </trkpt>
      <trkpt lat="37.24075" lon="-6.95425">
        <ele>4.372875</ele>
        <time>2021-07-13T09:14:36Z</time>
      </trkpt>
      <trkpt lat="37.24071" lon="-6.95426">
        <ele>3.352301</ele>
        <time>2021-07-13T09:14:48Z</time>
      </trkpt>
      <trkpt lat="37.24074" lon="-6.95424">
        <ele>5.598675</ele>
        <time>2021-07-13T09:15:46Z</time>
      </trkpt>
      <trkpt lat="37.24076" lon="-6.95429">
        <ele>2.764093</ele>
        <time>2021-07-13T09:15:59Z</time>
      </trkpt>
      <trkpt lat="37.24074" lon="-6.95424">
        <ele>2.119503</ele>
        <time>2021-07-13T09:16:28Z</time>
      </trkpt>
      <trkpt lat="37.24071" lon="-6.95427">
        <ele>3.148784</ele>
        <time>2021-07-13T09:16:39Z</time>
      </trkpt>
      <trkpt lat="37.24073" lon="-6.95429">
        <ele>3.589506</ele>
        <time>2021-07-13T09:17:38Z</time>
      </trkpt>
      <trkpt lat="37.24069" lon="-6.95429">
        <ele>5.215125</ele>
        <time>2021-07-13T09:18:15Z</time>
      </trkpt>
      <trkpt lat="37.24072" lon="-6.95426">
        <ele>4.450717</ele>
        <time>2021-07-13T09:18:28Z</time>
      </trkpt>
      <trkpt lat="37.24071" lon="-6.95424">
        <ele>3.787337</ele>
        <time>2021-07-13T09:19:27Z</time>
      </trkpt>
      <trkpt lat="37.24069" lon="-6.95428">
        <ele>4.676777</ele>
        <time>2021-07-13T09:19:40Z</time>
      </trkpt>
      <trkpt lat="37.24073" lon="-6.9543">
        <ele>3.985314</ele>
        <time>2021-07-13T09:20:35Z</time>
      </trkpt>
      <trkpt lat="37.24074" lon="-6.95429">
        <ele>4.547454</ele>
        <time>2021-07-13T09:21:33Z</time>
      </trkpt>
      <trkpt lat="37.24073" lon="-6.95427">
        <ele>4.722294</ele>
        <time>2021-07-13T09:22:32Z</time>
      </trkpt>
      <trkpt lat="37.24073" lon="-6.95427">
        <ele>4.722294</ele>
        <time>2021-07-13T09:23:31Z</time>
      </trkpt>
      <trkpt lat="37.24073" lon="-6.95427">
        <ele>4.722294</ele>
        <time>2021-07-13T09:24:30Z</time>
      </trkpt>
      <trkpt lat="37.24073" lon="-6.95427">
        <ele>4.722294</ele>
        <time>2021-07-13T09:25:29Z</time>
      </trkpt>
      <trkpt lat="37.24071" lon="-6.95433">
        <ele>4.615414</ele>
        <time>2021-07-13T09:26:06Z</time>
      </trkpt>
      <trkpt lat="37.24072" lon="-6.95427">
        <ele>3.77258</ele>
        <time>2021-07-13T09:26:24Z</time>
      </trkpt>
      <trkpt lat="37.24071" lon="-6.95426">
        <ele>5.850082</ele>
        <time>2021-07-13T09:27:23Z</time>
      </trkpt>
      <trkpt lat="37.24071" lon="-6.95426">
        <ele>5.850082</ele>
        <time>2021-07-13T09:28:23Z</time>
      </trkpt>
      <trkpt lat="37.24071" lon="-6.95426">
        <ele>5.850082</ele>
        <time>2021-07-13T09:29:22Z</time>
      </trkpt>
      <trkpt lat="37.24075" lon="-6.95429">
        <ele>3.948358</ele>
        <time>2021-07-13T09:30:10Z</time>
      </trkpt>
      <trkpt lat="37.24076" lon="-6.95428">
        <ele>4.004696</ele>
        <time>2021-07-13T09:31:09Z</time>
      </trkpt>
      <trkpt lat="37.24076" lon="-6.95428">
        <ele>4.004696</ele>
        <time>2021-07-13T09:32:08Z</time>
      </trkpt>
      <trkpt lat="37.24076" lon="-6.95428">
        <ele>4.004696</ele>
        <time>2021-07-13T09:33:07Z</time>
      </trkpt>
      <trkpt lat="37.24076" lon="-6.95428">
        <ele>4.004696</ele>
        <time>2021-07-13T09:34:06Z</time>
      </trkpt>
      <trkpt lat="37.24072" lon="-6.95429">
        <ele>3.637002</ele>
        <time>2021-07-13T09:34:28Z</time>
      </trkpt>
      <trkpt lat="37.24075" lon="-6.95426">
        <ele>4.470155</ele>
        <time>2021-07-13T09:35:02Z</time>
      </trkpt>
      <trkpt lat="37.24073" lon="-6.9543">
        <ele>3.3891</ele>
        <time>2021-07-13T09:35:31Z</time>
      </trkpt>
      <trkpt lat="37.24073" lon="-6.95427">
        <ele>3.721425</ele>
        <time>2021-07-13T09:36:30Z</time>
      </trkpt>
      <trkpt lat="37.24071" lon="-6.95427">
        <ele>4.296156</ele>
        <time>2021-07-13T09:37:29Z</time>
      </trkpt>
      <trkpt lat="37.24071" lon="-6.95427">
        <ele>4.296156</ele>
        <time>2021-07-13T09:38:28Z</time>
      </trkpt>
      <trkpt lat="37.24071" lon="-6.95427">
        <ele>4.296156</ele>
        <time>2021-07-13T09:39:27Z</time>
      </trkpt>
      <trkpt lat="37.24071" lon="-6.95427">
        <ele>4.296156</ele>
        <time>2021-07-13T09:40:26Z</time>
      </trkpt>
      <trkpt lat="37.24074" lon="-6.95429">
        <ele>4.629694</ele>
        <time>2021-07-13T09:40:43Z</time>
      </trkpt>
      <trkpt lat="37.24076" lon="-6.95428">
        <ele>4.841804</ele>
        <time>2021-07-13T09:41:41Z</time>
      </trkpt>
      <trkpt lat="37.24072" lon="-6.95426">
        <ele>5.806188</ele>
        <time>2021-07-13T09:41:56Z</time>
      </trkpt>
      <trkpt lat="37.24061" lon="-6.95419">
        <ele>3.2054</ele>
        <time>2021-07-13T09:42:07Z</time>
      </trkpt>
      <trkpt lat="37.24061" lon="-6.95424">
        <ele>3.372896</ele>
        <time>2021-07-13T09:42:44Z</time>
      </trkpt>
      <trkpt lat="37.24058" lon="-6.95422">
        <ele>3.709073</ele>
        <time>2021-07-13T09:43:43Z</time>
      </trkpt>
      <trkpt lat="37.2406" lon="-6.95423">
        <ele>4.369327</ele>
        <time>2021-07-13T09:44:42Z</time>
      </trkpt>
      <trkpt lat="37.2406" lon="-6.95417">
        <ele>3.578109</ele>
        <time>2021-07-13T09:44:58Z</time>
      </trkpt>
      <trkpt lat="37.24073" lon="-6.95446">
        <ele>2.515215</ele>
        <time>2021-07-13T09:45:09Z</time>
      </trkpt>
      <trkpt lat="37.2408" lon="-6.95447">
        <ele>4.206621</ele>
        <time>2021-07-13T09:45:28Z</time>
      </trkpt>
      <trkpt lat="37.24142" lon="-6.95458">
        <ele>3.216199</ele>
        <time>2021-07-13T09:45:39Z</time>
      </trkpt>
      <trkpt lat="37.24263" lon="-6.95479">
        <ele>4.073931</ele>
        <time>2021-07-13T09:45:50Z</time>
      </trkpt>
      <trkpt lat="37.2437" lon="-6.95494">
        <ele>2.912178</ele>
        <time>2021-07-13T09:46:01Z</time>
      </trkpt>
      <trkpt lat="37.24457" lon="-6.95459">
        <ele>3.123154</ele>
        <time>2021-07-13T09:46:12Z</time>
      </trkpt>
      <trkpt lat="37.24474" lon="-6.9531">
        <ele>2.645457</ele>
        <time>2021-07-13T09:46:23Z</time>
      </trkpt>
      <trkpt lat="37.24494" lon="-6.95141">
        <ele>3.369206</ele>
        <time>2021-07-13T09:46:34Z</time>
      </trkpt>
      <trkpt lat="37.24496" lon="-6.95126">
        <ele>3.197796</ele>
        <time>2021-07-13T09:46:45Z</time>
      </trkpt>
      <trkpt lat="37.24497" lon="-6.95115">
        <ele>3.06726</ele>
        <time>2021-07-13T09:47:02Z</time>
      </trkpt>
      <trkpt lat="37.24501" lon="-6.9508">
        <ele>3.650018</ele>
        <time>2021-07-13T09:47:13Z</time>
      </trkpt>
      <trkpt lat="37.24603" lon="-6.95113">
        <ele>5.004242</ele>
        <time>2021-07-13T09:47:24Z</time>
      </trkpt>
      <trkpt lat="37.24734" lon="-6.95159">
        <ele>3.516757</ele>
        <time>2021-07-13T09:47:35Z</time>
      </trkpt>
      <trkpt lat="37.2484" lon="-6.95167">
        <ele>4.684805</ele>
        <time>2021-07-13T09:47:46Z</time>
      </trkpt>
      <trkpt lat="37.2496" lon="-6.9524">
        <ele>3.770195</ele>
        <time>2021-07-13T09:47:57Z</time>
      </trkpt>
      <trkpt lat="37.25081" lon="-6.95281">
        <ele>4.635339</ele>
        <time>2021-07-13T09:48:08Z</time>
      </trkpt>
      <trkpt lat="37.25161" lon="-6.95308">
        <ele>2.757274</ele>
        <time>2021-07-13T09:48:19Z</time>
      </trkpt>
      <trkpt lat="37.25209" lon="-6.95304">
        <ele>4.982411</ele>
        <time>2021-07-13T09:48:30Z</time>
      </trkpt>
      <trkpt lat="37.25287" lon="-6.95428">
        <ele>6.683357</ele>
        <time>2021-07-13T09:48:41Z</time>
      </trkpt>
      <trkpt lat="37.25362" lon="-6.95517">
        <ele>5.87624</ele>
        <time>2021-07-13T09:48:52Z</time>
      </trkpt>
      <trkpt lat="37.25385" lon="-6.95544">
        <ele>5.210666</ele>
        <time>2021-07-13T09:49:03Z</time>
      </trkpt>
      <trkpt lat="37.254" lon="-6.95561">
        <ele>5.22704</ele>
        <time>2021-07-13T09:49:41Z</time>
      </trkpt>
      <trkpt lat="37.25414" lon="-6.95578">
        <ele>4.588907</ele>
        <time>2021-07-13T09:49:52Z</time>
      </trkpt>
      <trkpt lat="37.25422" lon="-6.95588">
        <ele>4.416278</ele>
        <time>2021-07-13T09:50:03Z</time>
      </trkpt>
      <trkpt lat="37.25454" lon="-6.95627">
        <ele>5.050164</ele>
        <time>2021-07-13T09:50:14Z</time>
      </trkpt>
      <trkpt lat="37.25507" lon="-6.95682">
        <ele>4.786699</ele>
        <time>2021-07-13T09:50:25Z</time>
      </trkpt>
      <trkpt lat="37.25533" lon="-6.95717">
        <ele>4.092576</ele>
        <time>2021-07-13T09:50:36Z</time>
      </trkpt>
      <trkpt lat="37.25539" lon="-6.95725">
        <ele>4.765313</ele>
        <time>2021-07-13T09:51:06Z</time>
      </trkpt>
      <trkpt lat="37.25601" lon="-6.95761">
        <ele>3.090399</ele>
        <time>2021-07-13T09:51:17Z</time>
      </trkpt>
      <trkpt lat="37.2561" lon="-6.95763">
        <ele>3.523682</ele>
        <time>2021-07-13T09:51:28Z</time>
      </trkpt>
      <trkpt lat="37.25729" lon="-6.95792">
        <ele>3.791635</ele>
        <time>2021-07-13T09:51:39Z</time>
      </trkpt>
      <trkpt lat="37.25847" lon="-6.95821">
        <ele>2.460738</ele>
        <time>2021-07-13T09:51:50Z</time>
      </trkpt>
      <trkpt lat="37.2589" lon="-6.95832">
        <ele>3.296268</ele>
        <time>2021-07-13T09:52:01Z</time>
      </trkpt>
      <trkpt lat="37.25898" lon="-6.95835">
        <ele>3.660014</ele>
        <time>2021-07-13T09:52:12Z</time>
      </trkpt>
      <trkpt lat="37.25904" lon="-6.95836">
        <ele>4.057933</ele>
        <time>2021-07-13T09:52:23Z</time>
      </trkpt>
      <trkpt lat="37.25911" lon="-6.95838">
        <ele>3.123778</ele>
        <time>2021-07-13T09:52:39Z</time>
      </trkpt>
      <trkpt lat="37.26008" lon="-6.95862">
        <ele>4.037362</ele>
        <time>2021-07-13T09:52:50Z</time>
      </trkpt>
      <trkpt lat="37.26116" lon="-6.95886">
        <ele>3.650645</ele>
        <time>2021-07-13T09:53:01Z</time>
      </trkpt>
      <trkpt lat="37.26154" lon="-6.95895">
        <ele>3.065519</ele>
        <time>2021-07-13T09:53:12Z</time>
      </trkpt>
      <trkpt lat="37.2616" lon="-6.95896">
        <ele>4.156694</ele>
        <time>2021-07-13T09:53:23Z</time>
      </trkpt>
      <trkpt lat="37.26184" lon="-6.95901">
        <ele>4.198403</ele>
        <time>2021-07-13T09:53:34Z</time>
      </trkpt>
      <trkpt lat="37.26265" lon="-6.95919">
        <ele>2.924715</ele>
        <time>2021-07-13T09:53:45Z</time>
      </trkpt>
      <trkpt lat="37.26331" lon="-6.95893">
        <ele>3.641841</ele>
        <time>2021-07-13T09:53:56Z</time>
      </trkpt>
      <trkpt lat="37.26389" lon="-6.95869">
        <ele>3.737027</ele>
        <time>2021-07-13T09:54:07Z</time>
      </trkpt>
      <trkpt lat="37.26514" lon="-6.95814">
        <ele>3.365888</ele>
        <time>2021-07-13T09:54:18Z</time>
      </trkpt>
      <trkpt lat="37.26632" lon="-6.95765">
        <ele>2.651969</ele>
        <time>2021-07-13T09:54:29Z</time>
      </trkpt>
      <trkpt lat="37.26726" lon="-6.9572">
        <ele>4.342088</ele>
        <time>2021-07-13T09:54:40Z</time>
      </trkpt>
      <trkpt lat="37.26914" lon="-6.95668">
        <ele>7.16251</ele>
        <time>2021-07-13T09:54:51Z</time>
      </trkpt>
      <trkpt lat="37.27011" lon="-6.95641">
        <ele>3.636391</ele>
        <time>2021-07-13T09:55:02Z</time>
      </trkpt>
      <trkpt lat="37.2717" lon="-6.95588">
        <ele>3.360677</ele>
        <time>2021-07-13T09:55:13Z</time>
      </trkpt>
      <trkpt lat="37.27327" lon="-6.95499">
        <ele>2.774669</ele>
        <time>2021-07-13T09:55:24Z</time>
      </trkpt>
      <trkpt lat="37.27469" lon="-6.95418">
        <ele>2.926484</ele>
        <time>2021-07-13T09:55:35Z</time>
      </trkpt>
      <trkpt lat="37.27617" lon="-6.95336">
        <ele>2.923535</ele>
        <time>2021-07-13T09:55:46Z</time>
      </trkpt>
      <trkpt lat="37.27762" lon="-6.95251">
        <ele>3.67148</ele>
        <time>2021-07-13T09:55:57Z</time>
      </trkpt>
      <trkpt lat="37.27878" lon="-6.95177">
        <ele>1.022163</ele>
        <time>2021-07-13T09:56:08Z</time>
      </trkpt>
      <trkpt lat="37.27964" lon="-6.95124">
        <ele>2.172252</ele>
        <time>2021-07-13T09:56:19Z</time>
      </trkpt>
      <trkpt lat="37.27991" lon="-6.9509">
        <ele>5.22413</ele>
        <time>2021-07-13T09:56:30Z</time>
      </trkpt>
      <trkpt lat="37.27968" lon="-6.94936">
        <ele>6.931854</ele>
        <time>2021-07-13T09:56:41Z</time>
      </trkpt>
      <trkpt lat="37.27934" lon="-6.94825">
        <ele>3.886693</ele>
        <time>2021-07-13T09:56:52Z</time>
      </trkpt>
      <trkpt lat="37.27948" lon="-6.94757">
        <ele>5.990512</ele>
        <time>2021-07-13T09:57:03Z</time>
      </trkpt>
      <trkpt lat="37.28078" lon="-6.94721">
        <ele>3.905621</ele>
        <time>2021-07-13T09:57:14Z</time>
      </trkpt>
      <trkpt lat="37.28228" lon="-6.94657">
        <ele>3.04985</ele>
        <time>2021-07-13T09:57:25Z</time>
      </trkpt>
      <trkpt lat="37.28309" lon="-6.94625">
        <ele>3.458432</ele>
        <time>2021-07-13T09:57:36Z</time>
      </trkpt>
      <trkpt lat="37.2832" lon="-6.94627">
        <ele>4.075878</ele>
        <time>2021-07-13T09:57:47Z</time>
      </trkpt>
      <trkpt lat="37.28341" lon="-6.94609">
        <ele>4.58367</ele>
        <time>2021-07-13T09:57:58Z</time>
      </trkpt>
      <trkpt lat="37.28361" lon="-6.94583">
        <ele>5.703881</ele>
        <time>2021-07-13T09:58:09Z</time>
      </trkpt>
      <trkpt lat="37.28389" lon="-6.94506">
        <ele>5.610979</ele>
        <time>2021-07-13T09:58:20Z</time>
      </trkpt>
      <trkpt lat="37.2837" lon="-6.94388">
        <ele>11.12848</ele>
        <time>2021-07-13T09:58:31Z</time>
      </trkpt>
      <trkpt lat="37.2835" lon="-6.94267">
        <ele>13.52611</ele>
        <time>2021-07-13T09:58:42Z</time>
      </trkpt>
      <trkpt lat="37.28338" lon="-6.94099">
        <ele>19.98354</ele>
        <time>2021-07-13T09:58:53Z</time>
      </trkpt>
      <trkpt lat="37.28337" lon="-6.93919">
        <ele>27.86815</ele>
        <time>2021-07-13T09:59:04Z</time>
      </trkpt>
      <trkpt lat="37.28335" lon="-6.93774">
        <ele>31.75558</ele>
        <time>2021-07-13T09:59:15Z</time>
      </trkpt>
      <trkpt lat="37.28334" lon="-6.93658">
        <ele>34.14866</ele>
        <time>2021-07-13T09:59:26Z</time>
      </trkpt>
      <trkpt lat="37.28333" lon="-6.93558">
        <ele>34.65898</ele>
        <time>2021-07-13T09:59:37Z</time>
      </trkpt>
      <trkpt lat="37.28367" lon="-6.93514">
        <ele>37.39328</ele>
        <time>2021-07-13T09:59:48Z</time>
      </trkpt>
      <trkpt lat="37.28432" lon="-6.93446">
        <ele>38.20477</ele>
        <time>2021-07-13T09:59:59Z</time>
      </trkpt>
      <trkpt lat="37.28363" lon="-6.93221">
        <ele>31.06153</ele>
        <time>2021-07-13T10:00:10Z</time>
      </trkpt>
      <trkpt lat="37.28304" lon="-6.92977">
        <ele>27.8482</ele>
        <time>2021-07-13T10:00:21Z</time>
      </trkpt>
      <trkpt lat="37.28292" lon="-6.92788">
        <ele>26.79531</ele>
        <time>2021-07-13T10:00:32Z</time>
      </trkpt>
      <trkpt lat="37.28345" lon="-6.92736">
        <ele>31.00564</ele>
        <time>2021-07-13T10:00:43Z</time>
      </trkpt>
      <trkpt lat="37.2849" lon="-6.9264">
        <ele>36.40486</ele>
        <time>2021-07-13T10:00:54Z</time>
      </trkpt>
      <trkpt lat="37.28578" lon="-6.92563">
        <ele>40.29756</ele>
        <time>2021-07-13T10:01:05Z</time>
      </trkpt>
      <trkpt lat="37.28713" lon="-6.92517">
        <ele>36.87717</ele>
        <time>2021-07-13T10:01:16Z</time>
      </trkpt>
      <trkpt lat="37.28851" lon="-6.92454">
        <ele>33.03664</ele>
        <time>2021-07-13T10:01:27Z</time>
      </trkpt>
      <trkpt lat="37.29001" lon="-6.92395">
        <ele>30.71496</ele>
        <time>2021-07-13T10:01:38Z</time>
      </trkpt>
      <trkpt lat="37.29157" lon="-6.92358">
        <ele>28.1459</ele>
        <time>2021-07-13T10:01:49Z</time>
      </trkpt>
      <trkpt lat="37.29295" lon="-6.92335">
        <ele>25.50706</ele>
        <time>2021-07-13T10:02:00Z</time>
      </trkpt>
      <trkpt lat="37.29456" lon="-6.92303">
        <ele>33.57316</ele>
        <time>2021-07-13T10:02:11Z</time>
      </trkpt>
      <trkpt lat="37.29583" lon="-6.92328">
        <ele>34.42839</ele>
        <time>2021-07-13T10:02:22Z</time>
      </trkpt>
      <trkpt lat="37.29742" lon="-6.92348">
        <ele>34.97712</ele>
        <time>2021-07-13T10:02:33Z</time>
      </trkpt>
      <trkpt lat="37.29883" lon="-6.92355">
        <ele>36.98545</ele>
        <time>2021-07-13T10:02:44Z</time>
      </trkpt>
      <trkpt lat="37.30031" lon="-6.92362">
        <ele>39.51765</ele>
        <time>2021-07-13T10:02:55Z</time>
      </trkpt>
      <trkpt lat="37.30181" lon="-6.92399">
        <ele>41.27537</ele>
        <time>2021-07-13T10:03:06Z</time>
      </trkpt>
      <trkpt lat="37.30313" lon="-6.92417">
        <ele>44.40412</ele>
        <time>2021-07-13T10:03:17Z</time>
      </trkpt>
      <trkpt lat="37.30369" lon="-6.92445">
        <ele>46.59426</ele>
        <time>2021-07-13T10:03:28Z</time>
      </trkpt>
      <trkpt lat="37.30447" lon="-6.92522">
        <ele>44.03232</ele>
        <time>2021-07-13T10:03:39Z</time>
      </trkpt>
      <trkpt lat="37.30508" lon="-6.92623">
        <ele>40.7105</ele>
        <time>2021-07-13T10:03:50Z</time>
      </trkpt>
      <trkpt lat="37.30656" lon="-6.92708">
        <ele>37.79568</ele>
        <time>2021-07-13T10:04:01Z</time>
      </trkpt>
      <trkpt lat="37.30791" lon="-6.92707">
        <ele>34.85319</ele>
        <time>2021-07-13T10:04:12Z</time>
      </trkpt>
      <trkpt lat="37.30913" lon="-6.92596">
        <ele>30.12719</ele>
        <time>2021-07-13T10:04:23Z</time>
      </trkpt>
      <trkpt lat="37.3106" lon="-6.92588">
        <ele>28.37565</ele>
        <time>2021-07-13T10:04:34Z</time>
      </trkpt>
      <trkpt lat="37.31163" lon="-6.92621">
        <ele>23.575</ele>
        <time>2021-07-13T10:04:45Z</time>
      </trkpt>
      <trkpt lat="37.31168" lon="-6.92623">
        <ele>23.53851</ele>
        <time>2021-07-13T10:05:00Z</time>
      </trkpt>
      <trkpt lat="37.3122" lon="-6.92562">
        <ele>22.88389</ele>
        <time>2021-07-13T10:05:11Z</time>
      </trkpt>
      <trkpt lat="37.31314" lon="-6.92464">
        <ele>22.24957</ele>
        <time>2021-07-13T10:05:22Z</time>
      </trkpt>
      <trkpt lat="37.3142" lon="-6.92358">
        <ele>20.87405</ele>
        <time>2021-07-13T10:05:33Z</time>
      </trkpt>
      <trkpt lat="37.3148" lon="-6.92327">
        <ele>19.86942</ele>
        <time>2021-07-13T10:05:44Z</time>
      </trkpt>
      <trkpt lat="37.31484" lon="-6.92329">
        <ele>20.82891</ele>
        <time>2021-07-13T10:05:56Z</time>
      </trkpt>
      <trkpt lat="37.31523" lon="-6.92343">
        <ele>22.20433</ele>
        <time>2021-07-13T10:06:07Z</time>
      </trkpt>
      <trkpt lat="37.31557" lon="-6.92497">
        <ele>22.71913</ele>
        <time>2021-07-13T10:06:18Z</time>
      </trkpt>
      <trkpt lat="37.31565" lon="-6.92656">
        <ele>24.87044</ele>
        <time>2021-07-13T10:06:29Z</time>
      </trkpt>
      <trkpt lat="37.31579" lon="-6.92795">
        <ele>22.6481</ele>
        <time>2021-07-13T10:06:40Z</time>
      </trkpt>
      <trkpt lat="37.31616" lon="-6.92848">
        <ele>22.12628</ele>
        <time>2021-07-13T10:06:51Z</time>
      </trkpt>
      <trkpt lat="37.3162" lon="-6.92853">
        <ele>19.86333</ele>
        <time>2021-07-13T10:07:11Z</time>
      </trkpt>
      <trkpt lat="37.31673" lon="-6.92898">
        <ele>19.46065</ele>
        <time>2021-07-13T10:07:22Z</time>
      </trkpt>
      <trkpt lat="37.31721" lon="-6.92949">
        <ele>17.95213</ele>
        <time>2021-07-13T10:07:33Z</time>
      </trkpt>
      <trkpt lat="37.31818" lon="-6.93003">
        <ele>22.59276</ele>
        <time>2021-07-13T10:07:44Z</time>
      </trkpt>
      <trkpt lat="37.31942" lon="-6.93094">
        <ele>26.75008</ele>
        <time>2021-07-13T10:07:55Z</time>
      </trkpt>
      <trkpt lat="37.3209" lon="-6.93172">
        <ele>30.3997</ele>
        <time>2021-07-13T10:08:06Z</time>
      </trkpt>
      <trkpt lat="37.32226" lon="-6.93267">
        <ele>35.0696</ele>
        <time>2021-07-13T10:08:17Z</time>
      </trkpt>
      <trkpt lat="37.32355" lon="-6.93344">
        <ele>35.8222</ele>
        <time>2021-07-13T10:08:28Z</time>
      </trkpt>
      <trkpt lat="37.32481" lon="-6.93443">
        <ele>37.82238</ele>
        <time>2021-07-13T10:08:39Z</time>
      </trkpt>
      <trkpt lat="37.32566" lon="-6.93502">
        <ele>32.89525</ele>
        <time>2021-07-13T10:08:50Z</time>
      </trkpt>
      <trkpt lat="37.32658" lon="-6.93545">
        <ele>31.20194</ele>
        <time>2021-07-13T10:09:01Z</time>
      </trkpt>
      <trkpt lat="37.32775" lon="-6.93603">
        <ele>30.9979</ele>
        <time>2021-07-13T10:09:12Z</time>
      </trkpt>
      <trkpt lat="37.32912" lon="-6.9367">
        <ele>34.89179</ele>
        <time>2021-07-13T10:09:23Z</time>
      </trkpt>
      <trkpt lat="37.33015" lon="-6.9372">
        <ele>30.43004</ele>
        <time>2021-07-13T10:09:34Z</time>
      </trkpt>
      <trkpt lat="37.33062" lon="-6.9364">
        <ele>25.1895</ele>
        <time>2021-07-13T10:09:45Z</time>
      </trkpt>
      <trkpt lat="37.33116" lon="-6.93554">
        <ele>19.52586</ele>
        <time>2021-07-13T10:09:56Z</time>
      </trkpt>
      <trkpt lat="37.33203" lon="-6.93574">
        <ele>15.64889</ele>
        <time>2021-07-13T10:10:07Z</time>
      </trkpt>
      <trkpt lat="37.33275" lon="-6.93556">
        <ele>13.82277</ele>
        <time>2021-07-13T10:10:18Z</time>
      </trkpt>
      <trkpt lat="37.33379" lon="-6.93479">
        <ele>15.89809</ele>
        <time>2021-07-13T10:10:29Z</time>
      </trkpt>
      <trkpt lat="37.33388" lon="-6.93404">
        <ele>17.76414</ele>
        <time>2021-07-13T10:10:40Z</time>
      </trkpt>
      <trkpt lat="37.33404" lon="-6.93373">
        <ele>19.64653</ele>
        <time>2021-07-13T10:10:51Z</time>
      </trkpt>
      <trkpt lat="37.33406" lon="-6.93381">
        <ele>20.1287</ele>
        <time>2021-07-13T10:11:02Z</time>
      </trkpt>
      <trkpt lat="37.33404" lon="-6.93316">
        <ele>20.48564</ele>
        <time>2021-07-13T10:11:13Z</time>
      </trkpt>
      <trkpt lat="37.33333" lon="-6.93077">
        <ele>21.91316</ele>
        <time>2021-07-13T10:11:24Z</time>
      </trkpt>
      <trkpt lat="37.33183" lon="-6.9286">
        <ele>22.62262</ele>
        <time>2021-07-13T10:11:35Z</time>
      </trkpt>
      <trkpt lat="37.33025" lon="-6.92644">
        <ele>23.91241</ele>
        <time>2021-07-13T10:11:46Z</time>
      </trkpt>
      <trkpt lat="37.32871" lon="-6.92427">
        <ele>23.83896</ele>
        <time>2021-07-13T10:11:57Z</time>
      </trkpt>
      <trkpt lat="37.32713" lon="-6.9221">
        <ele>23.27655</ele>
        <time>2021-07-13T10:12:08Z</time>
      </trkpt>
      <trkpt lat="37.32552" lon="-6.91986">
        <ele>21.25687</ele>
        <time>2021-07-13T10:12:19Z</time>
      </trkpt>
      <trkpt lat="37.32391" lon="-6.91762">
        <ele>21.93902</ele>
        <time>2021-07-13T10:12:30Z</time>
      </trkpt>
      <trkpt lat="37.32199" lon="-6.91534">
        <ele>15.72579</ele>
        <time>2021-07-13T10:12:41Z</time>
      </trkpt>
      <trkpt lat="37.3204" lon="-6.91354">
        <ele>18.0395</ele>
        <time>2021-07-13T10:12:52Z</time>
      </trkpt>
      <trkpt lat="37.31949" lon="-6.91247">
        <ele>19.78389</ele>
        <time>2021-07-13T10:13:03Z</time>
      </trkpt>
      <trkpt lat="37.3196" lon="-6.91255">
        <ele>16.71519</ele>
        <time>2021-07-13T10:13:14Z</time>
      </trkpt>
      <trkpt lat="37.32064" lon="-6.911">
        <ele>19.85158</ele>
        <time>2021-07-13T10:13:25Z</time>
      </trkpt>
      <trkpt lat="37.32193" lon="-6.90907">
        <ele>30.52222</ele>
        <time>2021-07-13T10:13:36Z</time>
      </trkpt>
      <trkpt lat="37.32327" lon="-6.90714">
        <ele>28.38392</ele>
        <time>2021-07-13T10:13:47Z</time>
      </trkpt>
      <trkpt lat="37.3241" lon="-6.90568">
        <ele>25.40966</ele>
        <time>2021-07-13T10:13:58Z</time>
      </trkpt>
      <trkpt lat="37.32444" lon="-6.90584">
        <ele>25.85266</ele>
        <time>2021-07-13T10:14:09Z</time>
      </trkpt>
      <trkpt lat="37.32409" lon="-6.90676">
        <ele>25.34887</ele>
        <time>2021-07-13T10:14:20Z</time>
      </trkpt>
      <trkpt lat="37.3245" lon="-6.90824">
        <ele>21.27441</ele>
        <time>2021-07-13T10:14:31Z</time>
      </trkpt>
      <trkpt lat="37.32474" lon="-6.90988">
        <ele>16.91118</ele>
        <time>2021-07-13T10:14:42Z</time>
      </trkpt>
      <trkpt lat="37.32585" lon="-6.91101">
        <ele>16.21145</ele>
        <time>2021-07-13T10:14:53Z</time>
      </trkpt>
      <trkpt lat="37.32712" lon="-6.91206">
        <ele>24.09036</ele>
        <time>2021-07-13T10:15:04Z</time>
      </trkpt>
      <trkpt lat="37.32858" lon="-6.91325">
        <ele>25.17819</ele>
        <time>2021-07-13T10:15:15Z</time>
      </trkpt>
      <trkpt lat="37.33014" lon="-6.91436">
        <ele>27.53168</ele>
        <time>2021-07-13T10:15:26Z</time>
      </trkpt>
      <trkpt lat="37.33153" lon="-6.91531">
        <ele>28.20873</ele>
        <time>2021-07-13T10:15:37Z</time>
      </trkpt>
      <trkpt lat="37.33275" lon="-6.91589">
        <ele>25.78103</ele>
        <time>2021-07-13T10:15:48Z</time>
      </trkpt>
      <trkpt lat="37.33364" lon="-6.91604">
        <ele>26.93503</ele>
        <time>2021-07-13T10:15:59Z</time>
      </trkpt>
      <trkpt lat="37.33439" lon="-6.9156">
        <ele>26.20667</ele>
        <time>2021-07-13T10:16:10Z</time>
      </trkpt>
      <trkpt lat="37.33505" lon="-6.9156">
        <ele>26.16291</ele>
        <time>2021-07-13T10:16:21Z</time>
      </trkpt>
      <trkpt lat="37.33649" lon="-6.91537">
        <ele>27.28501</ele>
        <time>2021-07-13T10:16:32Z</time>
      </trkpt>
      <trkpt lat="37.33769" lon="-6.91509">
        <ele>28.43242</ele>
        <time>2021-07-13T10:16:43Z</time>
      </trkpt>
      <trkpt lat="37.33862" lon="-6.91489">
        <ele>30.14989</ele>
        <time>2021-07-13T10:16:54Z</time>
      </trkpt>
      <trkpt lat="37.33827" lon="-6.91477">
        <ele>29.77778</ele>
        <time>2021-07-13T10:17:05Z</time>
      </trkpt>
      <trkpt lat="37.33713" lon="-6.91491">
        <ele>25.1512</ele>
        <time>2021-07-13T10:17:16Z</time>
      </trkpt>
      <trkpt lat="37.336" lon="-6.91484">
        <ele>23.8048</ele>
        <time>2021-07-13T10:17:27Z</time>
      </trkpt>
      <trkpt lat="37.3354" lon="-6.91446">
        <ele>26.8235</ele>
        <time>2021-07-13T10:17:38Z</time>
      </trkpt>
      <trkpt lat="37.33515" lon="-6.91362">
        <ele>34.73201</ele>
        <time>2021-07-13T10:17:49Z</time>
      </trkpt>
      <trkpt lat="37.33514" lon="-6.91362">
        <ele>36.14994</ele>
        <time>2021-07-13T10:18:49Z</time>
      </trkpt>
      <trkpt lat="37.33512" lon="-6.91352">
        <ele>35.86736</ele>
        <time>2021-07-13T10:19:33Z</time>
      </trkpt>
      <trkpt lat="37.33455" lon="-6.91186">
        <ele>38.66201</ele>
        <time>2021-07-13T10:19:44Z</time>
      </trkpt>
      <trkpt lat="37.33404" lon="-6.91037">
        <ele>34.2516</ele>
        <time>2021-07-13T10:19:55Z</time>
      </trkpt>
      <trkpt lat="37.33339" lon="-6.90847">
        <ele>29.26658</ele>
        <time>2021-07-13T10:20:06Z</time>
      </trkpt>
      <trkpt lat="37.33285" lon="-6.9069">
        <ele>24.72567</ele>
        <time>2021-07-13T10:20:17Z</time>
      </trkpt>
      <trkpt lat="37.3327" lon="-6.90633">
        <ele>24.26087</ele>
        <time>2021-07-13T10:20:28Z</time>
      </trkpt>
      <trkpt lat="37.33278" lon="-6.9063">
        <ele>14.45476</ele>
        <time>2021-07-13T10:20:39Z</time>
      </trkpt>
      <trkpt lat="37.33317" lon="-6.90603">
        <ele>20.02322</ele>
        <time>2021-07-13T10:20:50Z</time>
      </trkpt>
      <trkpt lat="37.33387" lon="-6.90549">
        <ele>23.49552</ele>
        <time>2021-07-13T10:21:01Z</time>
      </trkpt>
      <trkpt lat="37.33472" lon="-6.90483">
        <ele>25.61519</ele>
        <time>2021-07-13T10:21:12Z</time>
      </trkpt>
      <trkpt lat="37.33561" lon="-6.90415">
        <ele>26.88805</ele>
        <time>2021-07-13T10:21:23Z</time>
      </trkpt>
      <trkpt lat="37.33671" lon="-6.90362">
        <ele>29.44966</ele>
        <time>2021-07-13T10:21:34Z</time>
      </trkpt>
      <trkpt lat="37.33816" lon="-6.90327">
        <ele>30.26282</ele>
        <time>2021-07-13T10:21:45Z</time>
      </trkpt>
      <trkpt lat="37.33895" lon="-6.90307">
        <ele>31.67127</ele>
        <time>2021-07-13T10:21:56Z</time>
      </trkpt>
      <trkpt lat="37.33906" lon="-6.90305">
        <ele>32.98117</ele>
        <time>2021-07-13T10:22:07Z</time>
      </trkpt>
      <trkpt lat="37.33921" lon="-6.90334">
        <ele>34.1674</ele>
        <time>2021-07-13T10:22:18Z</time>
      </trkpt>
      <trkpt lat="37.33984" lon="-6.90491">
        <ele>35.62925</ele>
        <time>2021-07-13T10:22:29Z</time>
      </trkpt>
      <trkpt lat="37.34061" lon="-6.9075">
        <ele>40.1265</ele>
        <time>2021-07-13T10:22:40Z</time>
      </trkpt>
      <trkpt lat="37.34129" lon="-6.90921">
        <ele>38.94859</ele>
        <time>2021-07-13T10:22:51Z</time>
      </trkpt>
      <trkpt lat="37.34135" lon="-6.90932">
        <ele>41.02434</ele>
        <time>2021-07-13T10:23:02Z</time>
      </trkpt>
      <trkpt lat="37.34061" lon="-6.90769">
        <ele>37.69642</ele>
        <time>2021-07-13T10:23:13Z</time>
      </trkpt>
      <trkpt lat="37.34036" lon="-6.907">
        <ele>35.96593</ele>
        <time>2021-07-13T10:23:24Z</time>
      </trkpt>
      <trkpt lat="37.34036" lon="-6.90707">
        <ele>37.71328</ele>
        <time>2021-07-13T10:23:36Z</time>
      </trkpt>
      <trkpt lat="37.34039" lon="-6.90702">
        <ele>41.40259</ele>
        <time>2021-07-13T10:24:03Z</time>
      </trkpt>
      <trkpt lat="37.34035" lon="-6.90694">
        <ele>37.8335</ele>
        <time>2021-07-13T10:24:14Z</time>
      </trkpt>
      <trkpt lat="37.34038" lon="-6.90698">
        <ele>36.9026</ele>
        <time>2021-07-13T10:24:48Z</time>
      </trkpt>
      <trkpt lat="37.3404" lon="-6.90707">
        <ele>35.40869</ele>
        <time>2021-07-13T10:24:59Z</time>
      </trkpt>
      <trkpt lat="37.34044" lon="-6.90715">
        <ele>36.59337</ele>
        <time>2021-07-13T10:25:41Z</time>
      </trkpt>
      <trkpt lat="37.34126" lon="-6.90913">
        <ele>38.40521</ele>
        <time>2021-07-13T10:25:52Z</time>
      </trkpt>
      <trkpt lat="37.34209" lon="-6.9104">
        <ele>36.65207</ele>
        <time>2021-07-13T10:26:03Z</time>
      </trkpt>
      <trkpt lat="37.34301" lon="-6.91154">
        <ele>35.92767</ele>
        <time>2021-07-13T10:26:14Z</time>
      </trkpt>
      <trkpt lat="37.34351" lon="-6.91212">
        <ele>29.51055</ele>
        <time>2021-07-13T10:26:25Z</time>
      </trkpt>
      <trkpt lat="37.3444" lon="-6.91184">
        <ele>33.01286</ele>
        <time>2021-07-13T10:26:36Z</time>
      </trkpt>
      <trkpt lat="37.34552" lon="-6.91148">
        <ele>40.20441</ele>
        <time>2021-07-13T10:26:47Z</time>
      </trkpt>
      <trkpt lat="37.34662" lon="-6.91114">
        <ele>45.50322</ele>
        <time>2021-07-13T10:26:58Z</time>
      </trkpt>
      <trkpt lat="37.34752" lon="-6.91082">
        <ele>44.94427</ele>
        <time>2021-07-13T10:27:09Z</time>
      </trkpt>
      <trkpt lat="37.34853" lon="-6.91055">
        <ele>47.78058</ele>
        <time>2021-07-13T10:27:20Z</time>
      </trkpt>
      <trkpt lat="37.34943" lon="-6.91026">
        <ele>47.37461</ele>
        <time>2021-07-13T10:27:31Z</time>
      </trkpt>
      <trkpt lat="37.35026" lon="-6.91001">
        <ele>44.9782</ele>
        <time>2021-07-13T10:27:42Z</time>
      </trkpt>
      <trkpt lat="37.35117" lon="-6.90939">
        <ele>47.8739</ele>
        <time>2021-07-13T10:27:53Z</time>
      </trkpt>
      <trkpt lat="37.35204" lon="-6.90882">
        <ele>38.17529</ele>
        <time>2021-07-13T10:28:04Z</time>
      </trkpt>
      <trkpt lat="37.35272" lon="-6.90809">
        <ele>44.84179</ele>
        <time>2021-07-13T10:28:15Z</time>
      </trkpt>
      <trkpt lat="37.35333" lon="-6.90695">
        <ele>55.35617</ele>
        <time>2021-07-13T10:28:26Z</time>
      </trkpt>
      <trkpt lat="37.35397" lon="-6.90577">
        <ele>37.37159</ele>
        <time>2021-07-13T10:28:37Z</time>
      </trkpt>
      <trkpt lat="37.35469" lon="-6.90483">
        <ele>-8.01161</ele>
        <time>2021-07-13T10:28:48Z</time>
      </trkpt>
      <trkpt lat="37.35524" lon="-6.90396">
        <ele>13.82011</ele>
        <time>2021-07-13T10:28:59Z</time>
      </trkpt>
      <trkpt lat="37.35571" lon="-6.90307">
        <ele>65.7862</ele>
        <time>2021-07-13T10:29:10Z</time>
      </trkpt>
      <trkpt lat="37.35642" lon="-6.90201">
        <ele>66.13872</ele>
        <time>2021-07-13T10:29:21Z</time>
      </trkpt>
      <trkpt lat="37.35679" lon="-6.90134">
        <ele>55.89942</ele>
        <time>2021-07-13T10:29:32Z</time>
      </trkpt>
      <trkpt lat="37.35722" lon="-6.90019">
        <ele>43.78436</ele>
        <time>2021-07-13T10:29:43Z</time>
      </trkpt>
      <trkpt lat="37.35778" lon="-6.89904">
        <ele>40.10356</ele>
        <time>2021-07-13T10:29:54Z</time>
      </trkpt>
      <trkpt lat="37.35838" lon="-6.89808">
        <ele>47.11615</ele>
        <time>2021-07-13T10:30:05Z</time>
      </trkpt>
      <trkpt lat="37.3588" lon="-6.89696">
        <ele>53.71402</ele>
        <time>2021-07-13T10:30:16Z</time>
      </trkpt>
      <trkpt lat="37.35923" lon="-6.89581">
        <ele>59.77836</ele>
        <time>2021-07-13T10:30:27Z</time>
      </trkpt>
      <trkpt lat="37.35951" lon="-6.89457">
        <ele>63.91428</ele>
        <time>2021-07-13T10:30:38Z</time>
      </trkpt>
      <trkpt lat="37.35975" lon="-6.89301">
        <ele>42.30339</ele>
        <time>2021-07-13T10:30:49Z</time>
      </trkpt>
      <trkpt lat="37.35988" lon="-6.89159">
        <ele>42.62596</ele>
        <time>2021-07-13T10:31:00Z</time>
      </trkpt>
      <trkpt lat="37.36007" lon="-6.88998">
        <ele>44.41915</ele>
        <time>2021-07-13T10:31:11Z</time>
      </trkpt>
      <trkpt lat="37.3603" lon="-6.88814">
        <ele>45.27822</ele>
        <time>2021-07-13T10:31:22Z</time>
      </trkpt>
      <trkpt lat="37.36043" lon="-6.88645">
        <ele>48.71457</ele>
        <time>2021-07-13T10:31:33Z</time>
      </trkpt>
      <trkpt lat="37.36054" lon="-6.88495">
        <ele>53.23607</ele>
        <time>2021-07-13T10:31:44Z</time>
      </trkpt>
      <trkpt lat="37.36105" lon="-6.88399">
        <ele>57.8167</ele>
        <time>2021-07-13T10:31:55Z</time>
      </trkpt>
      <trkpt lat="37.36207" lon="-6.88305">
        <ele>67.00711</ele>
        <time>2021-07-13T10:32:06Z</time>
      </trkpt>
      <trkpt lat="37.36208" lon="-6.88171">
        <ele>70.60706</ele>
        <time>2021-07-13T10:32:17Z</time>
      </trkpt>
      <trkpt lat="37.36186" lon="-6.87953">
        <ele>64.77985</ele>
        <time>2021-07-13T10:32:28Z</time>
      </trkpt>
      <trkpt lat="37.36171" lon="-6.87823">
        <ele>56.06426</ele>
        <time>2021-07-13T10:32:39Z</time>
      </trkpt>
      <trkpt lat="37.36284" lon="-6.87871">
        <ele>51.39352</ele>
        <time>2021-07-13T10:32:50Z</time>
      </trkpt>
      <trkpt lat="37.3637" lon="-6.87893">
        <ele>44.64368</ele>
        <time>2021-07-13T10:33:01Z</time>
      </trkpt>
      <trkpt lat="37.36385" lon="-6.87763">
        <ele>40.51323</ele>
        <time>2021-07-13T10:33:12Z</time>
      </trkpt>
      <trkpt lat="37.36412" lon="-6.87639">
        <ele>36.32844</ele>
        <time>2021-07-13T10:33:23Z</time>
      </trkpt>
      <trkpt lat="37.36467" lon="-6.87492">
        <ele>40.08049</ele>
        <time>2021-07-13T10:33:34Z</time>
      </trkpt>
      <trkpt lat="37.36502" lon="-6.87387">
        <ele>49.05508</ele>
        <time>2021-07-13T10:33:45Z</time>
      </trkpt>
      <trkpt lat="37.36539" lon="-6.87287">
        <ele>61.70389</ele>
        <time>2021-07-13T10:33:56Z</time>
      </trkpt>
      <trkpt lat="37.36614" lon="-6.87213">
        <ele>64.91361</ele>
        <time>2021-07-13T10:34:08Z</time>
      </trkpt>
      <trkpt lat="37.36669" lon="-6.87107">
        <ele>65.43159</ele>
        <time>2021-07-13T10:34:19Z</time>
      </trkpt>
      <trkpt lat="37.36694" lon="-6.86989">
        <ele>66.19951</ele>
        <time>2021-07-13T10:34:30Z</time>
      </trkpt>
      <trkpt lat="37.36696" lon="-6.86839">
        <ele>68.6418</ele>
        <time>2021-07-13T10:34:41Z</time>
      </trkpt>
      <trkpt lat="37.36709" lon="-6.86689">
        <ele>75.33038</ele>
        <time>2021-07-13T10:34:52Z</time>
      </trkpt>
      <trkpt lat="37.36747" lon="-6.86547">
        <ele>75.58916</ele>
        <time>2021-07-13T10:35:03Z</time>
      </trkpt>
      <trkpt lat="37.36777" lon="-6.86397">
        <ele>72.62471</ele>
        <time>2021-07-13T10:35:14Z</time>
      </trkpt>
      <trkpt lat="37.36826" lon="-6.86246">
        <ele>66.41488</ele>
        <time>2021-07-13T10:35:25Z</time>
      </trkpt>
      <trkpt lat="37.36851" lon="-6.86094">
        <ele>58.35018</ele>
        <time>2021-07-13T10:35:36Z</time>
      </trkpt>
      <trkpt lat="37.36877" lon="-6.85941">
        <ele>57.62707</ele>
        <time>2021-07-13T10:35:47Z</time>
      </trkpt>
      <trkpt lat="37.36911" lon="-6.85802">
        <ele>58.56043</ele>
        <time>2021-07-13T10:35:58Z</time>
      </trkpt>
      <trkpt lat="37.3696" lon="-6.8568">
        <ele>48.67327</ele>
        <time>2021-07-13T10:36:09Z</time>
      </trkpt>
      <trkpt lat="37.36994" lon="-6.85565">
        <ele>56.98938</ele>
        <time>2021-07-13T10:36:20Z</time>
      </trkpt>
      <trkpt lat="37.37021" lon="-6.85485">
        <ele>65.50093</ele>
        <time>2021-07-13T10:36:31Z</time>
      </trkpt>
      <trkpt lat="37.3707" lon="-6.85406">
        <ele>73.77126</ele>
        <time>2021-07-13T10:36:42Z</time>
      </trkpt>
      <trkpt lat="37.37119" lon="-6.85318">
        <ele>73.00252</ele>
        <time>2021-07-13T10:36:53Z</time>
      </trkpt>
      <trkpt lat="37.37156" lon="-6.85178">
        <ele>66.94215</ele>
        <time>2021-07-13T10:37:04Z</time>
      </trkpt>
      <trkpt lat="37.37178" lon="-6.85075">
        <ele>63.10845</ele>
        <time>2021-07-13T10:37:15Z</time>
      </trkpt>
      <trkpt lat="37.37234" lon="-6.84979">
        <ele>65.52724</ele>
        <time>2021-07-13T10:37:26Z</time>
      </trkpt>
      <trkpt lat="37.37258" lon="-6.84941">
        <ele>67.3468</ele>
        <time>2021-07-13T10:37:37Z</time>
      </trkpt>
      <trkpt lat="37.37308" lon="-6.8487">
        <ele>65.40616</ele>
        <time>2021-07-13T10:37:48Z</time>
      </trkpt>
      <trkpt lat="37.37369" lon="-6.84799">
        <ele>60.54125</ele>
        <time>2021-07-13T10:37:59Z</time>
      </trkpt>
      <trkpt lat="37.37403" lon="-6.84655">
        <ele>63.38193</ele>
        <time>2021-07-13T10:38:10Z</time>
      </trkpt>
      <trkpt lat="37.37435" lon="-6.84511">
        <ele>60.36107</ele>
        <time>2021-07-13T10:38:21Z</time>
      </trkpt>
      <trkpt lat="37.37448" lon="-6.84447">
        <ele>60.376</ele>
        <time>2021-07-13T10:38:32Z</time>
      </trkpt>
      <trkpt lat="37.37471" lon="-6.84344">
        <ele>59.14047</ele>
        <time>2021-07-13T10:38:43Z</time>
      </trkpt>
      <trkpt lat="37.3751" lon="-6.84237">
        <ele>60.46173</ele>
        <time>2021-07-13T10:38:54Z</time>
      </trkpt>
      <trkpt lat="37.37606" lon="-6.84132">
        <ele>61.08933</ele>
        <time>2021-07-13T10:39:05Z</time>
      </trkpt>
      <trkpt lat="37.37703" lon="-6.8399">
        <ele>63.47705</ele>
        <time>2021-07-13T10:39:16Z</time>
      </trkpt>
      <trkpt lat="37.37798" lon="-6.83862">
        <ele>68.49589</ele>
        <time>2021-07-13T10:39:27Z</time>
      </trkpt>
      <trkpt lat="37.37863" lon="-6.83772">
        <ele>72.121</ele>
        <time>2021-07-13T10:39:38Z</time>
      </trkpt>
      <trkpt lat="37.37928" lon="-6.83798">
        <ele>73.149</ele>
        <time>2021-07-13T10:39:49Z</time>
      </trkpt>
      <trkpt lat="37.38018" lon="-6.83861">
        <ele>76.01068</ele>
        <time>2021-07-13T10:40:00Z</time>
      </trkpt>
      <trkpt lat="37.38101" lon="-6.83905">
        <ele>77.63499</ele>
        <time>2021-07-13T10:40:11Z</time>
      </trkpt>
      <trkpt lat="37.38206" lon="-6.83916">
        <ele>81.7574</ele>
        <time>2021-07-13T10:40:22Z</time>
      </trkpt>
      <trkpt lat="37.38244" lon="-6.83942">
        <ele>78.10481</ele>
        <time>2021-07-13T10:40:33Z</time>
      </trkpt>
      <trkpt lat="37.38278" lon="-6.83957">
        <ele>81.43475</ele>
        <time>2021-07-13T10:40:44Z</time>
      </trkpt>
      <trkpt lat="37.38309" lon="-6.83981">
        <ele>83.86265</ele>
        <time>2021-07-13T10:40:55Z</time>
      </trkpt>
      <trkpt lat="37.38326" lon="-6.84013">
        <ele>81.03211</ele>
        <time>2021-07-13T10:41:06Z</time>
      </trkpt>
      <trkpt lat="37.38399" lon="-6.83975">
        <ele>82.02204</ele>
        <time>2021-07-13T10:41:17Z</time>
      </trkpt>
      <trkpt lat="37.38472" lon="-6.8392">
        <ele>84.18827</ele>
        <time>2021-07-13T10:41:28Z</time>
      </trkpt>
      <trkpt lat="37.3852" lon="-6.83885">
        <ele>88.11755</ele>
        <time>2021-07-13T10:41:39Z</time>
      </trkpt>
      <trkpt lat="37.38591" lon="-6.83836">
        <ele>90.87169</ele>
        <time>2021-07-13T10:41:50Z</time>
      </trkpt>
      <trkpt lat="37.38649" lon="-6.83798">
        <ele>95.99301</ele>
        <time>2021-07-13T10:42:01Z</time>
      </trkpt>
      <trkpt lat="37.3871" lon="-6.83777">
        <ele>98.48952</ele>
        <time>2021-07-13T10:42:12Z</time>
      </trkpt>
      <trkpt lat="37.3881" lon="-6.8376">
        <ele>99.88076</ele>
        <time>2021-07-13T10:42:23Z</time>
      </trkpt>
      <trkpt lat="37.38923" lon="-6.83741">
        <ele>93.62761</ele>
        <time>2021-07-13T10:42:34Z</time>
      </trkpt>
      <trkpt lat="37.38957" lon="-6.83708">
        <ele>85.0386</ele>
        <time>2021-07-13T10:42:45Z</time>
      </trkpt>
      <trkpt lat="37.3891" lon="-6.83665">
        <ele>81.85965</ele>
        <time>2021-07-13T10:42:56Z</time>
      </trkpt>
      <trkpt lat="37.38899" lon="-6.83656">
        <ele>82.63619</ele>
        <time>2021-07-13T10:43:07Z</time>
      </trkpt>
      <trkpt lat="37.38904" lon="-6.83644">
        <ele>81.69712</ele>
        <time>2021-07-13T10:43:29Z</time>
      </trkpt>
      <trkpt lat="37.38902" lon="-6.83637">
        <ele>85.68921</ele>
        <time>2021-07-13T10:43:56Z</time>
      </trkpt>
      <trkpt lat="37.38893" lon="-6.83627">
        <ele>89.10162</ele>
        <time>2021-07-13T10:44:07Z</time>
      </trkpt>
      <trkpt lat="37.3884" lon="-6.83592">
        <ele>88.63282</ele>
        <time>2021-07-13T10:44:18Z</time>
      </trkpt>
      <trkpt lat="37.38844" lon="-6.835">
        <ele>88.56774</ele>
        <time>2021-07-13T10:44:29Z</time>
      </trkpt>
      <trkpt lat="37.38861" lon="-6.8338">
        <ele>87.36333</ele>
        <time>2021-07-13T10:44:40Z</time>
      </trkpt>
      <trkpt lat="37.389" lon="-6.83244">
        <ele>83.85278</ele>
        <time>2021-07-13T10:44:51Z</time>
      </trkpt>
      <trkpt lat="37.38912" lon="-6.83205">
        <ele>84.83674</ele>
        <time>2021-07-13T10:45:02Z</time>
      </trkpt>
      <trkpt lat="37.38913" lon="-6.83186">
        <ele>86.07852</ele>
        <time>2021-07-13T10:45:13Z</time>
      </trkpt>
      <trkpt lat="37.3893" lon="-6.83087">
        <ele>84.60906</ele>
        <time>2021-07-13T10:45:24Z</time>
      </trkpt>
      <trkpt lat="37.39084" lon="-6.82986">
        <ele>76.84569</ele>
        <time>2021-07-13T10:45:35Z</time>
      </trkpt>
      <trkpt lat="37.39254" lon="-6.82897">
        <ele>71.40009</ele>
        <time>2021-07-13T10:45:46Z</time>
      </trkpt>
      <trkpt lat="37.39442" lon="-6.82839">
        <ele>84.02242</ele>
        <time>2021-07-13T10:45:57Z</time>
      </trkpt>
      <trkpt lat="37.39611" lon="-6.82752">
        <ele>100.7156</ele>
        <time>2021-07-13T10:46:08Z</time>
      </trkpt>
      <trkpt lat="37.39756" lon="-6.82605">
        <ele>88.42665</ele>
        <time>2021-07-13T10:46:19Z</time>
      </trkpt>
      <trkpt lat="37.39896" lon="-6.82476">
        <ele>88.60571</ele>
        <time>2021-07-13T10:46:30Z</time>
      </trkpt>
      <trkpt lat="37.40069" lon="-6.82452">
        <ele>91.32552</ele>
        <time>2021-07-13T10:46:41Z</time>
      </trkpt>
      <trkpt lat="37.40195" lon="-6.8243">
        <ele>91.70187</ele>
        <time>2021-07-13T10:46:52Z</time>
      </trkpt>
      <trkpt lat="37.40317" lon="-6.82421">
        <ele>98.17784</ele>
        <time>2021-07-13T10:47:03Z</time>
      </trkpt>
      <trkpt lat="37.4046" lon="-6.82368">
        <ele>106.5774</ele>
        <time>2021-07-13T10:47:14Z</time>
      </trkpt>
      <trkpt lat="37.40665" lon="-6.82237">
        <ele>98.8713</ele>
        <time>2021-07-13T10:47:25Z</time>
      </trkpt>
      <trkpt lat="37.40821" lon="-6.82119">
        <ele>91.90142</ele>
        <time>2021-07-13T10:47:36Z</time>
      </trkpt>
      <trkpt lat="37.40984" lon="-6.81991">
        <ele>91.50054</ele>
        <time>2021-07-13T10:47:47Z</time>
      </trkpt>
      <trkpt lat="37.41146" lon="-6.81884">
        <ele>104.7284</ele>
        <time>2021-07-13T10:47:58Z</time>
      </trkpt>
      <trkpt lat="37.4129" lon="-6.81754">
        <ele>109.1838</ele>
        <time>2021-07-13T10:48:09Z</time>
      </trkpt>
      <trkpt lat="37.41389" lon="-6.8162">
        <ele>111.3114</ele>
        <time>2021-07-13T10:48:20Z</time>
      </trkpt>
      <trkpt lat="37.4148" lon="-6.81498">
        <ele>106.8933</ele>
        <time>2021-07-13T10:48:31Z</time>
      </trkpt>
      <trkpt lat="37.41524" lon="-6.81288">
        <ele>103.7908</ele>
        <time>2021-07-13T10:48:42Z</time>
      </trkpt>
      <trkpt lat="37.41592" lon="-6.81141">
        <ele>106.0436</ele>
        <time>2021-07-13T10:48:53Z</time>
      </trkpt>
      <trkpt lat="37.41682" lon="-6.81024">
        <ele>103.5025</ele>
        <time>2021-07-13T10:49:04Z</time>
      </trkpt>
      <trkpt lat="37.41765" lon="-6.8091">
        <ele>101.8575</ele>
        <time>2021-07-13T10:49:15Z</time>
      </trkpt>
      <trkpt lat="37.41802" lon="-6.80847">
        <ele>104.1972</ele>
        <time>2021-07-13T10:49:26Z</time>
      </trkpt>
      <trkpt lat="37.41842" lon="-6.80783">
        <ele>98.96267</ele>
        <time>2021-07-13T10:49:37Z</time>
      </trkpt>
      <trkpt lat="37.41902" lon="-6.80672">
        <ele>93.83588</ele>
        <time>2021-07-13T10:49:48Z</time>
      </trkpt>
      <trkpt lat="37.41994" lon="-6.80656">
        <ele>91.87418</ele>
        <time>2021-07-13T10:49:59Z</time>
      </trkpt>
      <trkpt lat="37.42086" lon="-6.80585">
        <ele>88.22768</ele>
        <time>2021-07-13T10:50:10Z</time>
      </trkpt>
      <trkpt lat="37.42187" lon="-6.80497">
        <ele>88.00621</ele>
        <time>2021-07-13T10:50:21Z</time>
      </trkpt>
      <trkpt lat="37.42238" lon="-6.80376">
        <ele>95.80571</ele>
        <time>2021-07-13T10:50:32Z</time>
      </trkpt>
      <trkpt lat="37.42275" lon="-6.8034">
        <ele>100.8899</ele>
        <time>2021-07-13T10:50:43Z</time>
      </trkpt>
      <trkpt lat="37.42304" lon="-6.80174">
        <ele>106.3396</ele>
        <time>2021-07-13T10:50:54Z</time>
      </trkpt>
      <trkpt lat="37.42331" lon="-6.80041">
        <ele>109.6815</ele>
        <time>2021-07-13T10:51:05Z</time>
      </trkpt>
      <trkpt lat="37.42356" lon="-6.79941">
        <ele>104.7692</ele>
        <time>2021-07-13T10:51:16Z</time>
      </trkpt>
      <trkpt lat="37.42355" lon="-6.79928">
        <ele>104.8832</ele>
        <time>2021-07-13T10:51:27Z</time>
      </trkpt>
      <trkpt lat="37.4235" lon="-6.79913">
        <ele>105.8912</ele>
        <time>2021-07-13T10:51:38Z</time>
      </trkpt>
      <trkpt lat="37.42341" lon="-6.79834">
        <ele>108.2947</ele>
        <time>2021-07-13T10:51:49Z</time>
      </trkpt>
      <trkpt lat="37.42321" lon="-6.79746">
        <ele>113.8898</ele>
        <time>2021-07-13T10:52:00Z</time>
      </trkpt>
      <trkpt lat="37.42303" lon="-6.79657">
        <ele>116.4287</ele>
        <time>2021-07-13T10:52:11Z</time>
      </trkpt>
      <trkpt lat="37.42291" lon="-6.7956">
        <ele>115.7423</ele>
        <time>2021-07-13T10:52:22Z</time>
      </trkpt>
      <trkpt lat="37.4229" lon="-6.79516">
        <ele>114.3029</ele>
        <time>2021-07-13T10:52:33Z</time>
      </trkpt>
      <trkpt lat="37.42345" lon="-6.79509">
        <ele>116.0116</ele>
        <time>2021-07-13T10:52:44Z</time>
      </trkpt>
      <trkpt lat="37.42394" lon="-6.79508">
        <ele>116.9482</ele>
        <time>2021-07-13T10:52:55Z</time>
      </trkpt>
      <trkpt lat="37.42418" lon="-6.79453">
        <ele>123.9327</ele>
        <time>2021-07-13T10:53:06Z</time>
      </trkpt>
      <trkpt lat="37.42458" lon="-6.79478">
        <ele>125.9666</ele>
        <time>2021-07-13T10:53:17Z</time>
      </trkpt>
      <trkpt lat="37.42431" lon="-6.79558">
        <ele>116.7612</ele>
        <time>2021-07-13T10:53:28Z</time>
      </trkpt>
      <trkpt lat="37.42456" lon="-6.79597">
        <ele>123.4768</ele>
        <time>2021-07-13T10:53:39Z</time>
      </trkpt>
      <trkpt lat="37.42483" lon="-6.79573">
        <ele>122.1488</ele>
        <time>2021-07-13T10:53:50Z</time>
      </trkpt>
      <trkpt lat="37.42514" lon="-6.79506">
        <ele>122.181</ele>
        <time>2021-07-13T10:54:01Z</time>
      </trkpt>
      <trkpt lat="37.42545" lon="-6.79435">
        <ele>123.528</ele>
        <time>2021-07-13T10:54:12Z</time>
      </trkpt>
      <trkpt lat="37.42563" lon="-6.79387">
        <ele>125.3203</ele>
        <time>2021-07-13T10:54:23Z</time>
      </trkpt>
      <trkpt lat="37.42585" lon="-6.79334">
        <ele>127.6697</ele>
        <time>2021-07-13T10:54:34Z</time>
      </trkpt>
      <trkpt lat="37.42569" lon="-6.79314">
        <ele>129.0131</ele>
        <time>2021-07-13T10:54:45Z</time>
      </trkpt>
      <trkpt lat="37.42544" lon="-6.79295">
        <ele>126.5408</ele>
        <time>2021-07-13T10:54:56Z</time>
      </trkpt>
      <trkpt lat="37.42532" lon="-6.79288">
        <ele>129.7016</ele>
        <time>2021-07-13T10:55:07Z</time>
      </trkpt>
      <trkpt lat="37.42528" lon="-6.79284">
        <ele>137.6195</ele>
        <time>2021-07-13T10:55:18Z</time>
      </trkpt>
      <trkpt lat="37.42488" lon="-6.79248">
        <ele>136.0283</ele>
        <time>2021-07-13T10:55:29Z</time>
      </trkpt>
      <trkpt lat="37.42412" lon="-6.79189">
        <ele>130.6615</ele>
        <time>2021-07-13T10:55:40Z</time>
      </trkpt>
      <trkpt lat="37.42352" lon="-6.79143">
        <ele>124.6412</ele>
        <time>2021-07-13T10:55:51Z</time>
      </trkpt>
      <trkpt lat="37.42362" lon="-6.79122">
        <ele>123.5824</ele>
        <time>2021-07-13T10:56:02Z</time>
      </trkpt>
      <trkpt lat="37.42444" lon="-6.79155">
        <ele>126.5081</ele>
        <time>2021-07-13T10:56:13Z</time>
      </trkpt>
      <trkpt lat="37.4252" lon="-6.79206">
        <ele>127.1603</ele>
        <time>2021-07-13T10:56:24Z</time>
      </trkpt>
      <trkpt lat="37.42557" lon="-6.79232">
        <ele>128.7263</ele>
        <time>2021-07-13T10:56:35Z</time>
      </trkpt>
      <trkpt lat="37.42564" lon="-6.79235">
        <ele>124.3399</ele>
        <time>2021-07-13T10:56:46Z</time>
      </trkpt>
      <trkpt lat="37.42567" lon="-6.79239">
        <ele>123.256</ele>
        <time>2021-07-13T10:57:38Z</time>
      </trkpt>
      <trkpt lat="37.4257" lon="-6.79242">
        <ele>124.8259</ele>
        <time>2021-07-13T10:57:49Z</time>
      </trkpt>
      <trkpt lat="37.4258" lon="-6.79248">
        <ele>122.0504</ele>
        <time>2021-07-13T10:58:00Z</time>
      </trkpt>
      <trkpt lat="37.42585" lon="-6.79254">
        <ele>124.7306</ele>
        <time>2021-07-13T10:58:11Z</time>
      </trkpt>
      <trkpt lat="37.42595" lon="-6.7926">
        <ele>126.3514</ele>
        <time>2021-07-13T10:58:22Z</time>
      </trkpt>
      <trkpt lat="37.42605" lon="-6.79271">
        <ele>124.1006</ele>
        <time>2021-07-13T10:58:33Z</time>
      </trkpt>
      <trkpt lat="37.42615" lon="-6.79281">
        <ele>118.2757</ele>
        <time>2021-07-13T10:58:44Z</time>
      </trkpt>
      <trkpt lat="37.42618" lon="-6.79291">
        <ele>121.0373</ele>
        <time>2021-07-13T10:58:55Z</time>
      </trkpt>
      <trkpt lat="37.42608" lon="-6.79301">
        <ele>118.6438</ele>
        <time>2021-07-13T10:59:06Z</time>
      </trkpt>
      <trkpt lat="37.42606" lon="-6.79312">
        <ele>117.5428</ele>
        <time>2021-07-13T10:59:17Z</time>
      </trkpt>
      <trkpt lat="37.42608" lon="-6.7932">
        <ele>117.3164</ele>
        <time>2021-07-13T10:59:28Z</time>
      </trkpt>
      <trkpt lat="37.42613" lon="-6.79321">
        <ele>116.9264</ele>
        <time>2021-07-13T10:59:51Z</time>
      </trkpt>
      <trkpt lat="37.42612" lon="-6.79326">
        <ele>118.0488</ele>
        <time>2021-07-13T11:00:06Z</time>
      </trkpt>
      <trkpt lat="37.42615" lon="-6.79326">
        <ele>117.5913</ele>
        <time>2021-07-13T11:00:29Z</time>
      </trkpt>
      <trkpt lat="37.42618" lon="-6.79322">
        <ele>118.7973</ele>
        <time>2021-07-13T11:00:48Z</time>
      </trkpt>
      <trkpt lat="37.42615" lon="-6.79326">
        <ele>117.6822</ele>
        <time>2021-07-13T11:01:08Z</time>
      </trkpt>
      <trkpt lat="37.42612" lon="-6.79329">
        <ele>117.8884</ele>
        <time>2021-07-13T11:01:19Z</time>
      </trkpt>
      <trkpt lat="37.42613" lon="-6.79323">
        <ele>118.2285</ele>
        <time>2021-07-13T11:01:30Z</time>
      </trkpt>
      <trkpt lat="37.42614" lon="-6.79318">
        <ele>119.7931</ele>
        <time>2021-07-13T11:01:44Z</time>
      </trkpt>
      <trkpt lat="37.42614" lon="-6.79312">
        <ele>118.7635</ele>
        <time>2021-07-13T11:01:55Z</time>
      </trkpt>
      <trkpt lat="37.42619" lon="-6.79297">
        <ele>119.3385</ele>
        <time>2021-07-13T11:02:06Z</time>
      </trkpt>
      <trkpt lat="37.42619" lon="-6.79286">
        <ele>118.3534</ele>
        <time>2021-07-13T11:02:17Z</time>
      </trkpt>
      <trkpt lat="37.42609" lon="-6.79275">
        <ele>120.9321</ele>
        <time>2021-07-13T11:02:28Z</time>
      </trkpt>
      <trkpt lat="37.42611" lon="-6.79279">
        <ele>119.3751</ele>
        <time>2021-07-13T11:02:39Z</time>
      </trkpt>
      <trkpt lat="37.42609" lon="-6.79275">
        <ele>121.0197</ele>
        <time>2021-07-13T11:03:26Z</time>
      </trkpt>
      <trkpt lat="37.42599" lon="-6.79264">
        <ele>121.2957</ele>
        <time>2021-07-13T11:03:37Z</time>
      </trkpt>
      <trkpt lat="37.42588" lon="-6.79256">
        <ele>118.7286</ele>
        <time>2021-07-13T11:03:48Z</time>
      </trkpt>
      <trkpt lat="37.42577" lon="-6.79245">
        <ele>120.0368</ele>
        <time>2021-07-13T11:03:59Z</time>
      </trkpt>
      <trkpt lat="37.42568" lon="-6.79238">
        <ele>117.8454</ele>
        <time>2021-07-13T11:04:10Z</time>
      </trkpt>
      <trkpt lat="37.42564" lon="-6.79238">
        <ele>119.0502</ele>
        <time>2021-07-13T11:04:25Z</time>
      </trkpt>
      <trkpt lat="37.42563" lon="-6.79234">
        <ele>119.0546</ele>
        <time>2021-07-13T11:04:52Z</time>
      </trkpt>
      <trkpt lat="37.42567" lon="-6.79234">
        <ele>119.2761</ele>
        <time>2021-07-13T11:05:46Z</time>
      </trkpt>
      <trkpt lat="37.42568" lon="-6.79239">
        <ele>119.8321</ele>
        <time>2021-07-13T11:06:02Z</time>
      </trkpt>
      <trkpt lat="37.42564" lon="-6.79234">
        <ele>118.2683</ele>
        <time>2021-07-13T11:06:13Z</time>
      </trkpt>
      <trkpt lat="37.4256" lon="-6.79235">
        <ele>119.3514</ele>
        <time>2021-07-13T11:06:24Z</time>
      </trkpt>
      <trkpt lat="37.42545" lon="-6.79276">
        <ele>117.5248</ele>
        <time>2021-07-13T11:06:35Z</time>
      </trkpt>
      <trkpt lat="37.42506" lon="-6.79261">
        <ele>116.3622</ele>
        <time>2021-07-13T11:06:46Z</time>
      </trkpt>
      <trkpt lat="37.42447" lon="-6.79219">
        <ele>117.5071</ele>
        <time>2021-07-13T11:06:57Z</time>
      </trkpt>
      <trkpt lat="37.42378" lon="-6.79164">
        <ele>116.4149</ele>
        <time>2021-07-13T11:07:08Z</time>
      </trkpt>
      <trkpt lat="37.4235" lon="-6.79141">
        <ele>114.102</ele>
        <time>2021-07-13T11:07:19Z</time>
      </trkpt>
      <trkpt lat="37.42377" lon="-6.7907">
        <ele>114.2641</ele>
        <time>2021-07-13T11:07:30Z</time>
      </trkpt>
      <trkpt lat="37.42385" lon="-6.79064">
        <ele>114.4962</ele>
        <time>2021-07-13T11:07:41Z</time>
      </trkpt>
      <trkpt lat="37.42398" lon="-6.79041">
        <ele>113.3175</ele>
        <time>2021-07-13T11:07:52Z</time>
      </trkpt>
      <trkpt lat="37.42445" lon="-6.78958">
        <ele>112.5221</ele>
        <time>2021-07-13T11:08:03Z</time>
      </trkpt>
      <trkpt lat="37.425" lon="-6.78864">
        <ele>110.1953</ele>
        <time>2021-07-13T11:08:14Z</time>
      </trkpt>
      <trkpt lat="37.42557" lon="-6.78768">
        <ele>113.3152</ele>
        <time>2021-07-13T11:08:25Z</time>
      </trkpt>
      <trkpt lat="37.42621" lon="-6.7863">
        <ele>115.7458</ele>
        <time>2021-07-13T11:08:36Z</time>
      </trkpt>
      <trkpt lat="37.42614" lon="-6.78458">
        <ele>94.92228</ele>
        <time>2021-07-13T11:08:47Z</time>
      </trkpt>
      <trkpt lat="37.42609" lon="-6.7829">
        <ele>76.89239</ele>
        <time>2021-07-13T11:08:58Z</time>
      </trkpt>
      <trkpt lat="37.42572" lon="-6.78091">
        <ele>108.446</ele>
        <time>2021-07-13T11:09:09Z</time>
      </trkpt>
      <trkpt lat="37.42547" lon="-6.77908">
        <ele>106.8859</ele>
        <time>2021-07-13T11:09:20Z</time>
      </trkpt>
      <trkpt lat="37.42532" lon="-6.77721">
        <ele>102.5</ele>
        <time>2021-07-13T11:09:31Z</time>
      </trkpt>
      <trkpt lat="37.42513" lon="-6.77547">
        <ele>100.0024</ele>
        <time>2021-07-13T11:09:42Z</time>
      </trkpt>
      <trkpt lat="37.42501" lon="-6.77434">
        <ele>98.75063</ele>
        <time>2021-07-13T11:09:53Z</time>
      </trkpt>
      <trkpt lat="37.42486" lon="-6.77279">
        <ele>97.88748</ele>
        <time>2021-07-13T11:10:04Z</time>
      </trkpt>
      <trkpt lat="37.42487" lon="-6.77231">
        <ele>98.03812</ele>
        <time>2021-07-13T11:10:15Z</time>
      </trkpt>
      <trkpt lat="37.42485" lon="-6.77225">
        <ele>98.1781</ele>
        <time>2021-07-13T11:10:26Z</time>
      </trkpt>
      <trkpt lat="37.42487" lon="-6.77263">
        <ele>97.63344</ele>
        <time>2021-07-13T11:10:37Z</time>
      </trkpt>
      <trkpt lat="37.42494" lon="-6.77385">
        <ele>98.34506</ele>
        <time>2021-07-13T11:10:48Z</time>
      </trkpt>
      <trkpt lat="37.42486" lon="-6.77444">
        <ele>98.52962</ele>
        <time>2021-07-13T11:10:59Z</time>
      </trkpt>
      <trkpt lat="37.42352" lon="-6.77319">
        <ele>94.58291</ele>
        <time>2021-07-13T11:11:10Z</time>
      </trkpt>
      <trkpt lat="37.4219" lon="-6.77164">
        <ele>94.42619</ele>
        <time>2021-07-13T11:11:21Z</time>
      </trkpt>
      <trkpt lat="37.42088" lon="-6.77007">
        <ele>101.8413</ele>
        <time>2021-07-13T11:11:32Z</time>
      </trkpt>
      <trkpt lat="37.42006" lon="-6.76828">
        <ele>106.8569</ele>
        <time>2021-07-13T11:11:43Z</time>
      </trkpt>
      <trkpt lat="37.41913" lon="-6.76661">
        <ele>97.39348</ele>
        <time>2021-07-13T11:11:54Z</time>
      </trkpt>
      <trkpt lat="37.41787" lon="-6.76511">
        <ele>92.97402</ele>
        <time>2021-07-13T11:12:05Z</time>
      </trkpt>
      <trkpt lat="37.41676" lon="-6.76394">
        <ele>92.51256</ele>
        <time>2021-07-13T11:12:16Z</time>
      </trkpt>
      <trkpt lat="37.41639" lon="-6.7636">
        <ele>97.33454</ele>
        <time>2021-07-13T11:12:27Z</time>
      </trkpt>
      <trkpt lat="37.41633" lon="-6.76351">
        <ele>97.22366</ele>
        <time>2021-07-13T11:12:55Z</time>
      </trkpt>
      <trkpt lat="37.41589" lon="-6.76193">
        <ele>98.92985</ele>
        <time>2021-07-13T11:13:06Z</time>
      </trkpt>
      <trkpt lat="37.41563" lon="-6.76011">
        <ele>103.0082</ele>
        <time>2021-07-13T11:13:17Z</time>
      </trkpt>
      <trkpt lat="37.41572" lon="-6.75806">
        <ele>100.2005</ele>
        <time>2021-07-13T11:13:28Z</time>
      </trkpt>
      <trkpt lat="37.41583" lon="-6.75612">
        <ele>94.18091</ele>
        <time>2021-07-13T11:13:39Z</time>
      </trkpt>
      <trkpt lat="37.41569" lon="-6.7543">
        <ele>97.93854</ele>
        <time>2021-07-13T11:13:50Z</time>
      </trkpt>
      <trkpt lat="37.41557" lon="-6.75224">
        <ele>102.8169</ele>
        <time>2021-07-13T11:14:01Z</time>
      </trkpt>
      <trkpt lat="37.4155" lon="-6.75056">
        <ele>98.23738</ele>
        <time>2021-07-13T11:14:12Z</time>
      </trkpt>
      <trkpt lat="37.41543" lon="-6.74871">
        <ele>96.1406</ele>
        <time>2021-07-13T11:14:23Z</time>
      </trkpt>
      <trkpt lat="37.41541" lon="-6.74696">
        <ele>105.2719</ele>
        <time>2021-07-13T11:14:34Z</time>
      </trkpt>
      <trkpt lat="37.41601" lon="-6.74529">
        <ele>95.68595</ele>
        <time>2021-07-13T11:14:45Z</time>
      </trkpt>
      <trkpt lat="37.41657" lon="-6.74384">
        <ele>82.46317</ele>
        <time>2021-07-13T11:14:56Z</time>
      </trkpt>
      <trkpt lat="37.41698" lon="-6.74197">
        <ele>80.95711</ele>
        <time>2021-07-13T11:15:07Z</time>
      </trkpt>
      <trkpt lat="37.41682" lon="-6.73977">
        <ele>84.04642</ele>
        <time>2021-07-13T11:15:18Z</time>
      </trkpt>
      <trkpt lat="37.41672" lon="-6.73792">
        <ele>73.29868</ele>
        <time>2021-07-13T11:15:29Z</time>
      </trkpt>
      <trkpt lat="37.41658" lon="-6.73621">
        <ele>64.83796</ele>
        <time>2021-07-13T11:15:40Z</time>
      </trkpt>
      <trkpt lat="37.41639" lon="-6.73417">
        <ele>62.24526</ele>
        <time>2021-07-13T11:15:51Z</time>
      </trkpt>
      <trkpt lat="37.41552" lon="-6.73275">
        <ele>54.87788</ele>
        <time>2021-07-13T11:16:02Z</time>
      </trkpt>
      <trkpt lat="37.41456" lon="-6.73146">
        <ele>52.54657</ele>
        <time>2021-07-13T11:16:13Z</time>
      </trkpt>
      <trkpt lat="37.41366" lon="-6.73032">
        <ele>61.62482</ele>
        <time>2021-07-13T11:16:24Z</time>
      </trkpt>
      <trkpt lat="37.4132" lon="-6.72843">
        <ele>66.92783</ele>
        <time>2021-07-13T11:16:35Z</time>
      </trkpt>
      <trkpt lat="37.41287" lon="-6.72673">
        <ele>75.55749</ele>
        <time>2021-07-13T11:16:46Z</time>
      </trkpt>
      <trkpt lat="37.41259" lon="-6.72525">
        <ele>79.51551</ele>
        <time>2021-07-13T11:16:57Z</time>
      </trkpt>
      <trkpt lat="37.41219" lon="-6.72363">
        <ele>85.24677</ele>
        <time>2021-07-13T11:17:08Z</time>
      </trkpt>
      <trkpt lat="37.41194" lon="-6.722">
        <ele>87.09949</ele>
        <time>2021-07-13T11:17:19Z</time>
      </trkpt>
      <trkpt lat="37.41163" lon="-6.72068">
        <ele>80.23847</ele>
        <time>2021-07-13T11:17:30Z</time>
      </trkpt>
      <trkpt lat="37.41097" lon="-6.71884">
        <ele>78.89402</ele>
        <time>2021-07-13T11:17:41Z</time>
      </trkpt>
      <trkpt lat="37.41069" lon="-6.71675">
        <ele>72.4055</ele>
        <time>2021-07-13T11:17:52Z</time>
      </trkpt>
      <trkpt lat="37.41042" lon="-6.71486">
        <ele>71.26748</ele>
        <time>2021-07-13T11:18:03Z</time>
      </trkpt>
      <trkpt lat="37.41004" lon="-6.71313">
        <ele>73.14945</ele>
        <time>2021-07-13T11:18:14Z</time>
      </trkpt>
      <trkpt lat="37.40898" lon="-6.71217">
        <ele>79.1131</ele>
        <time>2021-07-13T11:18:25Z</time>
      </trkpt>
      <trkpt lat="37.40774" lon="-6.71112">
        <ele>86.32594</ele>
        <time>2021-07-13T11:18:36Z</time>
      </trkpt>
      <trkpt lat="37.4068" lon="-6.71038">
        <ele>93.23923</ele>
        <time>2021-07-13T11:18:47Z</time>
      </trkpt>
      <trkpt lat="37.40631" lon="-6.70985">
        <ele>99.25699</ele>
        <time>2021-07-13T11:18:58Z</time>
      </trkpt>
      <trkpt lat="37.40583" lon="-6.70833">
        <ele>100.5638</ele>
        <time>2021-07-13T11:19:09Z</time>
      </trkpt>
      <trkpt lat="37.40521" lon="-6.70686">
        <ele>97.61408</ele>
        <time>2021-07-13T11:19:20Z</time>
      </trkpt>
      <trkpt lat="37.40472" lon="-6.70519">
        <ele>91.12735</ele>
        <time>2021-07-13T11:19:31Z</time>
      </trkpt>
      <trkpt lat="37.40414" lon="-6.70346">
        <ele>96.9153</ele>
        <time>2021-07-13T11:19:42Z</time>
      </trkpt>
      <trkpt lat="37.4038" lon="-6.7012">
        <ele>99.83928</ele>
        <time>2021-07-13T11:19:53Z</time>
      </trkpt>
      <trkpt lat="37.40342" lon="-6.69963">
        <ele>96.25773</ele>
        <time>2021-07-13T11:20:04Z</time>
      </trkpt>
      <trkpt lat="37.40318" lon="-6.69876">
        <ele>93.74895</ele>
        <time>2021-07-13T11:20:15Z</time>
      </trkpt>
      <trkpt lat="37.4028" lon="-6.69727">
        <ele>91.92297</ele>
        <time>2021-07-13T11:20:26Z</time>
      </trkpt>
      <trkpt lat="37.4025" lon="-6.69594">
        <ele>93.94504</ele>
        <time>2021-07-13T11:20:37Z</time>
      </trkpt>
      <trkpt lat="37.40252" lon="-6.69377">
        <ele>98.20526</ele>
        <time>2021-07-13T11:20:48Z</time>
      </trkpt>
      <trkpt lat="37.40276" lon="-6.6918">
        <ele>97.03204</ele>
        <time>2021-07-13T11:20:59Z</time>
      </trkpt>
      <trkpt lat="37.40288" lon="-6.68998">
        <ele>94.15136</ele>
        <time>2021-07-13T11:21:10Z</time>
      </trkpt>
      <trkpt lat="37.40276" lon="-6.68806">
        <ele>87.10817</ele>
        <time>2021-07-13T11:21:21Z</time>
      </trkpt>
      <trkpt lat="37.40244" lon="-6.68593">
        <ele>67.73959</ele>
        <time>2021-07-13T11:21:32Z</time>
      </trkpt>
      <trkpt lat="37.40186" lon="-6.68407">
        <ele>60.76685</ele>
        <time>2021-07-13T11:21:43Z</time>
      </trkpt>
      <trkpt lat="37.40166" lon="-6.68222">
        <ele>67.00496</ele>
        <time>2021-07-13T11:21:54Z</time>
      </trkpt>
      <trkpt lat="37.4017" lon="-6.68027">
        <ele>68.29599</ele>
        <time>2021-07-13T11:22:05Z</time>
      </trkpt>
      <trkpt lat="37.40187" lon="-6.67833">
        <ele>82.14702</ele>
        <time>2021-07-13T11:22:16Z</time>
      </trkpt>
      <trkpt lat="37.40182" lon="-6.67821">
        <ele>84.95612</ele>
        <time>2021-07-13T11:22:27Z</time>
      </trkpt>
      <trkpt lat="37.40059" lon="-6.67883">
        <ele>82.41005</ele>
        <time>2021-07-13T11:22:38Z</time>
      </trkpt>
      <trkpt lat="37.39847" lon="-6.67909">
        <ele>77.0437</ele>
        <time>2021-07-13T11:22:49Z</time>
      </trkpt>
      <trkpt lat="37.39623" lon="-6.67918">
        <ele>69.53538</ele>
        <time>2021-07-13T11:23:00Z</time>
      </trkpt>
      <trkpt lat="37.39435" lon="-6.67924">
        <ele>65.97288</ele>
        <time>2021-07-13T11:23:11Z</time>
      </trkpt>
      <trkpt lat="37.39393" lon="-6.6787">
        <ele>68.08829</ele>
        <time>2021-07-13T11:23:22Z</time>
      </trkpt>
      <trkpt lat="37.3945" lon="-6.67681">
        <ele>65.69681</ele>
        <time>2021-07-13T11:23:33Z</time>
      </trkpt>
      <trkpt lat="37.39426" lon="-6.6749">
        <ele>58.73986</ele>
        <time>2021-07-13T11:23:44Z</time>
      </trkpt>
      <trkpt lat="37.39333" lon="-6.67325">
        <ele>57.85216</ele>
        <time>2021-07-13T11:23:55Z</time>
      </trkpt>
      <trkpt lat="37.3922" lon="-6.67222">
        <ele>53.37489</ele>
        <time>2021-07-13T11:24:06Z</time>
      </trkpt>
      <trkpt lat="37.39197" lon="-6.67036">
        <ele>54.00053</ele>
        <time>2021-07-13T11:24:17Z</time>
      </trkpt>
      <trkpt lat="37.39105" lon="-6.66863">
        <ele>46.97718</ele>
        <time>2021-07-13T11:24:28Z</time>
      </trkpt>
      <trkpt lat="37.3904" lon="-6.66668">
        <ele>43.58834</ele>
        <time>2021-07-13T11:24:39Z</time>
      </trkpt>
      <trkpt lat="37.39001" lon="-6.66445">
        <ele>39.9723</ele>
        <time>2021-07-13T11:24:50Z</time>
      </trkpt>
      <trkpt lat="37.38974" lon="-6.66227">
        <ele>36.2082</ele>
        <time>2021-07-13T11:25:01Z</time>
      </trkpt>
      <trkpt lat="37.39015" lon="-6.66034">
        <ele>32.35887</ele>
        <time>2021-07-13T11:25:12Z</time>
      </trkpt>
      <trkpt lat="37.39081" lon="-6.65827">
        <ele>31.36235</ele>
        <time>2021-07-13T11:25:23Z</time>
      </trkpt>
      <trkpt lat="37.39169" lon="-6.65621">
        <ele>31.73881</ele>
        <time>2021-07-13T11:25:34Z</time>
      </trkpt>
      <trkpt lat="37.39307" lon="-6.65454">
        <ele>30.4528</ele>
        <time>2021-07-13T11:25:45Z</time>
      </trkpt>
      <trkpt lat="37.3943" lon="-6.65289">
        <ele>17.33428</ele>
        <time>2021-07-13T11:25:56Z</time>
      </trkpt>
      <trkpt lat="37.39538" lon="-6.65143">
        <ele>-51.82619</ele>
        <time>2021-07-13T11:26:07Z</time>
      </trkpt>
      <trkpt lat="37.39623" lon="-6.64902">
        <ele>34.95158</ele>
        <time>2021-07-13T11:26:18Z</time>
      </trkpt>
      <trkpt lat="37.39702" lon="-6.64693">
        <ele>35.72293</ele>
        <time>2021-07-13T11:26:29Z</time>
      </trkpt>
      <trkpt lat="37.39847" lon="-6.6453">
        <ele>36.51419</ele>
        <time>2021-07-13T11:26:40Z</time>
      </trkpt>
      <trkpt lat="37.39993" lon="-6.64416">
        <ele>40.4964</ele>
        <time>2021-07-13T11:26:51Z</time>
      </trkpt>
      <trkpt lat="37.40138" lon="-6.64274">
        <ele>45.29126</ele>
        <time>2021-07-13T11:27:02Z</time>
      </trkpt>
      <trkpt lat="37.40262" lon="-6.64131">
        <ele>42.96716</ele>
        <time>2021-07-13T11:27:13Z</time>
      </trkpt>
      <trkpt lat="37.40277" lon="-6.6393">
        <ele>37.95047</ele>
        <time>2021-07-13T11:27:24Z</time>
      </trkpt>
      <trkpt lat="37.40378" lon="-6.63758">
        <ele>40.01346</ele>
        <time>2021-07-13T11:27:35Z</time>
      </trkpt>
      <trkpt lat="37.40519" lon="-6.63621">
        <ele>36.16814</ele>
        <time>2021-07-13T11:27:46Z</time>
      </trkpt>
      <trkpt lat="37.40626" lon="-6.63457">
        <ele>37.75073</ele>
        <time>2021-07-13T11:27:57Z</time>
      </trkpt>
      <trkpt lat="37.40693" lon="-6.63282">
        <ele>33.57553</ele>
        <time>2021-07-13T11:28:08Z</time>
      </trkpt>
      <trkpt lat="37.40744" lon="-6.63097">
        <ele>35.91849</ele>
        <time>2021-07-13T11:28:19Z</time>
      </trkpt>
      <trkpt lat="37.40842" lon="-6.6293">
        <ele>38.36538</ele>
        <time>2021-07-13T11:28:30Z</time>
      </trkpt>
      <trkpt lat="37.40925" lon="-6.62856">
        <ele>38.38637</ele>
        <time>2021-07-13T11:28:41Z</time>
      </trkpt>
      <trkpt lat="37.40884" lon="-6.62771">
        <ele>35.41741</ele>
        <time>2021-07-13T11:28:52Z</time>
      </trkpt>
      <trkpt lat="37.40819" lon="-6.6269">
        <ele>32.94229</ele>
        <time>2021-07-13T11:29:03Z</time>
      </trkpt>
      <trkpt lat="37.40673" lon="-6.62653">
        <ele>29.34458</ele>
        <time>2021-07-13T11:29:14Z</time>
      </trkpt>
      <trkpt lat="37.4052" lon="-6.62582">
        <ele>27.53564</ele>
        <time>2021-07-13T11:29:25Z</time>
      </trkpt>
      <trkpt lat="37.40391" lon="-6.62517">
        <ele>33.30767</ele>
        <time>2021-07-13T11:29:36Z</time>
      </trkpt>
      <trkpt lat="37.40207" lon="-6.62408">
        <ele>40.98154</ele>
        <time>2021-07-13T11:29:47Z</time>
      </trkpt>
      <trkpt lat="37.40017" lon="-6.62266">
        <ele>33.93035</ele>
        <time>2021-07-13T11:29:58Z</time>
      </trkpt>
      <trkpt lat="37.39826" lon="-6.62115">
        <ele>30.71806</ele>
        <time>2021-07-13T11:30:09Z</time>
      </trkpt>
      <trkpt lat="37.39582" lon="-6.61898">
        <ele>32.83498</ele>
        <time>2021-07-13T11:30:20Z</time>
      </trkpt>
      <trkpt lat="37.39422" lon="-6.61713">
        <ele>43.66116</ele>
        <time>2021-07-13T11:30:32Z</time>
      </trkpt>
      <trkpt lat="37.39346" lon="-6.61581">
        <ele>48.94738</ele>
        <time>2021-07-13T11:30:43Z</time>
      </trkpt>
      <trkpt lat="37.3929" lon="-6.61393">
        <ele>61.004</ele>
        <time>2021-07-13T11:30:54Z</time>
      </trkpt>
      <trkpt lat="37.39252" lon="-6.61258">
        <ele>68.90917</ele>
        <time>2021-07-13T11:31:05Z</time>
      </trkpt>
      <trkpt lat="37.39255" lon="-6.61299">
        <ele>67.15672</ele>
        <time>2021-07-13T11:31:16Z</time>
      </trkpt>
      <trkpt lat="37.39253" lon="-6.61303">
        <ele>64.66643</ele>
        <time>2021-07-13T11:31:41Z</time>
      </trkpt>
      <trkpt lat="37.3925" lon="-6.6131">
        <ele>61.6424</ele>
        <time>2021-07-13T11:32:02Z</time>
      </trkpt>
      <trkpt lat="37.39206" lon="-6.61429">
        <ele>57.67249</ele>
        <time>2021-07-13T11:32:13Z</time>
      </trkpt>
      <trkpt lat="37.39146" lon="-6.61607">
        <ele>51.58971</ele>
        <time>2021-07-13T11:32:24Z</time>
      </trkpt>
      <trkpt lat="37.39086" lon="-6.61829">
        <ele>54.53476</ele>
        <time>2021-07-13T11:32:35Z</time>
      </trkpt>
      <trkpt lat="37.3901" lon="-6.62014">
        <ele>53.32385</ele>
        <time>2021-07-13T11:32:46Z</time>
      </trkpt>
      <trkpt lat="37.38892" lon="-6.62208">
        <ele>50.15894</ele>
        <time>2021-07-13T11:32:57Z</time>
      </trkpt>
      <trkpt lat="37.38834" lon="-6.62367">
        <ele>46.30483</ele>
        <time>2021-07-13T11:33:08Z</time>
      </trkpt>
      <trkpt lat="37.38757" lon="-6.62547">
        <ele>48.86519</ele>
        <time>2021-07-13T11:33:19Z</time>
      </trkpt>
      <trkpt lat="37.38716" lon="-6.62718">
        <ele>48.4724</ele>
        <time>2021-07-13T11:33:30Z</time>
      </trkpt>
      <trkpt lat="37.38688" lon="-6.62909">
        <ele>55.97549</ele>
        <time>2021-07-13T11:33:41Z</time>
      </trkpt>
      <trkpt lat="37.38676" lon="-6.631">
        <ele>53.42692</ele>
        <time>2021-07-13T11:33:52Z</time>
      </trkpt>
      <trkpt lat="37.38648" lon="-6.63294">
        <ele>51.52524</ele>
        <time>2021-07-13T11:34:03Z</time>
      </trkpt>
      <trkpt lat="37.38637" lon="-6.63474">
        <ele>43.76147</ele>
        <time>2021-07-13T11:34:14Z</time>
      </trkpt>
      <trkpt lat="37.38672" lon="-6.63648">
        <ele>36.27309</ele>
        <time>2021-07-13T11:34:25Z</time>
      </trkpt>
      <trkpt lat="37.38628" lon="-6.63799">
        <ele>41.0246</ele>
        <time>2021-07-13T11:34:36Z</time>
      </trkpt>
      <trkpt lat="37.38547" lon="-6.63956">
        <ele>52.8619</ele>
        <time>2021-07-13T11:34:47Z</time>
      </trkpt>
      <trkpt lat="37.38456" lon="-6.64071">
        <ele>52.46714</ele>
        <time>2021-07-13T11:34:58Z</time>
      </trkpt>
      <trkpt lat="37.38366" lon="-6.64224">
        <ele>51.44049</ele>
        <time>2021-07-13T11:35:09Z</time>
      </trkpt>
      <trkpt lat="37.38284" lon="-6.64401">
        <ele>52.81532</ele>
        <time>2021-07-13T11:35:20Z</time>
      </trkpt>
      <trkpt lat="37.3818" lon="-6.64559">
        <ele>50.62739</ele>
        <time>2021-07-13T11:35:31Z</time>
      </trkpt>
      <trkpt lat="37.38089" lon="-6.64717">
        <ele>46.41574</ele>
        <time>2021-07-13T11:35:42Z</time>
      </trkpt>
      <trkpt lat="37.38012" lon="-6.6486">
        <ele>41.2686</ele>
        <time>2021-07-13T11:35:53Z</time>
      </trkpt>
      <trkpt lat="37.37924" lon="-6.64966">
        <ele>27.98644</ele>
        <time>2021-07-13T11:36:04Z</time>
      </trkpt>
      <trkpt lat="37.37834" lon="-6.65108">
        <ele>30.455</ele>
        <time>2021-07-13T11:36:15Z</time>
      </trkpt>
      <trkpt lat="37.37793" lon="-6.65168">
        <ele>41.44578</ele>
        <time>2021-07-13T11:36:26Z</time>
      </trkpt>
      <trkpt lat="37.37846" lon="-6.65277">
        <ele>43.04852</ele>
        <time>2021-07-13T11:36:37Z</time>
      </trkpt>
      <trkpt lat="37.37918" lon="-6.65393">
        <ele>43.56201</ele>
        <time>2021-07-13T11:36:48Z</time>
      </trkpt>
      <trkpt lat="37.37977" lon="-6.65478">
        <ele>42.0182</ele>
        <time>2021-07-13T11:36:59Z</time>
      </trkpt>
      <trkpt lat="37.38025" lon="-6.65555">
        <ele>41.66271</ele>
        <time>2021-07-13T11:37:10Z</time>
      </trkpt>
      <trkpt lat="37.38051" lon="-6.65595">
        <ele>40.52085</ele>
        <time>2021-07-13T11:37:21Z</time>
      </trkpt>
      <trkpt lat="37.3803" lon="-6.65633">
        <ele>36.92182</ele>
        <time>2021-07-13T11:37:32Z</time>
      </trkpt>
      <trkpt lat="37.37943" lon="-6.65737">
        <ele>27.77269</ele>
        <time>2021-07-13T11:37:43Z</time>
      </trkpt>
      <trkpt lat="37.37844" lon="-6.65857">
        <ele>29.83233</ele>
        <time>2021-07-13T11:37:54Z</time>
      </trkpt>
      <trkpt lat="37.37738" lon="-6.65993">
        <ele>27.18558</ele>
        <time>2021-07-13T11:38:05Z</time>
      </trkpt>
      <trkpt lat="37.37613" lon="-6.66152">
        <ele>5.717315</ele>
        <time>2021-07-13T11:38:16Z</time>
      </trkpt>
      <trkpt lat="37.37481" lon="-6.66312">
        <ele>31.58044</ele>
        <time>2021-07-13T11:38:27Z</time>
      </trkpt>
      <trkpt lat="37.37361" lon="-6.66461">
        <ele>26.61728</ele>
        <time>2021-07-13T11:38:38Z</time>
      </trkpt>
      <trkpt lat="37.3725" lon="-6.66597">
        <ele>24.27448</ele>
        <time>2021-07-13T11:38:49Z</time>
      </trkpt>
      <trkpt lat="37.37176" lon="-6.66692">
        <ele>24.50782</ele>
        <time>2021-07-13T11:39:00Z</time>
      </trkpt>
      <trkpt lat="37.37121" lon="-6.66654">
        <ele>27.90624</ele>
        <time>2021-07-13T11:39:11Z</time>
      </trkpt>
      <trkpt lat="37.37044" lon="-6.66596">
        <ele>25.91606</ele>
        <time>2021-07-13T11:39:22Z</time>
      </trkpt>
      <trkpt lat="37.36985" lon="-6.66676">
        <ele>27.5115</ele>
        <time>2021-07-13T11:39:33Z</time>
      </trkpt>
      <trkpt lat="37.3683" lon="-6.66852">
        <ele>25.68478</ele>
        <time>2021-07-13T11:39:44Z</time>
      </trkpt>
      <trkpt lat="37.36658" lon="-6.67033">
        <ele>24.82971</ele>
        <time>2021-07-13T11:39:55Z</time>
      </trkpt>
      <trkpt lat="37.36506" lon="-6.67191">
        <ele>25.75642</ele>
        <time>2021-07-13T11:40:06Z</time>
      </trkpt>
      <trkpt lat="37.36452" lon="-6.67258">
        <ele>24.98859</ele>
        <time>2021-07-13T11:40:17Z</time>
      </trkpt>
      <trkpt lat="37.36452" lon="-6.67182">
        <ele>22.06305</ele>
        <time>2021-07-13T11:40:28Z</time>
      </trkpt>
      <trkpt lat="37.36412" lon="-6.67018">
        <ele>25.46399</ele>
        <time>2021-07-13T11:40:39Z</time>
      </trkpt>
      <trkpt lat="37.36342" lon="-6.66831">
        <ele>31.19245</ele>
        <time>2021-07-13T11:40:50Z</time>
      </trkpt>
      <trkpt lat="37.36336" lon="-6.66611">
        <ele>37.36455</ele>
        <time>2021-07-13T11:41:01Z</time>
      </trkpt>
      <trkpt lat="37.36289" lon="-6.66399">
        <ele>38.48391</ele>
        <time>2021-07-13T11:41:12Z</time>
      </trkpt>
      <trkpt lat="37.36277" lon="-6.66161">
        <ele>42.93806</ele>
        <time>2021-07-13T11:41:23Z</time>
      </trkpt>
      <trkpt lat="37.3625" lon="-6.65999">
        <ele>45.68301</ele>
        <time>2021-07-13T11:41:34Z</time>
      </trkpt>
      <trkpt lat="37.36221" lon="-6.65819">
        <ele>46.17625</ele>
        <time>2021-07-13T11:41:45Z</time>
      </trkpt>
      <trkpt lat="37.36184" lon="-6.65584">
        <ele>49.54436</ele>
        <time>2021-07-13T11:41:56Z</time>
      </trkpt>
      <trkpt lat="37.36158" lon="-6.65355">
        <ele>53.34817</ele>
        <time>2021-07-13T11:42:07Z</time>
      </trkpt>
      <trkpt lat="37.36129" lon="-6.65171">
        <ele>56.43914</ele>
        <time>2021-07-13T11:42:18Z</time>
      </trkpt>
      <trkpt lat="37.3612" lon="-6.6499">
        <ele>59.57636</ele>
        <time>2021-07-13T11:42:29Z</time>
      </trkpt>
      <trkpt lat="37.36098" lon="-6.64785">
        <ele>61.78926</ele>
        <time>2021-07-13T11:42:40Z</time>
      </trkpt>
      <trkpt lat="37.3606" lon="-6.64539">
        <ele>65.554</ele>
        <time>2021-07-13T11:42:51Z</time>
      </trkpt>
      <trkpt lat="37.36048" lon="-6.64286">
        <ele>68.63416</ele>
        <time>2021-07-13T11:43:02Z</time>
      </trkpt>
      <trkpt lat="37.36057" lon="-6.64046">
        <ele>72.48971</ele>
        <time>2021-07-13T11:43:13Z</time>
      </trkpt>
      <trkpt lat="37.3604" lon="-6.63857">
        <ele>75.86268</ele>
        <time>2021-07-13T11:43:24Z</time>
      </trkpt>
      <trkpt lat="37.36023" lon="-6.63711">
        <ele>80.08671</ele>
        <time>2021-07-13T11:43:35Z</time>
      </trkpt>
      <trkpt lat="37.36036" lon="-6.63604">
        <ele>83.3163</ele>
        <time>2021-07-13T11:43:46Z</time>
      </trkpt>
      <trkpt lat="37.36001" lon="-6.63477">
        <ele>82.07498</ele>
        <time>2021-07-13T11:43:57Z</time>
      </trkpt>
      <trkpt lat="37.35998" lon="-6.63311">
        <ele>86.98765</ele>
        <time>2021-07-13T11:44:08Z</time>
      </trkpt>
      <trkpt lat="37.35987" lon="-6.63169">
        <ele>84.95717</ele>
        <time>2021-07-13T11:44:19Z</time>
      </trkpt>
      <trkpt lat="37.35959" lon="-6.6301">
        <ele>86.6181</ele>
        <time>2021-07-13T11:44:30Z</time>
      </trkpt>
      <trkpt lat="37.35918" lon="-6.62836">
        <ele>90.95321</ele>
        <time>2021-07-13T11:44:41Z</time>
      </trkpt>
      <trkpt lat="37.35877" lon="-6.62653">
        <ele>94.94137</ele>
        <time>2021-07-13T11:44:52Z</time>
      </trkpt>
      <trkpt lat="37.35845" lon="-6.62528">
        <ele>95.49011</ele>
        <time>2021-07-13T11:45:03Z</time>
      </trkpt>
      <trkpt lat="37.3575" lon="-6.62363">
        <ele>102.8166</ele>
        <time>2021-07-13T11:45:14Z</time>
      </trkpt>
      <trkpt lat="37.3565" lon="-6.62193">
        <ele>109.7477</ele>
        <time>2021-07-13T11:45:25Z</time>
      </trkpt>
      <trkpt lat="37.35622" lon="-6.61989">
        <ele>117.3195</ele>
        <time>2021-07-13T11:45:36Z</time>
      </trkpt>
      <trkpt lat="37.35589" lon="-6.61818">
        <ele>121.9828</ele>
        <time>2021-07-13T11:45:47Z</time>
      </trkpt>
      <trkpt lat="37.35536" lon="-6.61607">
        <ele>131.2175</ele>
        <time>2021-07-13T11:45:58Z</time>
      </trkpt>
      <trkpt lat="37.35392" lon="-6.61469">
        <ele>136.315</ele>
        <time>2021-07-13T11:46:09Z</time>
      </trkpt>
      <trkpt lat="37.35237" lon="-6.6132">
        <ele>140.9327</ele>
        <time>2021-07-13T11:46:20Z</time>
      </trkpt>
      <trkpt lat="37.35132" lon="-6.61256">
        <ele>144.1439</ele>
        <time>2021-07-13T11:46:31Z</time>
      </trkpt>
      <trkpt lat="37.35019" lon="-6.61345">
        <ele>147.6108</ele>
        <time>2021-07-13T11:46:42Z</time>
      </trkpt>
      <trkpt lat="37.34978" lon="-6.61357">
        <ele>154.8556</ele>
        <time>2021-07-13T11:46:53Z</time>
      </trkpt>
      <trkpt lat="37.34935" lon="-6.61343">
        <ele>157.0152</ele>
        <time>2021-07-13T11:47:04Z</time>
      </trkpt>
      <trkpt lat="37.34882" lon="-6.61368">
        <ele>157.639</ele>
        <time>2021-07-13T11:47:15Z</time>
      </trkpt>
      <trkpt lat="37.34863" lon="-6.61543">
        <ele>159.3718</ele>
        <time>2021-07-13T11:47:26Z</time>
      </trkpt>
      <trkpt lat="37.34825" lon="-6.61657">
        <ele>161.2254</ele>
        <time>2021-07-13T11:47:37Z</time>
      </trkpt>
      <trkpt lat="37.34824" lon="-6.61669">
        <ele>158.5615</ele>
        <time>2021-07-13T11:47:48Z</time>
      </trkpt>
      <trkpt lat="37.34824" lon="-6.6167">
        <ele>156.2797</ele>
        <time>2021-07-13T11:48:48Z</time>
      </trkpt>
      <trkpt lat="37.34822" lon="-6.61676">
        <ele>157.3185</ele>
        <time>2021-07-13T11:49:18Z</time>
      </trkpt>
      <trkpt lat="37.34811" lon="-6.6179">
        <ele>152.9684</ele>
        <time>2021-07-13T11:49:29Z</time>
      </trkpt>
      <trkpt lat="37.34756" lon="-6.6195">
        <ele>149.4916</ele>
        <time>2021-07-13T11:49:40Z</time>
      </trkpt>
      <trkpt lat="37.34692" lon="-6.62106">
        <ele>148.7662</ele>
        <time>2021-07-13T11:49:51Z</time>
      </trkpt>
      <trkpt lat="37.34635" lon="-6.62243">
        <ele>147.519</ele>
        <time>2021-07-13T11:50:02Z</time>
      </trkpt>
      <trkpt lat="37.34569" lon="-6.62266">
        <ele>144.0875</ele>
        <time>2021-07-13T11:50:13Z</time>
      </trkpt>
      <trkpt lat="37.34475" lon="-6.62273">
        <ele>139.4987</ele>
        <time>2021-07-13T11:50:24Z</time>
      </trkpt>
      <trkpt lat="37.34382" lon="-6.62278">
        <ele>137.8861</ele>
        <time>2021-07-13T11:50:35Z</time>
      </trkpt>
      <trkpt lat="37.34362" lon="-6.62278">
        <ele>137.9498</ele>
        <time>2021-07-13T11:50:46Z</time>
      </trkpt>
      <trkpt lat="37.34299" lon="-6.62304">
        <ele>135.4026</ele>
        <time>2021-07-13T11:50:57Z</time>
      </trkpt>
      <trkpt lat="37.3425" lon="-6.62303">
        <ele>134.1363</ele>
        <time>2021-07-13T11:51:08Z</time>
      </trkpt>
      <trkpt lat="37.34176" lon="-6.62283">
        <ele>130.111</ele>
        <time>2021-07-13T11:51:19Z</time>
      </trkpt>
      <trkpt lat="37.3416" lon="-6.62237">
        <ele>129.1342</ele>
        <time>2021-07-13T11:51:30Z</time>
      </trkpt>
      <trkpt lat="37.34162" lon="-6.62195">
        <ele>129.6221</ele>
        <time>2021-07-13T11:51:41Z</time>
      </trkpt>
      <trkpt lat="37.34175" lon="-6.62188">
        <ele>128.8438</ele>
        <time>2021-07-13T11:51:52Z</time>
      </trkpt>
      <trkpt lat="37.34171" lon="-6.62191">
        <ele>129.369</ele>
        <time>2021-07-13T11:52:09Z</time>
      </trkpt>
      <trkpt lat="37.34156" lon="-6.62222">
        <ele>128.4792</ele>
        <time>2021-07-13T11:52:20Z</time>
      </trkpt>
      <trkpt lat="37.3416" lon="-6.62281">
        <ele>130.7276</ele>
        <time>2021-07-13T11:52:31Z</time>
      </trkpt>
      <trkpt lat="37.3421" lon="-6.62294">
        <ele>131.6617</ele>
        <time>2021-07-13T11:52:42Z</time>
      </trkpt>
      <trkpt lat="37.3428" lon="-6.62303">
        <ele>134.7522</ele>
        <time>2021-07-13T11:52:53Z</time>
      </trkpt>
      <trkpt lat="37.34347" lon="-6.62285">
        <ele>136.976</ele>
        <time>2021-07-13T11:53:04Z</time>
      </trkpt>
      <trkpt lat="37.34448" lon="-6.62272">
        <ele>139.4301</ele>
        <time>2021-07-13T11:53:15Z</time>
      </trkpt>
      <trkpt lat="37.34503" lon="-6.6227">
        <ele>143.0931</ele>
        <time>2021-07-13T11:53:26Z</time>
      </trkpt>
      <trkpt lat="37.34582" lon="-6.62265">
        <ele>146.3452</ele>
        <time>2021-07-13T11:53:37Z</time>
      </trkpt>
      <trkpt lat="37.34636" lon="-6.62237">
        <ele>149.606</ele>
        <time>2021-07-13T11:53:48Z</time>
      </trkpt>
      <trkpt lat="37.34683" lon="-6.62125">
        <ele>152.1606</ele>
        <time>2021-07-13T11:53:59Z</time>
      </trkpt>
      <trkpt lat="37.34706" lon="-6.6206">
        <ele>153.4717</ele>
        <time>2021-07-13T11:54:10Z</time>
      </trkpt>
      <trkpt lat="37.34709" lon="-6.62056">
        <ele>154.0736</ele>
        <time>2021-07-13T11:54:24Z</time>
      </trkpt>
      <trkpt lat="37.34706" lon="-6.62062">
        <ele>152.4054</ele>
        <time>2021-07-13T11:54:35Z</time>
      </trkpt>
      <trkpt lat="37.34656" lon="-6.62057">
        <ele>150.8112</ele>
        <time>2021-07-13T11:54:46Z</time>
      </trkpt>
      <trkpt lat="37.34576" lon="-6.62007">
        <ele>147.3936</ele>
        <time>2021-07-13T11:54:57Z</time>
      </trkpt>
      <trkpt lat="37.34539" lon="-6.61946">
        <ele>149.2213</ele>
        <time>2021-07-13T11:55:08Z</time>
      </trkpt>
      <trkpt lat="37.34527" lon="-6.61924">
        <ele>149.5498</ele>
        <time>2021-07-13T11:55:19Z</time>
      </trkpt>
      <trkpt lat="37.34512" lon="-6.61934">
        <ele>148.887</ele>
        <time>2021-07-13T11:55:30Z</time>
      </trkpt>
      <trkpt lat="37.34533" lon="-6.61949">
        <ele>149.1983</ele>
        <time>2021-07-13T11:55:41Z</time>
      </trkpt>
      <trkpt lat="37.34531" lon="-6.61934">
        <ele>149.423</ele>
        <time>2021-07-13T11:55:52Z</time>
      </trkpt>
      <trkpt lat="37.34527" lon="-6.61925">
        <ele>149.0826</ele>
        <time>2021-07-13T11:56:03Z</time>
      </trkpt>
      <trkpt lat="37.34527" lon="-6.6192">
        <ele>148.866</ele>
        <time>2021-07-13T11:56:49Z</time>
      </trkpt>
      <trkpt lat="37.34523" lon="-6.61886">
        <ele>145.8542</ele>
        <time>2021-07-13T11:57:00Z</time>
      </trkpt>
      <trkpt lat="37.34523" lon="-6.61881">
        <ele>145.3399</ele>
        <time>2021-07-13T11:57:16Z</time>
      </trkpt>
      <trkpt lat="37.34523" lon="-6.61887">
        <ele>145.4742</ele>
        <time>2021-07-13T11:57:34Z</time>
      </trkpt>
      <trkpt lat="37.34532" lon="-6.61939">
        <ele>148.816</ele>
        <time>2021-07-13T11:57:45Z</time>
      </trkpt>
      <trkpt lat="37.34535" lon="-6.61941">
        <ele>149.3643</ele>
        <time>2021-07-13T11:58:22Z</time>
      </trkpt>
      <trkpt lat="37.34577" lon="-6.62009">
        <ele>148.8232</ele>
        <time>2021-07-13T11:58:33Z</time>
      </trkpt>
      <trkpt lat="37.34656" lon="-6.62056">
        <ele>149.7392</ele>
        <time>2021-07-13T11:58:44Z</time>
      </trkpt>
      <trkpt lat="37.34704" lon="-6.62056">
        <ele>151.216</ele>
        <time>2021-07-13T11:58:55Z</time>
      </trkpt>
      <trkpt lat="37.34743" lon="-6.61986">
        <ele>152.3842</ele>
        <time>2021-07-13T11:59:06Z</time>
      </trkpt>
      <trkpt lat="37.34793" lon="-6.61841">
        <ele>153.4784</ele>
        <time>2021-07-13T11:59:17Z</time>
      </trkpt>
      <trkpt lat="37.34821" lon="-6.61737">
        <ele>155.3732</ele>
        <time>2021-07-13T11:59:28Z</time>
      </trkpt>
      <trkpt lat="37.34839" lon="-6.61602">
        <ele>157.8104</ele>
        <time>2021-07-13T11:59:39Z</time>
      </trkpt>
      <trkpt lat="37.34878" lon="-6.61464">
        <ele>154.2056</ele>
        <time>2021-07-13T11:59:50Z</time>
      </trkpt>
      <trkpt lat="37.34882" lon="-6.61323">
        <ele>157.2837</ele>
        <time>2021-07-13T12:00:01Z</time>
      </trkpt>
      <trkpt lat="37.34826" lon="-6.61233">
        <ele>157.9961</ele>
        <time>2021-07-13T12:00:12Z</time>
      </trkpt>
      <trkpt lat="37.3477" lon="-6.61125">
        <ele>150.887</ele>
        <time>2021-07-13T12:00:23Z</time>
      </trkpt>
      <trkpt lat="37.34718" lon="-6.61038">
        <ele>153.7131</ele>
        <time>2021-07-13T12:00:34Z</time>
      </trkpt>
      <trkpt lat="37.34664" lon="-6.60939">
        <ele>154.6215</ele>
        <time>2021-07-13T12:00:45Z</time>
      </trkpt>
      <trkpt lat="37.34615" lon="-6.60796">
        <ele>151.4064</ele>
        <time>2021-07-13T12:00:56Z</time>
      </trkpt>
      <trkpt lat="37.34575" lon="-6.60675">
        <ele>152.1078</ele>
        <time>2021-07-13T12:01:07Z</time>
      </trkpt>
      <trkpt lat="37.34525" lon="-6.60557">
        <ele>150.5462</ele>
        <time>2021-07-13T12:01:18Z</time>
      </trkpt>
      <trkpt lat="37.34463" lon="-6.60416">
        <ele>151.5942</ele>
        <time>2021-07-13T12:01:29Z</time>
      </trkpt>
      <trkpt lat="37.34387" lon="-6.60324">
        <ele>144.4941</ele>
        <time>2021-07-13T12:01:40Z</time>
      </trkpt>
      <trkpt lat="37.34301" lon="-6.60277">
        <ele>147.464</ele>
        <time>2021-07-13T12:01:51Z</time>
      </trkpt>
      <trkpt lat="37.34253" lon="-6.60231">
        <ele>150.6088</ele>
        <time>2021-07-13T12:02:02Z</time>
      </trkpt>
      <trkpt lat="37.34175" lon="-6.60138">
        <ele>149.2072</ele>
        <time>2021-07-13T12:02:13Z</time>
      </trkpt>
      <trkpt lat="37.34081" lon="-6.6005">
        <ele>150.8943</ele>
        <time>2021-07-13T12:02:24Z</time>
      </trkpt>
      <trkpt lat="37.33979" lon="-6.5996">
        <ele>147.5455</ele>
        <time>2021-07-13T12:02:35Z</time>
      </trkpt>
      <trkpt lat="37.33895" lon="-6.59831">
        <ele>144.7881</ele>
        <time>2021-07-13T12:02:46Z</time>
      </trkpt>
      <trkpt lat="37.33826" lon="-6.59719">
        <ele>146.9824</ele>
        <time>2021-07-13T12:02:57Z</time>
      </trkpt>
      <trkpt lat="37.3376" lon="-6.59611">
        <ele>145.5657</ele>
        <time>2021-07-13T12:03:08Z</time>
      </trkpt>
      <trkpt lat="37.33702" lon="-6.59501">
        <ele>144.3099</ele>
        <time>2021-07-13T12:03:19Z</time>
      </trkpt>
      <trkpt lat="37.3366" lon="-6.59384">
        <ele>139.8642</ele>
        <time>2021-07-13T12:03:30Z</time>
      </trkpt>
      <trkpt lat="37.33626" lon="-6.59259">
        <ele>140.5269</ele>
        <time>2021-07-13T12:03:41Z</time>
      </trkpt>
      <trkpt lat="37.33584" lon="-6.59165">
        <ele>143.913</ele>
        <time>2021-07-13T12:03:52Z</time>
      </trkpt>
      <trkpt lat="37.33505" lon="-6.59092">
        <ele>143.0009</ele>
        <time>2021-07-13T12:04:03Z</time>
      </trkpt>
      <trkpt lat="37.3341" lon="-6.59027">
        <ele>139.356</ele>
        <time>2021-07-13T12:04:14Z</time>
      </trkpt>
      <trkpt lat="37.33313" lon="-6.58956">
        <ele>140.8726</ele>
        <time>2021-07-13T12:04:25Z</time>
      </trkpt>
      <trkpt lat="37.33244" lon="-6.58883">
        <ele>133.8852</ele>
        <time>2021-07-13T12:04:36Z</time>
      </trkpt>
      <trkpt lat="37.33234" lon="-6.58874">
        <ele>138.0394</ele>
        <time>2021-07-13T12:04:47Z</time>
      </trkpt>
      <trkpt lat="37.33234" lon="-6.58869">
        <ele>140.4306</ele>
        <time>2021-07-13T12:04:58Z</time>
      </trkpt>
      <trkpt lat="37.3322" lon="-6.58808">
        <ele>144.6366</ele>
        <time>2021-07-13T12:05:09Z</time>
      </trkpt>
      <trkpt lat="37.33184" lon="-6.5871">
        <ele>144.9127</ele>
        <time>2021-07-13T12:05:20Z</time>
      </trkpt>
      <trkpt lat="37.33133" lon="-6.58597">
        <ele>143.4378</ele>
        <time>2021-07-13T12:05:31Z</time>
      </trkpt>
      <trkpt lat="37.33078" lon="-6.58494">
        <ele>145.2479</ele>
        <time>2021-07-13T12:05:42Z</time>
      </trkpt>
      <trkpt lat="37.33031" lon="-6.58416">
        <ele>144.0999</ele>
        <time>2021-07-13T12:05:53Z</time>
      </trkpt>
      <trkpt lat="37.32989" lon="-6.58323">
        <ele>141.3158</ele>
        <time>2021-07-13T12:06:04Z</time>
      </trkpt>
      <trkpt lat="37.32929" lon="-6.58219">
        <ele>139.508</ele>
        <time>2021-07-13T12:06:15Z</time>
      </trkpt>
      <trkpt lat="37.32875" lon="-6.58109">
        <ele>138.4786</ele>
        <time>2021-07-13T12:06:26Z</time>
      </trkpt>
      <trkpt lat="37.32818" lon="-6.57995">
        <ele>131.4251</ele>
        <time>2021-07-13T12:06:37Z</time>
      </trkpt>
      <trkpt lat="37.32792" lon="-6.57875">
        <ele>133.4996</ele>
        <time>2021-07-13T12:06:48Z</time>
      </trkpt>
      <trkpt lat="37.32738" lon="-6.57764">
        <ele>132.0734</ele>
        <time>2021-07-13T12:06:59Z</time>
      </trkpt>
      <trkpt lat="37.32694" lon="-6.57618">
        <ele>133.6351</ele>
        <time>2021-07-13T12:07:10Z</time>
      </trkpt>
      <trkpt lat="37.32633" lon="-6.57497">
        <ele>134.2896</ele>
        <time>2021-07-13T12:07:21Z</time>
      </trkpt>
      <trkpt lat="37.32555" lon="-6.5741">
        <ele>137.0016</ele>
        <time>2021-07-13T12:07:32Z</time>
      </trkpt>
      <trkpt lat="37.32479" lon="-6.57332">
        <ele>129.01</ele>
        <time>2021-07-13T12:07:43Z</time>
      </trkpt>
      <trkpt lat="37.32414" lon="-6.57196">
        <ele>124.8469</ele>
        <time>2021-07-13T12:07:54Z</time>
      </trkpt>
      <trkpt lat="37.324" lon="-6.57178">
        <ele>124.4391</ele>
        <time>2021-07-13T12:08:05Z</time>
      </trkpt>
      <trkpt lat="37.32397" lon="-6.57174">
        <ele>124.7488</ele>
        <time>2021-07-13T12:08:41Z</time>
      </trkpt>
      <trkpt lat="37.32349" lon="-6.57252">
        <ele>125.2868</ele>
        <time>2021-07-13T12:08:52Z</time>
      </trkpt>
      <trkpt lat="37.32285" lon="-6.57239">
        <ele>122.6284</ele>
        <time>2021-07-13T12:09:03Z</time>
      </trkpt>
      <trkpt lat="37.322" lon="-6.57166">
        <ele>122.1594</ele>
        <time>2021-07-13T12:09:14Z</time>
      </trkpt>
      <trkpt lat="37.32122" lon="-6.57093">
        <ele>121.0863</ele>
        <time>2021-07-13T12:09:25Z</time>
      </trkpt>
      <trkpt lat="37.32072" lon="-6.56995">
        <ele>120.9041</ele>
        <time>2021-07-13T12:09:36Z</time>
      </trkpt>
      <trkpt lat="37.32007" lon="-6.56882">
        <ele>122.9181</ele>
        <time>2021-07-13T12:09:47Z</time>
      </trkpt>
      <trkpt lat="37.31952" lon="-6.56774">
        <ele>122.3754</ele>
        <time>2021-07-13T12:09:58Z</time>
      </trkpt>
      <trkpt lat="37.31892" lon="-6.56683">
        <ele>121.2342</ele>
        <time>2021-07-13T12:10:09Z</time>
      </trkpt>
      <trkpt lat="37.31817" lon="-6.56583">
        <ele>123.0867</ele>
        <time>2021-07-13T12:10:20Z</time>
      </trkpt>
      <trkpt lat="37.31749" lon="-6.56501">
        <ele>122.641</ele>
        <time>2021-07-13T12:10:31Z</time>
      </trkpt>
      <trkpt lat="37.31742" lon="-6.56489">
        <ele>127.6843</ele>
        <time>2021-07-13T12:10:42Z</time>
      </trkpt>
      <trkpt lat="37.31764" lon="-6.56406">
        <ele>126.5683</ele>
        <time>2021-07-13T12:10:53Z</time>
      </trkpt>
      <trkpt lat="37.31695" lon="-6.56367">
        <ele>123.5342</ele>
        <time>2021-07-13T12:11:04Z</time>
      </trkpt>
      <trkpt lat="37.31638" lon="-6.56347">
        <ele>120.9302</ele>
        <time>2021-07-13T12:11:15Z</time>
      </trkpt>
      <trkpt lat="37.3157" lon="-6.56325">
        <ele>118.0874</ele>
        <time>2021-07-13T12:11:26Z</time>
      </trkpt>
      <trkpt lat="37.31519" lon="-6.56311">
        <ele>118.4678</ele>
        <time>2021-07-13T12:11:37Z</time>
      </trkpt>
      <trkpt lat="37.31465" lon="-6.56299">
        <ele>118.5508</ele>
        <time>2021-07-13T12:11:48Z</time>
      </trkpt>
      <trkpt lat="37.31409" lon="-6.56288">
        <ele>117.5347</ele>
        <time>2021-07-13T12:11:59Z</time>
      </trkpt>
      <trkpt lat="37.31357" lon="-6.56276">
        <ele>117.7271</ele>
        <time>2021-07-13T12:12:10Z</time>
      </trkpt>
      <trkpt lat="37.3129" lon="-6.56257">
        <ele>117.1624</ele>
        <time>2021-07-13T12:12:21Z</time>
      </trkpt>
      <trkpt lat="37.31207" lon="-6.56236">
        <ele>118.9085</ele>
        <time>2021-07-13T12:12:32Z</time>
      </trkpt>
      <trkpt lat="37.31139" lon="-6.56224">
        <ele>116.2469</ele>
        <time>2021-07-13T12:12:43Z</time>
      </trkpt>
      <trkpt lat="37.31066" lon="-6.56217">
        <ele>115.975</ele>
        <time>2021-07-13T12:12:54Z</time>
      </trkpt>
      <trkpt lat="37.3099" lon="-6.56202">
        <ele>114.392</ele>
        <time>2021-07-13T12:13:05Z</time>
      </trkpt>
      <trkpt lat="37.30905" lon="-6.56211">
        <ele>113.4131</ele>
        <time>2021-07-13T12:13:16Z</time>
      </trkpt>
      <trkpt lat="37.30822" lon="-6.56217">
        <ele>111.2049</ele>
        <time>2021-07-13T12:13:27Z</time>
      </trkpt>
      <trkpt lat="37.30741" lon="-6.56217">
        <ele>111.5405</ele>
        <time>2021-07-13T12:13:38Z</time>
      </trkpt>
      <trkpt lat="37.30649" lon="-6.56221">
        <ele>113.2357</ele>
        <time>2021-07-13T12:13:49Z</time>
      </trkpt>
      <trkpt lat="37.30564" lon="-6.5623">
        <ele>114.711</ele>
        <time>2021-07-13T12:14:00Z</time>
      </trkpt>
      <trkpt lat="37.30484" lon="-6.56254">
        <ele>114.5754</ele>
        <time>2021-07-13T12:14:11Z</time>
      </trkpt>
      <trkpt lat="37.30404" lon="-6.56258">
        <ele>115.7939</ele>
        <time>2021-07-13T12:14:22Z</time>
      </trkpt>
      <trkpt lat="37.30323" lon="-6.56251">
        <ele>114.3337</ele>
        <time>2021-07-13T12:14:33Z</time>
      </trkpt>
      <trkpt lat="37.30258" lon="-6.5622">
        <ele>113.0302</ele>
        <time>2021-07-13T12:14:44Z</time>
      </trkpt>
      <trkpt lat="37.30201" lon="-6.56193">
        <ele>112.4525</ele>
        <time>2021-07-13T12:14:55Z</time>
      </trkpt>
      <trkpt lat="37.30145" lon="-6.56167">
        <ele>111.7528</ele>
        <time>2021-07-13T12:15:06Z</time>
      </trkpt>
      <trkpt lat="37.30079" lon="-6.56138">
        <ele>110.6965</ele>
        <time>2021-07-13T12:15:17Z</time>
      </trkpt>
      <trkpt lat="37.3004" lon="-6.56122">
        <ele>109.9555</ele>
        <time>2021-07-13T12:15:28Z</time>
      </trkpt>
      <trkpt lat="37.30042" lon="-6.5612">
        <ele>110.1966</ele>
        <time>2021-07-13T12:16:27Z</time>
      </trkpt>
      <trkpt lat="37.3004" lon="-6.56125">
        <ele>109.8589</ele>
        <time>2021-07-13T12:17:13Z</time>
      </trkpt>
      <trkpt lat="37.30041" lon="-6.5612">
        <ele>110.2212</ele>
        <time>2021-07-13T12:17:53Z</time>
      </trkpt>
      <trkpt lat="37.30041" lon="-6.5612">
        <ele>110.2676</ele>
        <time>2021-07-13T12:18:52Z</time>
      </trkpt>
      <trkpt lat="37.30042" lon="-6.56119">
        <ele>110.0963</ele>
        <time>2021-07-13T12:19:51Z</time>
      </trkpt>
      <trkpt lat="37.30041" lon="-6.56124">
        <ele>109.559</ele>
        <time>2021-07-13T12:20:21Z</time>
      </trkpt>
      <trkpt lat="37.30042" lon="-6.56121">
        <ele>110.2975</ele>
        <time>2021-07-13T12:21:20Z</time>
      </trkpt>
      <trkpt lat="37.30041" lon="-6.5612">
        <ele>109.5481</ele>
        <time>2021-07-13T12:22:19Z</time>
      </trkpt>
      <trkpt lat="37.30039" lon="-6.5612">
        <ele>109.3871</ele>
        <time>2021-07-13T12:23:19Z</time>
      </trkpt>
      <trkpt lat="37.30038" lon="-6.56123">
        <ele>110.3743</ele>
        <time>2021-07-13T12:24:19Z</time>
      </trkpt>
      <trkpt lat="37.30041" lon="-6.56125">
        <ele>110.3412</ele>
        <time>2021-07-13T12:24:58Z</time>
      </trkpt>
      <trkpt lat="37.30039" lon="-6.56125">
        <ele>109.7031</ele>
        <time>2021-07-13T12:25:58Z</time>
      </trkpt>
      <trkpt lat="37.30038" lon="-6.56126">
        <ele>109.6963</ele>
        <time>2021-07-13T12:26:58Z</time>
      </trkpt>
      <trkpt lat="37.3004" lon="-6.56125">
        <ele>109.9341</ele>
        <time>2021-07-13T12:27:57Z</time>
      </trkpt>
      <trkpt lat="37.30038" lon="-6.56127">
        <ele>109.1613</ele>
        <time>2021-07-13T12:28:57Z</time>
      </trkpt>
      <trkpt lat="37.30041" lon="-6.56131">
        <ele>110.639</ele>
        <time>2021-07-13T12:29:28Z</time>
      </trkpt>
      <trkpt lat="37.30037" lon="-6.56135">
        <ele>110.0971</ele>
        <time>2021-07-13T12:29:39Z</time>
      </trkpt>
      <trkpt lat="37.30036" lon="-6.5613">
        <ele>109.99</ele>
        <time>2021-07-13T12:29:56Z</time>
      </trkpt>
      <trkpt lat="37.30039" lon="-6.56134">
        <ele>109.1121</ele>
        <time>2021-07-13T12:30:22Z</time>
      </trkpt>
      <trkpt lat="37.30042" lon="-6.5613">
        <ele>111.2448</ele>
        <time>2021-07-13T12:30:38Z</time>
      </trkpt>
      <trkpt lat="37.30041" lon="-6.56123">
        <ele>110.7973</ele>
        <time>2021-07-13T12:30:49Z</time>
      </trkpt>
      <trkpt lat="37.30042" lon="-6.56118">
        <ele>110.4718</ele>
        <time>2021-07-13T12:31:10Z</time>
      </trkpt>
      <trkpt lat="37.30039" lon="-6.56118">
        <ele>109.7646</ele>
        <time>2021-07-13T12:32:10Z</time>
      </trkpt>
      <trkpt lat="37.30039" lon="-6.56118">
        <ele>109.762</ele>
        <time>2021-07-13T12:33:10Z</time>
      </trkpt>
      <trkpt lat="37.3004" lon="-6.56118">
        <ele>110.505</ele>
        <time>2021-07-13T12:34:09Z</time>
      </trkpt>
      <trkpt lat="37.30036" lon="-6.56114">
        <ele>110.4337</ele>
        <time>2021-07-13T12:35:05Z</time>
      </trkpt>
      <trkpt lat="37.3" lon="-6.56099">
        <ele>110.2166</ele>
        <time>2021-07-13T12:35:16Z</time>
      </trkpt>
      <trkpt lat="37.29946" lon="-6.56073">
        <ele>109.8213</ele>
        <time>2021-07-13T12:35:27Z</time>
      </trkpt>
      <trkpt lat="37.29882" lon="-6.56043">
        <ele>110.2125</ele>
        <time>2021-07-13T12:35:38Z</time>
      </trkpt>
      <trkpt lat="37.29822" lon="-6.56021">
        <ele>113.1177</ele>
        <time>2021-07-13T12:35:49Z</time>
      </trkpt>
      <trkpt lat="37.29776" lon="-6.56007">
        <ele>110.4927</ele>
        <time>2021-07-13T12:36:00Z</time>
      </trkpt>
      <trkpt lat="37.29728" lon="-6.55988">
        <ele>110.4817</ele>
        <time>2021-07-13T12:36:11Z</time>
      </trkpt>
      <trkpt lat="37.29663" lon="-6.55959">
        <ele>110.5005</ele>
        <time>2021-07-13T12:36:22Z</time>
      </trkpt>
      <trkpt lat="37.29593" lon="-6.55932">
        <ele>107.8807</ele>
        <time>2021-07-13T12:36:33Z</time>
      </trkpt>
      <trkpt lat="37.29511" lon="-6.5592">
        <ele>109.4608</ele>
        <time>2021-07-13T12:36:44Z</time>
      </trkpt>
      <trkpt lat="37.29389" lon="-6.55939">
        <ele>111.389</ele>
        <time>2021-07-13T12:36:55Z</time>
      </trkpt>
      <trkpt lat="37.29255" lon="-6.55953">
        <ele>110.8687</ele>
        <time>2021-07-13T12:37:06Z</time>
      </trkpt>
      <trkpt lat="37.29141" lon="-6.55937">
        <ele>109.9831</ele>
        <time>2021-07-13T12:37:17Z</time>
      </trkpt>
      <trkpt lat="37.29067" lon="-6.55924">
        <ele>110.6379</ele>
        <time>2021-07-13T12:37:28Z</time>
      </trkpt>
      <trkpt lat="37.29028" lon="-6.55959">
        <ele>112.1788</ele>
        <time>2021-07-13T12:37:39Z</time>
      </trkpt>
      <trkpt lat="37.28993" lon="-6.55994">
        <ele>111.904</ele>
        <time>2021-07-13T12:37:50Z</time>
      </trkpt>
      <trkpt lat="37.28985" lon="-6.56004">
        <ele>110.5153</ele>
        <time>2021-07-13T12:38:01Z</time>
      </trkpt>
      <trkpt lat="37.28973" lon="-6.56018">
        <ele>108.2126</ele>
        <time>2021-07-13T12:38:12Z</time>
      </trkpt>
      <trkpt lat="37.28921" lon="-6.56072">
        <ele>106.4001</ele>
        <time>2021-07-13T12:38:23Z</time>
      </trkpt>
      <trkpt lat="37.28882" lon="-6.56111">
        <ele>103.6906</ele>
        <time>2021-07-13T12:38:34Z</time>
      </trkpt>
      <trkpt lat="37.28846" lon="-6.56149">
        <ele>103.118</ele>
        <time>2021-07-13T12:38:45Z</time>
      </trkpt>
      <trkpt lat="37.28827" lon="-6.56167">
        <ele>104.6268</ele>
        <time>2021-07-13T12:38:56Z</time>
      </trkpt>
      <trkpt lat="37.28794" lon="-6.56198">
        <ele>104.3834</ele>
        <time>2021-07-13T12:39:07Z</time>
      </trkpt>
      <trkpt lat="37.28735" lon="-6.56261">
        <ele>103.9862</ele>
        <time>2021-07-13T12:39:18Z</time>
      </trkpt>
      <trkpt lat="37.28684" lon="-6.56311">
        <ele>103.3187</ele>
        <time>2021-07-13T12:39:29Z</time>
      </trkpt>
      <trkpt lat="37.28628" lon="-6.56371">
        <ele>101.775</ele>
        <time>2021-07-13T12:39:40Z</time>
      </trkpt>
      <trkpt lat="37.28566" lon="-6.56436">
        <ele>102.7219</ele>
        <time>2021-07-13T12:39:51Z</time>
      </trkpt>
      <trkpt lat="37.28469" lon="-6.56535">
        <ele>105.8396</ele>
        <time>2021-07-13T12:40:02Z</time>
      </trkpt>
      <trkpt lat="37.28415" lon="-6.56643">
        <ele>103.092</ele>
        <time>2021-07-13T12:40:13Z</time>
      </trkpt>
      <trkpt lat="37.2836" lon="-6.56763">
        <ele>95.49532</ele>
        <time>2021-07-13T12:40:24Z</time>
      </trkpt>
      <trkpt lat="37.28298" lon="-6.56863">
        <ele>86.95524</ele>
        <time>2021-07-13T12:40:35Z</time>
      </trkpt>
      <trkpt lat="37.28253" lon="-6.56871">
        <ele>86.53392</ele>
        <time>2021-07-13T12:40:46Z</time>
      </trkpt>
      <trkpt lat="37.28174" lon="-6.56705">
        <ele>84.09672</ele>
        <time>2021-07-13T12:40:57Z</time>
      </trkpt>
      <trkpt lat="37.28068" lon="-6.56577">
        <ele>80.19537</ele>
        <time>2021-07-13T12:41:08Z</time>
      </trkpt>
      <trkpt lat="37.27966" lon="-6.56432">
        <ele>74.65937</ele>
        <time>2021-07-13T12:41:19Z</time>
      </trkpt>
      <trkpt lat="37.27876" lon="-6.56307">
        <ele>74.53859</ele>
        <time>2021-07-13T12:41:30Z</time>
      </trkpt>
      <trkpt lat="37.27791" lon="-6.56153">
        <ele>78.37931</ele>
        <time>2021-07-13T12:41:41Z</time>
      </trkpt>
      <trkpt lat="37.27741" lon="-6.5597">
        <ele>79.6349</ele>
        <time>2021-07-13T12:41:52Z</time>
      </trkpt>
      <trkpt lat="37.2771" lon="-6.55804">
        <ele>70.25993</ele>
        <time>2021-07-13T12:42:03Z</time>
      </trkpt>
      <trkpt lat="37.27632" lon="-6.55667">
        <ele>66.35494</ele>
        <time>2021-07-13T12:42:14Z</time>
      </trkpt>
      <trkpt lat="37.27555" lon="-6.55523">
        <ele>74.88137</ele>
        <time>2021-07-13T12:42:25Z</time>
      </trkpt>
      <trkpt lat="37.27516" lon="-6.55347">
        <ele>71.90869</ele>
        <time>2021-07-13T12:42:36Z</time>
      </trkpt>
      <trkpt lat="37.2746" lon="-6.55139">
        <ele>72.41586</ele>
        <time>2021-07-13T12:42:47Z</time>
      </trkpt>
      <trkpt lat="37.27425" lon="-6.54938">
        <ele>76.69928</ele>
        <time>2021-07-13T12:42:58Z</time>
      </trkpt>
      <trkpt lat="37.27355" lon="-6.54744">
        <ele>83.71808</ele>
        <time>2021-07-13T12:43:09Z</time>
      </trkpt>
      <trkpt lat="37.27297" lon="-6.54565">
        <ele>84.60828</ele>
        <time>2021-07-13T12:43:20Z</time>
      </trkpt>
      <trkpt lat="37.27205" lon="-6.54419">
        <ele>79.39071</ele>
        <time>2021-07-13T12:43:31Z</time>
      </trkpt>
      <trkpt lat="37.2712" lon="-6.54225">
        <ele>74.79214</ele>
        <time>2021-07-13T12:43:42Z</time>
      </trkpt>
      <trkpt lat="37.27079" lon="-6.5411">
        <ele>77.66418</ele>
        <time>2021-07-13T12:43:53Z</time>
      </trkpt>
      <trkpt lat="37.26955" lon="-6.54004">
        <ele>75.69257</ele>
        <time>2021-07-13T12:44:04Z</time>
      </trkpt>
      <trkpt lat="37.26837" lon="-6.53858">
        <ele>74.46195</ele>
        <time>2021-07-13T12:44:15Z</time>
      </trkpt>
      <trkpt lat="37.2675" lon="-6.53737">
        <ele>71.39725</ele>
        <time>2021-07-13T12:44:26Z</time>
      </trkpt>
      <trkpt lat="37.26744" lon="-6.53735">
        <ele>70.19508</ele>
        <time>2021-07-13T12:44:37Z</time>
      </trkpt>
      <trkpt lat="37.26688" lon="-6.53617">
        <ele>65.6464</ele>
        <time>2021-07-13T12:44:48Z</time>
      </trkpt>
      <trkpt lat="37.26594" lon="-6.53395">
        <ele>60.18046</ele>
        <time>2021-07-13T12:44:59Z</time>
      </trkpt>
      <trkpt lat="37.26544" lon="-6.53212">
        <ele>55.26493</ele>
        <time>2021-07-13T12:45:10Z</time>
      </trkpt>
      <trkpt lat="37.26508" lon="-6.53044">
        <ele>50.34308</ele>
        <time>2021-07-13T12:45:21Z</time>
      </trkpt>
      <trkpt lat="37.26462" lon="-6.52904">
        <ele>48.76938</ele>
        <time>2021-07-13T12:45:32Z</time>
      </trkpt>
      <trkpt lat="37.26434" lon="-6.52736">
        <ele>53.07752</ele>
        <time>2021-07-13T12:45:43Z</time>
      </trkpt>
      <trkpt lat="37.26414" lon="-6.52572">
        <ele>59.32344</ele>
        <time>2021-07-13T12:45:54Z</time>
      </trkpt>
      <trkpt lat="37.26383" lon="-6.52426">
        <ele>61.91803</ele>
        <time>2021-07-13T12:46:05Z</time>
      </trkpt>
      <trkpt lat="37.26329" lon="-6.52343">
        <ele>63.2695</ele>
        <time>2021-07-13T12:46:16Z</time>
      </trkpt>
      <trkpt lat="37.26348" lon="-6.52304">
        <ele>63.14721</ele>
        <time>2021-07-13T12:46:27Z</time>
      </trkpt>
      <trkpt lat="37.26362" lon="-6.52252">
        <ele>63.43902</ele>
        <time>2021-07-13T12:46:38Z</time>
      </trkpt>
      <trkpt lat="37.26415" lon="-6.52243">
        <ele>63.66867</ele>
        <time>2021-07-13T12:46:49Z</time>
      </trkpt>
      <trkpt lat="37.26431" lon="-6.52338">
        <ele>61.25851</ele>
        <time>2021-07-13T12:47:00Z</time>
      </trkpt>
      <trkpt lat="37.26442" lon="-6.52395">
        <ele>60.11607</ele>
        <time>2021-07-13T12:47:11Z</time>
      </trkpt>
      <trkpt lat="37.26489" lon="-6.52382">
        <ele>63.80491</ele>
        <time>2021-07-13T12:47:22Z</time>
      </trkpt>
      <trkpt lat="37.26543" lon="-6.52371">
        <ele>65.8946</ele>
        <time>2021-07-13T12:47:33Z</time>
      </trkpt>
      <trkpt lat="37.26576" lon="-6.52359">
        <ele>66.41786</ele>
        <time>2021-07-13T12:47:44Z</time>
      </trkpt>
      <trkpt lat="37.26561" lon="-6.5228">
        <ele>66.94673</ele>
        <time>2021-07-13T12:47:55Z</time>
      </trkpt>
      <trkpt lat="37.26576" lon="-6.52207">
        <ele>67.30278</ele>
        <time>2021-07-13T12:48:06Z</time>
      </trkpt>
      <trkpt lat="37.26579" lon="-6.52107">
        <ele>68.56546</ele>
        <time>2021-07-13T12:48:17Z</time>
      </trkpt>
      <trkpt lat="37.26603" lon="-6.5208">
        <ele>69.95345</ele>
        <time>2021-07-13T12:48:28Z</time>
      </trkpt>
      <trkpt lat="37.26706" lon="-6.52148">
        <ele>66.88983</ele>
        <time>2021-07-13T12:48:39Z</time>
      </trkpt>
      <trkpt lat="37.2684" lon="-6.52194">
        <ele>68.95445</ele>
        <time>2021-07-13T12:48:50Z</time>
      </trkpt>
      <trkpt lat="37.26914" lon="-6.52193">
        <ele>71.2224</ele>
        <time>2021-07-13T12:49:01Z</time>
      </trkpt>
      <trkpt lat="37.26887" lon="-6.52072">
        <ele>72.77131</ele>
        <time>2021-07-13T12:49:12Z</time>
      </trkpt>
      <trkpt lat="37.26889" lon="-6.51911">
        <ele>75.22928</ele>
        <time>2021-07-13T12:49:23Z</time>
      </trkpt>
      <trkpt lat="37.26889" lon="-6.51733">
        <ele>75.85512</ele>
        <time>2021-07-13T12:49:34Z</time>
      </trkpt>
      <trkpt lat="37.26871" lon="-6.51577">
        <ele>77.55979</ele>
        <time>2021-07-13T12:49:45Z</time>
      </trkpt>
      <trkpt lat="37.26878" lon="-6.51398">
        <ele>80.21494</ele>
        <time>2021-07-13T12:49:56Z</time>
      </trkpt>
      <trkpt lat="37.26825" lon="-6.51243">
        <ele>81.94646</ele>
        <time>2021-07-13T12:50:07Z</time>
      </trkpt>
      <trkpt lat="37.26794" lon="-6.51198">
        <ele>81.73189</ele>
        <time>2021-07-13T12:50:18Z</time>
      </trkpt>
      <trkpt lat="37.26754" lon="-6.51202">
        <ele>82.58891</ele>
        <time>2021-07-13T12:50:29Z</time>
      </trkpt>
      <trkpt lat="37.26811" lon="-6.51064">
        <ele>83.35198</ele>
        <time>2021-07-13T12:50:40Z</time>
      </trkpt>
      <trkpt lat="37.26873" lon="-6.50907">
        <ele>84.50929</ele>
        <time>2021-07-13T12:50:51Z</time>
      </trkpt>
      <trkpt lat="37.2694" lon="-6.50761">
        <ele>84.554</ele>
        <time>2021-07-13T12:51:02Z</time>
      </trkpt>
      <trkpt lat="37.27026" lon="-6.50546">
        <ele>86.04728</ele>
        <time>2021-07-13T12:51:13Z</time>
      </trkpt>
      <trkpt lat="37.27121" lon="-6.50333">
        <ele>84.5102</ele>
        <time>2021-07-13T12:51:24Z</time>
      </trkpt>
      <trkpt lat="37.27231" lon="-6.50133">
        <ele>83.77375</ele>
        <time>2021-07-13T12:51:35Z</time>
      </trkpt>
      <trkpt lat="37.27335" lon="-6.49923">
        <ele>81.30519</ele>
        <time>2021-07-13T12:51:46Z</time>
      </trkpt>
      <trkpt lat="37.27423" lon="-6.49738">
        <ele>60.73595</ele>
        <time>2021-07-13T12:51:57Z</time>
      </trkpt>
      <trkpt lat="37.27514" lon="-6.49549">
        <ele>75.20159</ele>
        <time>2021-07-13T12:52:08Z</time>
      </trkpt>
      <trkpt lat="37.27604" lon="-6.49358">
        <ele>88.27304</ele>
        <time>2021-07-13T12:52:19Z</time>
      </trkpt>
      <trkpt lat="37.27697" lon="-6.49158">
        <ele>108.3529</ele>
        <time>2021-07-13T12:52:30Z</time>
      </trkpt>
      <trkpt lat="37.27788" lon="-6.48964">
        <ele>99.86244</ele>
        <time>2021-07-13T12:52:41Z</time>
      </trkpt>
      <trkpt lat="37.27881" lon="-6.48765">
        <ele>97.43798</ele>
        <time>2021-07-13T12:52:52Z</time>
      </trkpt>
      <trkpt lat="37.27979" lon="-6.48552">
        <ele>96.73086</ele>
        <time>2021-07-13T12:53:03Z</time>
      </trkpt>
      <trkpt lat="37.28088" lon="-6.48316">
        <ele>101.4585</ele>
        <time>2021-07-13T12:53:14Z</time>
      </trkpt>
      <trkpt lat="37.2818" lon="-6.48105">
        <ele>105.5104</ele>
        <time>2021-07-13T12:53:25Z</time>
      </trkpt>
      <trkpt lat="37.28231" lon="-6.47861">
        <ele>93.55098</ele>
        <time>2021-07-13T12:53:36Z</time>
      </trkpt>
      <trkpt lat="37.28266" lon="-6.47606">
        <ele>92.82327</ele>
        <time>2021-07-13T12:53:47Z</time>
      </trkpt>
      <trkpt lat="37.28299" lon="-6.47352">
        <ele>92.7823</ele>
        <time>2021-07-13T12:53:58Z</time>
      </trkpt>
      <trkpt lat="37.28309" lon="-6.47119">
        <ele>87.33677</ele>
        <time>2021-07-13T12:54:09Z</time>
      </trkpt>
      <trkpt lat="37.28357" lon="-6.4689">
        <ele>92.71646</ele>
        <time>2021-07-13T12:54:20Z</time>
      </trkpt>
      <trkpt lat="37.28414" lon="-6.46658">
        <ele>92.88877</ele>
        <time>2021-07-13T12:54:31Z</time>
      </trkpt>
      <trkpt lat="37.28518" lon="-6.46503">
        <ele>93.25144</ele>
        <time>2021-07-13T12:54:42Z</time>
      </trkpt>
      <trkpt lat="37.28587" lon="-6.46345">
        <ele>89.6937</ele>
        <time>2021-07-13T12:54:53Z</time>
      </trkpt>
      <trkpt lat="37.28639" lon="-6.46217">
        <ele>92.2296</ele>
        <time>2021-07-13T12:55:04Z</time>
      </trkpt>
      <trkpt lat="37.28637" lon="-6.46159">
        <ele>92.7755</ele>
        <time>2021-07-13T12:55:15Z</time>
      </trkpt>
      <trkpt lat="37.28641" lon="-6.4611">
        <ele>93.96237</ele>
        <time>2021-07-13T12:55:26Z</time>
      </trkpt>
      <trkpt lat="37.28679" lon="-6.4601">
        <ele>97.2252</ele>
        <time>2021-07-13T12:55:37Z</time>
      </trkpt>
      <trkpt lat="37.28726" lon="-6.45887">
        <ele>99.24448</ele>
        <time>2021-07-13T12:55:48Z</time>
      </trkpt>
      <trkpt lat="37.28746" lon="-6.45715">
        <ele>98.64882</ele>
        <time>2021-07-13T12:55:59Z</time>
      </trkpt>
      <trkpt lat="37.28779" lon="-6.4555">
        <ele>96.84726</ele>
        <time>2021-07-13T12:56:10Z</time>
      </trkpt>
      <trkpt lat="37.28789" lon="-6.45346">
        <ele>96.32438</ele>
        <time>2021-07-13T12:56:21Z</time>
      </trkpt>
      <trkpt lat="37.28756" lon="-6.45162">
        <ele>97.33926</ele>
        <time>2021-07-13T12:56:32Z</time>
      </trkpt>
      <trkpt lat="37.28774" lon="-6.44974">
        <ele>92.83863</ele>
        <time>2021-07-13T12:56:43Z</time>
      </trkpt>
      <trkpt lat="37.2879" lon="-6.44784">
        <ele>85.23312</ele>
        <time>2021-07-13T12:56:54Z</time>
      </trkpt>
      <trkpt lat="37.2875" lon="-6.44603">
        <ele>78.12106</ele>
        <time>2021-07-13T12:57:05Z</time>
      </trkpt>
      <trkpt lat="37.28702" lon="-6.44459">
        <ele>66.60392</ele>
        <time>2021-07-13T12:57:16Z</time>
      </trkpt>
      <trkpt lat="37.28607" lon="-6.44378">
        <ele>73.02639</ele>
        <time>2021-07-13T12:57:27Z</time>
      </trkpt>
      <trkpt lat="37.28535" lon="-6.44166">
        <ele>67.33495</ele>
        <time>2021-07-13T12:57:38Z</time>
      </trkpt>
      <trkpt lat="37.28467" lon="-6.43973">
        <ele>63.90717</ele>
        <time>2021-07-13T12:57:49Z</time>
      </trkpt>
      <trkpt lat="37.28434" lon="-6.43867">
        <ele>73.06671</ele>
        <time>2021-07-13T12:58:00Z</time>
      </trkpt>
      <trkpt lat="37.28492" lon="-6.43798">
        <ele>91.17155</ele>
        <time>2021-07-13T12:58:11Z</time>
      </trkpt>
      <trkpt lat="37.28572" lon="-6.43659">
        <ele>109.8405</ele>
        <time>2021-07-13T12:58:22Z</time>
      </trkpt>
      <trkpt lat="37.28698" lon="-6.4352">
        <ele>121.6556</ele>
        <time>2021-07-13T12:58:33Z</time>
      </trkpt>
      <trkpt lat="37.28831" lon="-6.43379">
        <ele>117.2991</ele>
        <time>2021-07-13T12:58:44Z</time>
      </trkpt>
      <trkpt lat="37.28965" lon="-6.43236">
        <ele>108.2869</ele>
        <time>2021-07-13T12:58:55Z</time>
      </trkpt>
      <trkpt lat="37.29087" lon="-6.43103">
        <ele>96.37255</ele>
        <time>2021-07-13T12:59:06Z</time>
      </trkpt>
      <trkpt lat="37.29219" lon="-6.42966">
        <ele>97.41837</ele>
        <time>2021-07-13T12:59:17Z</time>
      </trkpt>
      <trkpt lat="37.29326" lon="-6.42843">
        <ele>102.3994</ele>
        <time>2021-07-13T12:59:28Z</time>
      </trkpt>
      <trkpt lat="37.29386" lon="-6.42685">
        <ele>98.26258</ele>
        <time>2021-07-13T12:59:39Z</time>
      </trkpt>
      <trkpt lat="37.29452" lon="-6.42628">
        <ele>95.35019</ele>
        <time>2021-07-13T12:59:50Z</time>
      </trkpt>
      <trkpt lat="37.29562" lon="-6.42587">
        <ele>98.58115</ele>
        <time>2021-07-13T13:00:01Z</time>
      </trkpt>
      <trkpt lat="37.29676" lon="-6.42447">
        <ele>100.222</ele>
        <time>2021-07-13T13:00:12Z</time>
      </trkpt>
      <trkpt lat="37.29817" lon="-6.42304">
        <ele>104.5059</ele>
        <time>2021-07-13T13:00:23Z</time>
      </trkpt>
      <trkpt lat="37.29969" lon="-6.42138">
        <ele>99.17171</ele>
        <time>2021-07-13T13:00:34Z</time>
      </trkpt>
      <trkpt lat="37.30105" lon="-6.41992">
        <ele>89.6826</ele>
        <time>2021-07-13T13:00:45Z</time>
      </trkpt>
      <trkpt lat="37.30179" lon="-6.4182">
        <ele>92.17718</ele>
        <time>2021-07-13T13:00:56Z</time>
      </trkpt>
      <trkpt lat="37.30235" lon="-6.41577">
        <ele>94.45404</ele>
        <time>2021-07-13T13:01:07Z</time>
      </trkpt>
      <trkpt lat="37.3027" lon="-6.41421">
        <ele>96.51196</ele>
        <time>2021-07-13T13:01:18Z</time>
      </trkpt>
      <trkpt lat="37.30326" lon="-6.41412">
        <ele>108.8135</ele>
        <time>2021-07-13T13:01:29Z</time>
      </trkpt>
      <trkpt lat="37.30449" lon="-6.41464">
        <ele>118.7553</ele>
        <time>2021-07-13T13:01:40Z</time>
      </trkpt>
      <trkpt lat="37.30445" lon="-6.41461">
        <ele>122.7613</ele>
        <time>2021-07-13T13:01:51Z</time>
      </trkpt>
      <trkpt lat="37.30448" lon="-6.41462">
        <ele>114.4978</ele>
        <time>2021-07-13T13:02:09Z</time>
      </trkpt>
      <trkpt lat="37.30445" lon="-6.41459">
        <ele>113.3636</ele>
        <time>2021-07-13T13:02:25Z</time>
      </trkpt>
      <trkpt lat="37.30448" lon="-6.41461">
        <ele>110.184</ele>
        <time>2021-07-13T13:02:43Z</time>
      </trkpt>
      <trkpt lat="37.30445" lon="-6.41465">
        <ele>107.5109</ele>
        <time>2021-07-13T13:03:33Z</time>
      </trkpt>
      <trkpt lat="37.30443" lon="-6.41468">
        <ele>107.7536</ele>
        <time>2021-07-13T13:04:05Z</time>
      </trkpt>
      <trkpt lat="37.30444" lon="-6.41471">
        <ele>110.7469</ele>
        <time>2021-07-13T13:05:04Z</time>
      </trkpt>
      <trkpt lat="37.30442" lon="-6.41475">
        <ele>110.0399</ele>
        <time>2021-07-13T13:05:16Z</time>
      </trkpt>
      <trkpt lat="37.30452" lon="-6.41476">
        <ele>111.7209</ele>
        <time>2021-07-13T13:05:56Z</time>
      </trkpt>
      <trkpt lat="37.30613" lon="-6.41531">
        <ele>103.0337</ele>
        <time>2021-07-13T13:06:07Z</time>
      </trkpt>
      <trkpt lat="37.307" lon="-6.41565">
        <ele>95.08784</ele>
        <time>2021-07-13T13:06:18Z</time>
      </trkpt>
      <trkpt lat="37.30709" lon="-6.41571">
        <ele>100.487</ele>
        <time>2021-07-13T13:06:29Z</time>
      </trkpt>
      <trkpt lat="37.30718" lon="-6.41573">
        <ele>102.9312</ele>
        <time>2021-07-13T13:06:40Z</time>
      </trkpt>
      <trkpt lat="37.30721" lon="-6.41574">
        <ele>110.1198</ele>
        <time>2021-07-13T13:07:28Z</time>
      </trkpt>
      <trkpt lat="37.30862" lon="-6.41632">
        <ele>102.5777</ele>
        <time>2021-07-13T13:07:39Z</time>
      </trkpt>
      <trkpt lat="37.31041" lon="-6.417">
        <ele>90.94763</ele>
        <time>2021-07-13T13:07:50Z</time>
      </trkpt>
      <trkpt lat="37.31176" lon="-6.41755">
        <ele>81.31075</ele>
        <time>2021-07-13T13:08:01Z</time>
      </trkpt>
      <trkpt lat="37.31352" lon="-6.4182">
        <ele>101.5527</ele>
        <time>2021-07-13T13:08:12Z</time>
      </trkpt>
      <trkpt lat="37.31519" lon="-6.41886">
        <ele>99.54812</ele>
        <time>2021-07-13T13:08:23Z</time>
      </trkpt>
      <trkpt lat="37.31675" lon="-6.41942">
        <ele>96.48056</ele>
        <time>2021-07-13T13:08:34Z</time>
      </trkpt>
      <trkpt lat="37.31823" lon="-6.41999">
        <ele>96.74308</ele>
        <time>2021-07-13T13:08:45Z</time>
      </trkpt>
      <trkpt lat="37.31944" lon="-6.4201">
        <ele>82.38373</ele>
        <time>2021-07-13T13:08:56Z</time>
      </trkpt>
      <trkpt lat="37.32059" lon="-6.41915">
        <ele>88.47929</ele>
        <time>2021-07-13T13:09:07Z</time>
      </trkpt>
      <trkpt lat="37.32077" lon="-6.41852">
        <ele>89.73987</ele>
        <time>2021-07-13T13:09:18Z</time>
      </trkpt>
      <trkpt lat="37.32111" lon="-6.41907">
        <ele>89.95298</ele>
        <time>2021-07-13T13:09:29Z</time>
      </trkpt>
      <trkpt lat="37.32222" lon="-6.42084">
        <ele>89.00147</ele>
        <time>2021-07-13T13:09:40Z</time>
      </trkpt>
      <trkpt lat="37.32345" lon="-6.42244">
        <ele>91.89405</ele>
        <time>2021-07-13T13:09:51Z</time>
      </trkpt>
      <trkpt lat="37.32413" lon="-6.42417">
        <ele>89.15668</ele>
        <time>2021-07-13T13:10:02Z</time>
      </trkpt>
      <trkpt lat="37.32507" lon="-6.42574">
        <ele>91.48766</ele>
        <time>2021-07-13T13:10:13Z</time>
      </trkpt>
      <trkpt lat="37.32601" lon="-6.42671">
        <ele>93.16163</ele>
        <time>2021-07-13T13:10:24Z</time>
      </trkpt>
      <trkpt lat="37.32713" lon="-6.42561">
        <ele>98.52762</ele>
        <time>2021-07-13T13:10:35Z</time>
      </trkpt>
      <trkpt lat="37.3286" lon="-6.42427">
        <ele>103.9227</ele>
        <time>2021-07-13T13:10:46Z</time>
      </trkpt>
      <trkpt lat="37.33064" lon="-6.4229">
        <ele>107.9736</ele>
        <time>2021-07-13T13:10:57Z</time>
      </trkpt>
      <trkpt lat="37.33161" lon="-6.42222">
        <ele>109.7749</ele>
        <time>2021-07-13T13:11:08Z</time>
      </trkpt>
      <trkpt lat="37.3332" lon="-6.42169">
        <ele>109.9804</ele>
        <time>2021-07-13T13:11:19Z</time>
      </trkpt>
      <trkpt lat="37.33435" lon="-6.4209">
        <ele>113.34</ele>
        <time>2021-07-13T13:11:30Z</time>
      </trkpt>
      <trkpt lat="37.33568" lon="-6.41968">
        <ele>122.5186</ele>
        <time>2021-07-13T13:11:41Z</time>
      </trkpt>
      <trkpt lat="37.33756" lon="-6.41838">
        <ele>129.9351</ele>
        <time>2021-07-13T13:11:52Z</time>
      </trkpt>
      <trkpt lat="37.33945" lon="-6.4172">
        <ele>137.0088</ele>
        <time>2021-07-13T13:12:03Z</time>
      </trkpt>
      <trkpt lat="37.34113" lon="-6.41618">
        <ele>138.195</ele>
        <time>2021-07-13T13:12:14Z</time>
      </trkpt>
      <trkpt lat="37.34292" lon="-6.41484">
        <ele>137.4946</ele>
        <time>2021-07-13T13:12:25Z</time>
      </trkpt>
      <trkpt lat="37.34439" lon="-6.41337">
        <ele>133.907</ele>
        <time>2021-07-13T13:12:36Z</time>
      </trkpt>
      <trkpt lat="37.34601" lon="-6.41152">
        <ele>128.519</ele>
        <time>2021-07-13T13:12:47Z</time>
      </trkpt>
      <trkpt lat="37.34759" lon="-6.4097">
        <ele>119.3902</ele>
        <time>2021-07-13T13:12:58Z</time>
      </trkpt>
      <trkpt lat="37.34926" lon="-6.40782">
        <ele>111.2106</ele>
        <time>2021-07-13T13:13:09Z</time>
      </trkpt>
      <trkpt lat="37.35017" lon="-6.40615">
        <ele>105.0833</ele>
        <time>2021-07-13T13:13:20Z</time>
      </trkpt>
      <trkpt lat="37.35083" lon="-6.40454">
        <ele>106.4465</ele>
        <time>2021-07-13T13:13:31Z</time>
      </trkpt>
      <trkpt lat="37.35191" lon="-6.40339">
        <ele>107.5053</ele>
        <time>2021-07-13T13:13:42Z</time>
      </trkpt>
      <trkpt lat="37.35214" lon="-6.40294">
        <ele>111.6866</ele>
        <time>2021-07-13T13:13:53Z</time>
      </trkpt>
      <trkpt lat="37.3519" lon="-6.40227">
        <ele>107.3036</ele>
        <time>2021-07-13T13:14:04Z</time>
      </trkpt>
      <trkpt lat="37.35267" lon="-6.40181">
        <ele>114.5425</ele>
        <time>2021-07-13T13:14:15Z</time>
      </trkpt>
      <trkpt lat="37.35341" lon="-6.40163">
        <ele>113.0425</ele>
        <time>2021-07-13T13:14:26Z</time>
      </trkpt>
      <trkpt lat="37.35451" lon="-6.40093">
        <ele>111.9888</ele>
        <time>2021-07-13T13:14:37Z</time>
      </trkpt>
      <trkpt lat="37.35565" lon="-6.39965">
        <ele>123.9112</ele>
        <time>2021-07-13T13:14:48Z</time>
      </trkpt>
      <trkpt lat="37.3567" lon="-6.39798">
        <ele>136.7699</ele>
        <time>2021-07-13T13:14:59Z</time>
      </trkpt>
      <trkpt lat="37.35806" lon="-6.39657">
        <ele>147.6428</ele>
        <time>2021-07-13T13:15:10Z</time>
      </trkpt>
      <trkpt lat="37.35807" lon="-6.39574">
        <ele>151.1246</ele>
        <time>2021-07-13T13:15:21Z</time>
      </trkpt>
      <trkpt lat="37.35763" lon="-6.39434">
        <ele>148.4886</ele>
        <time>2021-07-13T13:15:32Z</time>
      </trkpt>
      <trkpt lat="37.35851" lon="-6.39335">
        <ele>139.5221</ele>
        <time>2021-07-13T13:15:43Z</time>
      </trkpt>
      <trkpt lat="37.35907" lon="-6.39287">
        <ele>137.3768</ele>
        <time>2021-07-13T13:15:54Z</time>
      </trkpt>
      <trkpt lat="37.36004" lon="-6.39282">
        <ele>144.2185</ele>
        <time>2021-07-13T13:16:05Z</time>
      </trkpt>
      <trkpt lat="37.36086" lon="-6.39266">
        <ele>142.191</ele>
        <time>2021-07-13T13:16:16Z</time>
      </trkpt>
      <trkpt lat="37.36159" lon="-6.39198">
        <ele>143.7521</ele>
        <time>2021-07-13T13:16:27Z</time>
      </trkpt>
      <trkpt lat="37.3621" lon="-6.39152">
        <ele>144.7463</ele>
        <time>2021-07-13T13:16:38Z</time>
      </trkpt>
      <trkpt lat="37.36266" lon="-6.391">
        <ele>150.3193</ele>
        <time>2021-07-13T13:16:49Z</time>
      </trkpt>
      <trkpt lat="37.36284" lon="-6.39054">
        <ele>150.6376</ele>
        <time>2021-07-13T13:17:00Z</time>
      </trkpt>
      <trkpt lat="37.36284" lon="-6.39049">
        <ele>158.8129</ele>
        <time>2021-07-13T13:17:12Z</time>
      </trkpt>
      <trkpt lat="37.36292" lon="-6.38911">
        <ele>153.0596</ele>
        <time>2021-07-13T13:17:23Z</time>
      </trkpt>
      <trkpt lat="37.36203" lon="-6.38743">
        <ele>149.0241</ele>
        <time>2021-07-13T13:17:34Z</time>
      </trkpt>
      <trkpt lat="37.3614" lon="-6.38572">
        <ele>144.7695</ele>
        <time>2021-07-13T13:17:45Z</time>
      </trkpt>
      <trkpt lat="37.36037" lon="-6.38396">
        <ele>142.9286</ele>
        <time>2021-07-13T13:17:56Z</time>
      </trkpt>
      <trkpt lat="37.35941" lon="-6.38216">
        <ele>140.9644</ele>
        <time>2021-07-13T13:18:07Z</time>
      </trkpt>
      <trkpt lat="37.35822" lon="-6.3804">
        <ele>135.2629</ele>
        <time>2021-07-13T13:18:18Z</time>
      </trkpt>
      <trkpt lat="37.35735" lon="-6.37903">
        <ele>134.8878</ele>
        <time>2021-07-13T13:18:29Z</time>
      </trkpt>
      <trkpt lat="37.35634" lon="-6.37799">
        <ele>134.7975</ele>
        <time>2021-07-13T13:18:40Z</time>
      </trkpt>
      <trkpt lat="37.35587" lon="-6.37685">
        <ele>137.2941</ele>
        <time>2021-07-13T13:18:51Z</time>
      </trkpt>
      <trkpt lat="37.35548" lon="-6.3753">
        <ele>139.1414</ele>
        <time>2021-07-13T13:19:02Z</time>
      </trkpt>
      <trkpt lat="37.35495" lon="-6.37344">
        <ele>136.177</ele>
        <time>2021-07-13T13:19:13Z</time>
      </trkpt>
      <trkpt lat="37.35411" lon="-6.37174">
        <ele>133.7795</ele>
        <time>2021-07-13T13:19:24Z</time>
      </trkpt>
      <trkpt lat="37.35339" lon="-6.37145">
        <ele>138.2426</ele>
        <time>2021-07-13T13:19:35Z</time>
      </trkpt>
      <trkpt lat="37.3531" lon="-6.37056">
        <ele>133.6928</ele>
        <time>2021-07-13T13:19:46Z</time>
      </trkpt>
      <trkpt lat="37.35321" lon="-6.3696">
        <ele>137.2997</ele>
        <time>2021-07-13T13:19:57Z</time>
      </trkpt>
      <trkpt lat="37.35276" lon="-6.36911">
        <ele>135.8657</ele>
        <time>2021-07-13T13:20:08Z</time>
      </trkpt>
      <trkpt lat="37.35236" lon="-6.36847">
        <ele>138.83</ele>
        <time>2021-07-13T13:20:19Z</time>
      </trkpt>
      <trkpt lat="37.3515" lon="-6.36751">
        <ele>138.1032</ele>
        <time>2021-07-13T13:20:30Z</time>
      </trkpt>
      <trkpt lat="37.35068" lon="-6.36635">
        <ele>135.8712</ele>
        <time>2021-07-13T13:20:41Z</time>
      </trkpt>
      <trkpt lat="37.34942" lon="-6.36434">
        <ele>136.3895</ele>
        <time>2021-07-13T13:20:52Z</time>
      </trkpt>
      <trkpt lat="37.34837" lon="-6.36273">
        <ele>131.0425</ele>
        <time>2021-07-13T13:21:03Z</time>
      </trkpt>
      <trkpt lat="37.34739" lon="-6.3612">
        <ele>115.6838</ele>
        <time>2021-07-13T13:21:14Z</time>
      </trkpt>
      <trkpt lat="37.34637" lon="-6.35957">
        <ele>100.2621</ele>
        <time>2021-07-13T13:21:25Z</time>
      </trkpt>
      <trkpt lat="37.34528" lon="-6.35817">
        <ele>102.5809</ele>
        <time>2021-07-13T13:21:36Z</time>
      </trkpt>
      <trkpt lat="37.34421" lon="-6.35687">
        <ele>118.1872</ele>
        <time>2021-07-13T13:21:47Z</time>
      </trkpt>
      <trkpt lat="37.34336" lon="-6.35585">
        <ele>116.9017</ele>
        <time>2021-07-13T13:21:58Z</time>
      </trkpt>
      <trkpt lat="37.3434" lon="-6.35589">
        <ele>132.9741</ele>
        <time>2021-07-13T13:22:09Z</time>
      </trkpt>
      <trkpt lat="37.34351" lon="-6.35596">
        <ele>148.2579</ele>
        <time>2021-07-13T13:22:20Z</time>
      </trkpt>
      <trkpt lat="37.3437" lon="-6.35625">
        <ele>146.4135</ele>
        <time>2021-07-13T13:22:31Z</time>
      </trkpt>
      <trkpt lat="37.34308" lon="-6.35704">
        <ele>142.0324</ele>
        <time>2021-07-13T13:22:42Z</time>
      </trkpt>
      <trkpt lat="37.34231" lon="-6.35804">
        <ele>133.3302</ele>
        <time>2021-07-13T13:22:53Z</time>
      </trkpt>
      <trkpt lat="37.34152" lon="-6.35907">
        <ele>118.0877</ele>
        <time>2021-07-13T13:23:04Z</time>
      </trkpt>
      <trkpt lat="37.341" lon="-6.35972">
        <ele>118.3762</ele>
        <time>2021-07-13T13:23:15Z</time>
      </trkpt>
      <trkpt lat="37.34056" lon="-6.36029">
        <ele>122.9573</ele>
        <time>2021-07-13T13:23:26Z</time>
      </trkpt>
      <trkpt lat="37.34006" lon="-6.36095">
        <ele>123.7735</ele>
        <time>2021-07-13T13:23:37Z</time>
      </trkpt>
      <trkpt lat="37.33971" lon="-6.36125">
        <ele>127.208</ele>
        <time>2021-07-13T13:23:48Z</time>
      </trkpt>
      <trkpt lat="37.33958" lon="-6.36129">
        <ele>126.4395</ele>
        <time>2021-07-13T13:23:59Z</time>
      </trkpt>
      <trkpt lat="37.33955" lon="-6.36127">
        <ele>130.8871</ele>
        <time>2021-07-13T13:24:27Z</time>
      </trkpt>
      <trkpt lat="37.33955" lon="-6.36128">
        <ele>131.9681</ele>
        <time>2021-07-13T13:25:27Z</time>
      </trkpt>
      <trkpt lat="37.33954" lon="-6.36125">
        <ele>129.1927</ele>
        <time>2021-07-13T13:26:27Z</time>
      </trkpt>
      <trkpt lat="37.33954" lon="-6.36125">
        <ele>130.5197</ele>
        <time>2021-07-13T13:27:27Z</time>
      </trkpt>
      <trkpt lat="37.33947" lon="-6.36128">
        <ele>129.9265</ele>
        <time>2021-07-13T13:27:49Z</time>
      </trkpt>
      <trkpt lat="37.33904" lon="-6.36162">
        <ele>125.5579</ele>
        <time>2021-07-13T13:28:00Z</time>
      </trkpt>
      <trkpt lat="37.33856" lon="-6.36199">
        <ele>122.3157</ele>
        <time>2021-07-13T13:28:11Z</time>
      </trkpt>
      <trkpt lat="37.3379" lon="-6.36231">
        <ele>123.3527</ele>
        <time>2021-07-13T13:28:22Z</time>
      </trkpt>
      <trkpt lat="37.3372" lon="-6.36285">
        <ele>119.4161</ele>
        <time>2021-07-13T13:28:33Z</time>
      </trkpt>
      <trkpt lat="37.33656" lon="-6.36331">
        <ele>113.5793</ele>
        <time>2021-07-13T13:28:44Z</time>
      </trkpt>
      <trkpt lat="37.33568" lon="-6.36391">
        <ele>117.2077</ele>
        <time>2021-07-13T13:28:55Z</time>
      </trkpt>
      <trkpt lat="37.33487" lon="-6.36487">
        <ele>114.2554</ele>
        <time>2021-07-13T13:29:06Z</time>
      </trkpt>
      <trkpt lat="37.33423" lon="-6.36565">
        <ele>112.7263</ele>
        <time>2021-07-13T13:29:17Z</time>
      </trkpt>
      <trkpt lat="37.33357" lon="-6.36647">
        <ele>114.811</ele>
        <time>2021-07-13T13:29:28Z</time>
      </trkpt>
      <trkpt lat="37.33308" lon="-6.36706">
        <ele>112.7448</ele>
        <time>2021-07-13T13:29:39Z</time>
      </trkpt>
      <trkpt lat="37.33247" lon="-6.36632">
        <ele>118.192</ele>
        <time>2021-07-13T13:29:50Z</time>
      </trkpt>
      <trkpt lat="37.33178" lon="-6.3654">
        <ele>113.646</ele>
        <time>2021-07-13T13:30:01Z</time>
      </trkpt>
      <trkpt lat="37.33106" lon="-6.36438">
        <ele>101.9281</ele>
        <time>2021-07-13T13:30:12Z</time>
      </trkpt>
      <trkpt lat="37.33027" lon="-6.36332">
        <ele>91.66311</ele>
        <time>2021-07-13T13:30:23Z</time>
      </trkpt>
      <trkpt lat="37.32951" lon="-6.36235">
        <ele>94.63874</ele>
        <time>2021-07-13T13:30:34Z</time>
      </trkpt>
      <trkpt lat="37.32875" lon="-6.36137">
        <ele>93.41929</ele>
        <time>2021-07-13T13:30:45Z</time>
      </trkpt>
      <trkpt lat="37.32805" lon="-6.36044">
        <ele>100.4267</ele>
        <time>2021-07-13T13:30:56Z</time>
      </trkpt>
      <trkpt lat="37.32736" lon="-6.35954">
        <ele>85.87383</ele>
        <time>2021-07-13T13:31:07Z</time>
      </trkpt>
      <trkpt lat="37.3268" lon="-6.35874">
        <ele>77.25368</ele>
        <time>2021-07-13T13:31:18Z</time>
      </trkpt>
      <trkpt lat="37.32601" lon="-6.35767">
        <ele>87.66954</ele>
        <time>2021-07-13T13:31:29Z</time>
      </trkpt>
      <trkpt lat="37.32516" lon="-6.35651">
        <ele>97.54012</ele>
        <time>2021-07-13T13:31:40Z</time>
      </trkpt>
      <trkpt lat="37.32431" lon="-6.35542">
        <ele>91.62676</ele>
        <time>2021-07-13T13:31:51Z</time>
      </trkpt>
      <trkpt lat="37.32345" lon="-6.35429">
        <ele>85.87722</ele>
        <time>2021-07-13T13:32:02Z</time>
      </trkpt>
      <trkpt lat="37.32258" lon="-6.35313">
        <ele>80.03808</ele>
        <time>2021-07-13T13:32:13Z</time>
      </trkpt>
      <trkpt lat="37.32211" lon="-6.35239">
        <ele>81.40936</ele>
        <time>2021-07-13T13:32:24Z</time>
      </trkpt>
      <trkpt lat="37.32133" lon="-6.35134">
        <ele>78.35305</ele>
        <time>2021-07-13T13:32:35Z</time>
      </trkpt>
      <trkpt lat="37.32073" lon="-6.35048">
        <ele>78.61426</ele>
        <time>2021-07-13T13:32:46Z</time>
      </trkpt>
      <trkpt lat="37.3199" lon="-6.34935">
        <ele>72.27083</ele>
        <time>2021-07-13T13:32:57Z</time>
      </trkpt>
      <trkpt lat="37.31917" lon="-6.34844">
        <ele>74.95288</ele>
        <time>2021-07-13T13:33:08Z</time>
      </trkpt>
      <trkpt lat="37.31863" lon="-6.34764">
        <ele>81.56978</ele>
        <time>2021-07-13T13:33:19Z</time>
      </trkpt>
      <trkpt lat="37.31845" lon="-6.34626">
        <ele>77.83177</ele>
        <time>2021-07-13T13:33:30Z</time>
      </trkpt>
      <trkpt lat="37.31808" lon="-6.3452">
        <ele>67.12056</ele>
        <time>2021-07-13T13:33:41Z</time>
      </trkpt>
      <trkpt lat="37.31759" lon="-6.34392">
        <ele>80.37369</ele>
        <time>2021-07-13T13:33:52Z</time>
      </trkpt>
      <trkpt lat="37.31721" lon="-6.3425">
        <ele>81.79227</ele>
        <time>2021-07-13T13:34:03Z</time>
      </trkpt>
      <trkpt lat="37.31669" lon="-6.3408">
        <ele>79.15815</ele>
        <time>2021-07-13T13:34:14Z</time>
      </trkpt>
      <trkpt lat="37.31641" lon="-6.33938">
        <ele>76.18849</ele>
        <time>2021-07-13T13:34:25Z</time>
      </trkpt>
      <trkpt lat="37.31615" lon="-6.33757">
        <ele>78.08104</ele>
        <time>2021-07-13T13:34:36Z</time>
      </trkpt>
      <trkpt lat="37.31561" lon="-6.33596">
        <ele>83.93385</ele>
        <time>2021-07-13T13:34:47Z</time>
      </trkpt>
      <trkpt lat="37.31501" lon="-6.33441">
        <ele>88.65504</ele>
        <time>2021-07-13T13:34:58Z</time>
      </trkpt>
      <trkpt lat="37.31444" lon="-6.33269">
        <ele>89.91246</ele>
        <time>2021-07-13T13:35:09Z</time>
      </trkpt>
      <trkpt lat="37.31389" lon="-6.33107">
        <ele>93.04336</ele>
        <time>2021-07-13T13:35:20Z</time>
      </trkpt>
      <trkpt lat="37.31329" lon="-6.32944">
        <ele>88.49039</ele>
        <time>2021-07-13T13:35:31Z</time>
      </trkpt>
      <trkpt lat="37.31276" lon="-6.3279">
        <ele>92.84856</ele>
        <time>2021-07-13T13:35:42Z</time>
      </trkpt>
      <trkpt lat="37.31221" lon="-6.32716">
        <ele>90.00358</ele>
        <time>2021-07-13T13:35:53Z</time>
      </trkpt>
      <trkpt lat="37.31227" lon="-6.32651">
        <ele>88.03888</ele>
        <time>2021-07-13T13:36:04Z</time>
      </trkpt>
      <trkpt lat="37.31227" lon="-6.32645">
        <ele>88.72264</ele>
        <time>2021-07-13T13:36:17Z</time>
      </trkpt>
      <trkpt lat="37.31227" lon="-6.32653">
        <ele>88.76046</ele>
        <time>2021-07-13T13:36:28Z</time>
      </trkpt>
      <trkpt lat="37.31236" lon="-6.32737">
        <ele>88.72953</ele>
        <time>2021-07-13T13:36:39Z</time>
      </trkpt>
      <trkpt lat="37.31228" lon="-6.32753">
        <ele>89.10745</ele>
        <time>2021-07-13T13:36:50Z</time>
      </trkpt>
      <trkpt lat="37.31217" lon="-6.32838">
        <ele>87.14722</ele>
        <time>2021-07-13T13:37:01Z</time>
      </trkpt>
      <trkpt lat="37.3121" lon="-6.32873">
        <ele>89.29676</ele>
        <time>2021-07-13T13:37:12Z</time>
      </trkpt>
      <trkpt lat="37.31228" lon="-6.32774">
        <ele>90.54463</ele>
        <time>2021-07-13T13:37:23Z</time>
      </trkpt>
      <trkpt lat="37.31189" lon="-6.32763">
        <ele>89.27847</ele>
        <time>2021-07-13T13:37:34Z</time>
      </trkpt>
      <trkpt lat="37.31173" lon="-6.32765">
        <ele>88.08272</ele>
        <time>2021-07-13T13:37:45Z</time>
      </trkpt>
      <trkpt lat="37.31152" lon="-6.32767">
        <ele>86.99774</ele>
        <time>2021-07-13T13:37:56Z</time>
      </trkpt>
      <trkpt lat="37.31026" lon="-6.32788">
        <ele>83.68791</ele>
        <time>2021-07-13T13:38:07Z</time>
      </trkpt>
      <trkpt lat="37.30903" lon="-6.32793">
        <ele>83.2857</ele>
        <time>2021-07-13T13:38:18Z</time>
      </trkpt>
      <trkpt lat="37.30803" lon="-6.32781">
        <ele>83.39075</ele>
        <time>2021-07-13T13:38:29Z</time>
      </trkpt>
      <trkpt lat="37.30697" lon="-6.32766">
        <ele>82.91117</ele>
        <time>2021-07-13T13:38:40Z</time>
      </trkpt>
      <trkpt lat="37.3059" lon="-6.32753">
        <ele>80.68075</ele>
        <time>2021-07-13T13:38:51Z</time>
      </trkpt>
      <trkpt lat="37.3048" lon="-6.32742">
        <ele>76.35802</ele>
        <time>2021-07-13T13:39:02Z</time>
      </trkpt>
      <trkpt lat="37.30394" lon="-6.32732">
        <ele>77.92737</ele>
        <time>2021-07-13T13:39:13Z</time>
      </trkpt>
      <trkpt lat="37.30391" lon="-6.32731">
        <ele>77.06347</ele>
        <time>2021-07-13T13:39:28Z</time>
      </trkpt>
      <trkpt lat="37.30416" lon="-6.32537">
        <ele>79.23699</ele>
        <time>2021-07-13T13:39:39Z</time>
      </trkpt>
      <trkpt lat="37.30356" lon="-6.32242">
        <ele>83.99448</ele>
        <time>2021-07-13T13:39:50Z</time>
      </trkpt>
      <trkpt lat="37.30336" lon="-6.31956">
        <ele>83.50383</ele>
        <time>2021-07-13T13:40:01Z</time>
      </trkpt>
      <trkpt lat="37.30271" lon="-6.31741">
        <ele>82.61052</ele>
        <time>2021-07-13T13:40:12Z</time>
      </trkpt>
      <trkpt lat="37.30146" lon="-6.31509">
        <ele>79.97317</ele>
        <time>2021-07-13T13:40:23Z</time>
      </trkpt>
      <trkpt lat="37.30055" lon="-6.31266">
        <ele>77.3174</ele>
        <time>2021-07-13T13:40:34Z</time>
      </trkpt>
      <trkpt lat="37.29924" lon="-6.3106">
        <ele>71.84578</ele>
        <time>2021-07-13T13:40:45Z</time>
      </trkpt>
      <trkpt lat="37.29754" lon="-6.30906">
        <ele>71.39826</ele>
        <time>2021-07-13T13:40:56Z</time>
      </trkpt>
      <trkpt lat="37.29589" lon="-6.30774">
        <ele>70.35891</ele>
        <time>2021-07-13T13:41:07Z</time>
      </trkpt>
      <trkpt lat="37.29521" lon="-6.30801">
        <ele>75.17904</ele>
        <time>2021-07-13T13:41:18Z</time>
      </trkpt>
      <trkpt lat="37.29458" lon="-6.30872">
        <ele>76.06856</ele>
        <time>2021-07-13T13:41:29Z</time>
      </trkpt>
      <trkpt lat="37.29457" lon="-6.30867">
        <ele>78.03467</ele>
        <time>2021-07-13T13:41:54Z</time>
      </trkpt>
      <trkpt lat="37.29455" lon="-6.30867">
        <ele>76.20014</ele>
        <time>2021-07-13T13:42:53Z</time>
      </trkpt>
      <trkpt lat="37.29456" lon="-6.30862">
        <ele>76.76039</ele>
        <time>2021-07-13T13:43:35Z</time>
      </trkpt>
      <trkpt lat="37.29522" lon="-6.30791">
        <ele>75.975</ele>
        <time>2021-07-13T13:43:46Z</time>
      </trkpt>
      <trkpt lat="37.29561" lon="-6.30741">
        <ele>72.80819</ele>
        <time>2021-07-13T13:43:57Z</time>
      </trkpt>
      <trkpt lat="37.29503" lon="-6.30662">
        <ele>75.06068</ele>
        <time>2021-07-13T13:44:08Z</time>
      </trkpt>
      <trkpt lat="37.29419" lon="-6.30468">
        <ele>72.24276</ele>
        <time>2021-07-13T13:44:19Z</time>
      </trkpt>
      <trkpt lat="37.29385" lon="-6.3024">
        <ele>63.91444</ele>
        <time>2021-07-13T13:44:30Z</time>
      </trkpt>
      <trkpt lat="37.29401" lon="-6.30006">
        <ele>62.93418</ele>
        <time>2021-07-13T13:44:41Z</time>
      </trkpt>
      <trkpt lat="37.29437" lon="-6.29755">
        <ele>61.12421</ele>
        <time>2021-07-13T13:44:52Z</time>
      </trkpt>
      <trkpt lat="37.29475" lon="-6.29492">
        <ele>49.35095</ele>
        <time>2021-07-13T13:45:03Z</time>
      </trkpt>
      <trkpt lat="37.29552" lon="-6.29271">
        <ele>43.12125</ele>
        <time>2021-07-13T13:45:14Z</time>
      </trkpt>
      <trkpt lat="37.29687" lon="-6.29104">
        <ele>38.48949</ele>
        <time>2021-07-13T13:45:25Z</time>
      </trkpt>
      <trkpt lat="37.29833" lon="-6.28949">
        <ele>35.52405</ele>
        <time>2021-07-13T13:45:36Z</time>
      </trkpt>
      <trkpt lat="37.29953" lon="-6.2875">
        <ele>33.5515</ele>
        <time>2021-07-13T13:45:47Z</time>
      </trkpt>
      <trkpt lat="37.30133" lon="-6.28613">
        <ele>25.95325</ele>
        <time>2021-07-13T13:45:58Z</time>
      </trkpt>
      <trkpt lat="37.30365" lon="-6.2857">
        <ele>33.29491</ele>
        <time>2021-07-13T13:46:09Z</time>
      </trkpt>
      <trkpt lat="37.30455" lon="-6.28342">
        <ele>45.75556</ele>
        <time>2021-07-13T13:46:20Z</time>
      </trkpt>
      <trkpt lat="37.30476" lon="-6.28077">
        <ele>48.28108</ele>
        <time>2021-07-13T13:46:31Z</time>
      </trkpt>
      <trkpt lat="37.30499" lon="-6.2781">
        <ele>44.36669</ele>
        <time>2021-07-13T13:46:42Z</time>
      </trkpt>
      <trkpt lat="37.30516" lon="-6.27536">
        <ele>37.29304</ele>
        <time>2021-07-13T13:46:53Z</time>
      </trkpt>
      <trkpt lat="37.30515" lon="-6.27269">
        <ele>30.06347</ele>
        <time>2021-07-13T13:47:04Z</time>
      </trkpt>
      <trkpt lat="37.30488" lon="-6.27002">
        <ele>22.45413</ele>
        <time>2021-07-13T13:47:15Z</time>
      </trkpt>
      <trkpt lat="37.30475" lon="-6.2673">
        <ele>20.4602</ele>
        <time>2021-07-13T13:47:26Z</time>
      </trkpt>
      <trkpt lat="37.30461" lon="-6.2646">
        <ele>17.42512</ele>
        <time>2021-07-13T13:47:37Z</time>
      </trkpt>
      <trkpt lat="37.30399" lon="-6.26198">
        <ele>14.26746</ele>
        <time>2021-07-13T13:47:48Z</time>
      </trkpt>
      <trkpt lat="37.30284" lon="-6.25966">
        <ele>13.46662</ele>
        <time>2021-07-13T13:47:59Z</time>
      </trkpt>
      <trkpt lat="37.30133" lon="-6.25783">
        <ele>23.26027</ele>
        <time>2021-07-13T13:48:10Z</time>
      </trkpt>
      <trkpt lat="37.29929" lon="-6.2572">
        <ele>38.05749</ele>
        <time>2021-07-13T13:48:21Z</time>
      </trkpt>
      <trkpt lat="37.2975" lon="-6.25591">
        <ele>47.15359</ele>
        <time>2021-07-13T13:48:32Z</time>
      </trkpt>
      <trkpt lat="37.29707" lon="-6.2533">
        <ele>49.60654</ele>
        <time>2021-07-13T13:48:43Z</time>
      </trkpt>
      <trkpt lat="37.29745" lon="-6.25064">
        <ele>53.51117</ele>
        <time>2021-07-13T13:48:54Z</time>
      </trkpt>
      <trkpt lat="37.29856" lon="-6.24868">
        <ele>49.6523</ele>
        <time>2021-07-13T13:49:05Z</time>
      </trkpt>
      <trkpt lat="37.29955" lon="-6.24738">
        <ele>48.87547</ele>
        <time>2021-07-13T13:49:16Z</time>
      </trkpt>
      <trkpt lat="37.30097" lon="-6.24552">
        <ele>52.38504</ele>
        <time>2021-07-13T13:49:27Z</time>
      </trkpt>
      <trkpt lat="37.3027" lon="-6.24428">
        <ele>54.34138</ele>
        <time>2021-07-13T13:49:38Z</time>
      </trkpt>
      <trkpt lat="37.30471" lon="-6.24406">
        <ele>58.73355</ele>
        <time>2021-07-13T13:49:49Z</time>
      </trkpt>
      <trkpt lat="37.30617" lon="-6.2436">
        <ele>58.9305</ele>
        <time>2021-07-13T13:50:00Z</time>
      </trkpt>
      <trkpt lat="37.30686" lon="-6.24156">
        <ele>60.12232</ele>
        <time>2021-07-13T13:50:11Z</time>
      </trkpt>
      <trkpt lat="37.30735" lon="-6.23917">
        <ele>65.17723</ele>
        <time>2021-07-13T13:50:22Z</time>
      </trkpt>
      <trkpt lat="37.30786" lon="-6.2365">
        <ele>73.05283</ele>
        <time>2021-07-13T13:50:33Z</time>
      </trkpt>
      <trkpt lat="37.30815" lon="-6.23368">
        <ele>74.92235</ele>
        <time>2021-07-13T13:50:44Z</time>
      </trkpt>
      <trkpt lat="37.30782" lon="-6.23094">
        <ele>74.40554</ele>
        <time>2021-07-13T13:50:55Z</time>
      </trkpt>
      <trkpt lat="37.3079" lon="-6.22827">
        <ele>77.17524</ele>
        <time>2021-07-13T13:51:06Z</time>
      </trkpt>
      <trkpt lat="37.30825" lon="-6.22581">
        <ele>75.23342</ele>
        <time>2021-07-13T13:51:17Z</time>
      </trkpt>
      <trkpt lat="37.3086" lon="-6.2234">
        <ele>75.94373</ele>
        <time>2021-07-13T13:51:28Z</time>
      </trkpt>
      <trkpt lat="37.30863" lon="-6.22088">
        <ele>78.98629</ele>
        <time>2021-07-13T13:51:39Z</time>
      </trkpt>
      <trkpt lat="37.30854" lon="-6.21823">
        <ele>75.24007</ele>
        <time>2021-07-13T13:51:50Z</time>
      </trkpt>
      <trkpt lat="37.30885" lon="-6.21557">
        <ele>72.69752</ele>
        <time>2021-07-13T13:52:01Z</time>
      </trkpt>
      <trkpt lat="37.30949" lon="-6.21297">
        <ele>66.72295</ele>
        <time>2021-07-13T13:52:12Z</time>
      </trkpt>
      <trkpt lat="37.30959" lon="-6.21043">
        <ele>67.84426</ele>
        <time>2021-07-13T13:52:23Z</time>
      </trkpt>
      <trkpt lat="37.30974" lon="-6.20783">
        <ele>68.14234</ele>
        <time>2021-07-13T13:52:34Z</time>
      </trkpt>
      <trkpt lat="37.31" lon="-6.2052">
        <ele>67.69318</ele>
        <time>2021-07-13T13:52:45Z</time>
      </trkpt>
      <trkpt lat="37.31084" lon="-6.20246">
        <ele>67.52875</ele>
        <time>2021-07-13T13:52:56Z</time>
      </trkpt>
      <trkpt lat="37.31167" lon="-6.19967">
        <ele>67.93342</ele>
        <time>2021-07-13T13:53:07Z</time>
      </trkpt>
      <trkpt lat="37.31252" lon="-6.19684">
        <ele>64.9137</ele>
        <time>2021-07-13T13:53:18Z</time>
      </trkpt>
      <trkpt lat="37.31341" lon="-6.194">
        <ele>64.92725</ele>
        <time>2021-07-13T13:53:29Z</time>
      </trkpt>
      <trkpt lat="37.31412" lon="-6.19099">
        <ele>65.80754</ele>
        <time>2021-07-13T13:53:40Z</time>
      </trkpt>
      <trkpt lat="37.31462" lon="-6.18789">
        <ele>69.16665</ele>
        <time>2021-07-13T13:53:51Z</time>
      </trkpt>
      <trkpt lat="37.31472" lon="-6.18479">
        <ele>68.26304</ele>
        <time>2021-07-13T13:54:02Z</time>
      </trkpt>
      <trkpt lat="37.31489" lon="-6.18165">
        <ele>64.51355</ele>
        <time>2021-07-13T13:54:13Z</time>
      </trkpt>
      <trkpt lat="37.31551" lon="-6.17842">
        <ele>61.02325</ele>
        <time>2021-07-13T13:54:24Z</time>
      </trkpt>
      <trkpt lat="37.31591" lon="-6.17526">
        <ele>65.41751</ele>
        <time>2021-07-13T13:54:35Z</time>
      </trkpt>
      <trkpt lat="37.31584" lon="-6.17224">
        <ele>71.77917</ele>
        <time>2021-07-13T13:54:46Z</time>
      </trkpt>
      <trkpt lat="37.31624" lon="-6.1696">
        <ele>72.81172</ele>
        <time>2021-07-13T13:54:57Z</time>
      </trkpt>
      <trkpt lat="37.31734" lon="-6.16693">
        <ele>72.49786</ele>
        <time>2021-07-13T13:55:08Z</time>
      </trkpt>
      <trkpt lat="37.31848" lon="-6.16422">
        <ele>72.99578</ele>
        <time>2021-07-13T13:55:19Z</time>
      </trkpt>
      <trkpt lat="37.31964" lon="-6.16145">
        <ele>71.25006</ele>
        <time>2021-07-13T13:55:30Z</time>
      </trkpt>
      <trkpt lat="37.32082" lon="-6.15865">
        <ele>72.97687</ele>
        <time>2021-07-13T13:55:41Z</time>
      </trkpt>
      <trkpt lat="37.3222" lon="-6.15615">
        <ele>73.11476</ele>
        <time>2021-07-13T13:55:52Z</time>
      </trkpt>
      <trkpt lat="37.32404" lon="-6.15405">
        <ele>74.0579</ele>
        <time>2021-07-13T13:56:03Z</time>
      </trkpt>
      <trkpt lat="37.32582" lon="-6.15192">
        <ele>77.89686</ele>
        <time>2021-07-13T13:56:14Z</time>
      </trkpt>
      <trkpt lat="37.3275" lon="-6.14925">
        <ele>78.38301</ele>
        <time>2021-07-13T13:56:25Z</time>
      </trkpt>
      <trkpt lat="37.32859" lon="-6.14677">
        <ele>77.20083</ele>
        <time>2021-07-13T13:56:36Z</time>
      </trkpt>
      <trkpt lat="37.32962" lon="-6.14456">
        <ele>73.79763</ele>
        <time>2021-07-13T13:56:47Z</time>
      </trkpt>
      <trkpt lat="37.33062" lon="-6.14268">
        <ele>73.8046</ele>
        <time>2021-07-13T13:56:58Z</time>
      </trkpt>
      <trkpt lat="37.33149" lon="-6.14185">
        <ele>71.47091</ele>
        <time>2021-07-13T13:57:09Z</time>
      </trkpt>
      <trkpt lat="37.3324" lon="-6.14089">
        <ele>74.76908</ele>
        <time>2021-07-13T13:57:20Z</time>
      </trkpt>
      <trkpt lat="37.3333" lon="-6.13988">
        <ele>75.52521</ele>
        <time>2021-07-13T13:57:31Z</time>
      </trkpt>
      <trkpt lat="37.33425" lon="-6.13877">
        <ele>79.9949</ele>
        <time>2021-07-13T13:57:42Z</time>
      </trkpt>
      <trkpt lat="37.33516" lon="-6.13773">
        <ele>82.5582</ele>
        <time>2021-07-13T13:57:53Z</time>
      </trkpt>
      <trkpt lat="37.33606" lon="-6.13671">
        <ele>85.74266</ele>
        <time>2021-07-13T13:58:04Z</time>
      </trkpt>
      <trkpt lat="37.33694" lon="-6.1357">
        <ele>87.90042</ele>
        <time>2021-07-13T13:58:15Z</time>
      </trkpt>
      <trkpt lat="37.3374" lon="-6.1352">
        <ele>85.77749</ele>
        <time>2021-07-13T13:58:26Z</time>
      </trkpt>
      <trkpt lat="37.33744" lon="-6.13517">
        <ele>87.97487</ele>
        <time>2021-07-13T13:59:17Z</time>
      </trkpt>
      <trkpt lat="37.33784" lon="-6.13467">
        <ele>83.70171</ele>
        <time>2021-07-13T13:59:28Z</time>
      </trkpt>
      <trkpt lat="37.33847" lon="-6.13393">
        <ele>80.4784</ele>
        <time>2021-07-13T13:59:39Z</time>
      </trkpt>
      <trkpt lat="37.33909" lon="-6.13321">
        <ele>81.72839</ele>
        <time>2021-07-13T13:59:50Z</time>
      </trkpt>
      <trkpt lat="37.33913" lon="-6.13317">
        <ele>82.53502</ele>
        <time>2021-07-13T14:00:31Z</time>
      </trkpt>
      <trkpt lat="37.34002" lon="-6.13215">
        <ele>81.17655</ele>
        <time>2021-07-13T14:00:42Z</time>
      </trkpt>
      <trkpt lat="37.34127" lon="-6.13073">
        <ele>80.11265</ele>
        <time>2021-07-13T14:00:53Z</time>
      </trkpt>
      <trkpt lat="37.34268" lon="-6.1291">
        <ele>82.92501</ele>
        <time>2021-07-13T14:01:04Z</time>
      </trkpt>
      <trkpt lat="37.34435" lon="-6.12721">
        <ele>90.3341</ele>
        <time>2021-07-13T14:01:15Z</time>
      </trkpt>
      <trkpt lat="37.34598" lon="-6.12531">
        <ele>98.87311</ele>
        <time>2021-07-13T14:01:26Z</time>
      </trkpt>
      <trkpt lat="37.34748" lon="-6.12291">
        <ele>95.08579</ele>
        <time>2021-07-13T14:01:37Z</time>
      </trkpt>
      <trkpt lat="37.34886" lon="-6.12035">
        <ele>99.9443</ele>
        <time>2021-07-13T14:01:48Z</time>
      </trkpt>
      <trkpt lat="37.35028" lon="-6.11777">
        <ele>102.6356</ele>
        <time>2021-07-13T14:01:59Z</time>
      </trkpt>
      <trkpt lat="37.35168" lon="-6.11526">
        <ele>98.27364</ele>
        <time>2021-07-13T14:02:10Z</time>
      </trkpt>
      <trkpt lat="37.35307" lon="-6.11278">
        <ele>90.68534</ele>
        <time>2021-07-13T14:02:21Z</time>
      </trkpt>
      <trkpt lat="37.3545" lon="-6.11029">
        <ele>81.31058</ele>
        <time>2021-07-13T14:02:32Z</time>
      </trkpt>
      <trkpt lat="37.35599" lon="-6.10763">
        <ele>72.83167</ele>
        <time>2021-07-13T14:02:43Z</time>
      </trkpt>
      <trkpt lat="37.35742" lon="-6.10511">
        <ele>70.52101</ele>
        <time>2021-07-13T14:02:54Z</time>
      </trkpt>
      <trkpt lat="37.35864" lon="-6.10255">
        <ele>67.47952</ele>
        <time>2021-07-13T14:03:05Z</time>
      </trkpt>
      <trkpt lat="37.35929" lon="-6.10061">
        <ele>64.16826</ele>
        <time>2021-07-13T14:03:16Z</time>
      </trkpt>
      <trkpt lat="37.36" lon="-6.09849">
        <ele>61.03683</ele>
        <time>2021-07-13T14:03:27Z</time>
      </trkpt>
      <trkpt lat="37.36075" lon="-6.0962">
        <ele>60.71905</ele>
        <time>2021-07-13T14:03:38Z</time>
      </trkpt>
      <trkpt lat="37.36156" lon="-6.09455">
        <ele>67.6475</ele>
        <time>2021-07-13T14:03:49Z</time>
      </trkpt>
      <trkpt lat="37.36258" lon="-6.09337">
        <ele>77.2962</ele>
        <time>2021-07-13T14:04:00Z</time>
      </trkpt>
      <trkpt lat="37.36366" lon="-6.09208">
        <ele>79.625</ele>
        <time>2021-07-13T14:04:11Z</time>
      </trkpt>
      <trkpt lat="37.36436" lon="-6.09034">
        <ele>74.68381</ele>
        <time>2021-07-13T14:04:22Z</time>
      </trkpt>
      <trkpt lat="37.36506" lon="-6.08853">
        <ele>73.47814</ele>
        <time>2021-07-13T14:04:33Z</time>
      </trkpt>
      <trkpt lat="37.36556" lon="-6.0873">
        <ele>76.27751</ele>
        <time>2021-07-13T14:04:44Z</time>
      </trkpt>
      <trkpt lat="37.36583" lon="-6.08661">
        <ele>75.8101</ele>
        <time>2021-07-13T14:04:55Z</time>
      </trkpt>
      <trkpt lat="37.36603" lon="-6.08607">
        <ele>76.50203</ele>
        <time>2021-07-13T14:05:06Z</time>
      </trkpt>
      <trkpt lat="37.36639" lon="-6.08525">
        <ele>80.55384</ele>
        <time>2021-07-13T14:05:17Z</time>
      </trkpt>
      <trkpt lat="37.36689" lon="-6.08398">
        <ele>89.09348</ele>
        <time>2021-07-13T14:05:28Z</time>
      </trkpt>
      <trkpt lat="37.36737" lon="-6.08275">
        <ele>95.85658</ele>
        <time>2021-07-13T14:05:39Z</time>
      </trkpt>
      <trkpt lat="37.36754" lon="-6.08187">
        <ele>97.22921</ele>
        <time>2021-07-13T14:05:50Z</time>
      </trkpt>
      <trkpt lat="37.36801" lon="-6.08117">
        <ele>99.27825</ele>
        <time>2021-07-13T14:06:01Z</time>
      </trkpt>
      <trkpt lat="37.36841" lon="-6.08021">
        <ele>101.8733</ele>
        <time>2021-07-13T14:06:12Z</time>
      </trkpt>
      <trkpt lat="37.36874" lon="-6.0794">
        <ele>103.2075</ele>
        <time>2021-07-13T14:06:23Z</time>
      </trkpt>
      <trkpt lat="37.36884" lon="-6.07878">
        <ele>102.0035</ele>
        <time>2021-07-13T14:06:34Z</time>
      </trkpt>
      <trkpt lat="37.36999" lon="-6.07949">
        <ele>104.4056</ele>
        <time>2021-07-13T14:06:45Z</time>
      </trkpt>
      <trkpt lat="37.37136" lon="-6.08003">
        <ele>101.2562</ele>
        <time>2021-07-13T14:06:56Z</time>
      </trkpt>
      <trkpt lat="37.37214" lon="-6.08012">
        <ele>103.4439</ele>
        <time>2021-07-13T14:07:07Z</time>
      </trkpt>
      <trkpt lat="37.37356" lon="-6.08059">
        <ele>108.4004</ele>
        <time>2021-07-13T14:07:18Z</time>
      </trkpt>
      <trkpt lat="37.37447" lon="-6.08096">
        <ele>110.8381</ele>
        <time>2021-07-13T14:07:29Z</time>
      </trkpt>
      <trkpt lat="37.3757" lon="-6.08131">
        <ele>113.4232</ele>
        <time>2021-07-13T14:07:40Z</time>
      </trkpt>
      <trkpt lat="37.37695" lon="-6.08119">
        <ele>114.195</ele>
        <time>2021-07-13T14:07:51Z</time>
      </trkpt>
      <trkpt lat="37.37764" lon="-6.08085">
        <ele>111.2855</ele>
        <time>2021-07-13T14:08:02Z</time>
      </trkpt>
      <trkpt lat="37.37867" lon="-6.08177">
        <ele>107.443</ele>
        <time>2021-07-13T14:08:13Z</time>
      </trkpt>
      <trkpt lat="37.3797" lon="-6.0821">
        <ele>103.7321</ele>
        <time>2021-07-13T14:08:24Z</time>
      </trkpt>
      <trkpt lat="37.3809" lon="-6.0826">
        <ele>104.897</ele>
        <time>2021-07-13T14:08:35Z</time>
      </trkpt>
      <trkpt lat="37.38161" lon="-6.08259">
        <ele>102.8026</ele>
        <time>2021-07-13T14:08:46Z</time>
      </trkpt>
      <trkpt lat="37.38292" lon="-6.08299">
        <ele>98.68958</ele>
        <time>2021-07-13T14:08:57Z</time>
      </trkpt>
      <trkpt lat="37.38375" lon="-6.08245">
        <ele>99.92652</ele>
        <time>2021-07-13T14:09:08Z</time>
      </trkpt>
      <trkpt lat="37.38498" lon="-6.08176">
        <ele>104.9636</ele>
        <time>2021-07-13T14:09:19Z</time>
      </trkpt>
      <trkpt lat="37.38601" lon="-6.08125">
        <ele>112.276</ele>
        <time>2021-07-13T14:09:30Z</time>
      </trkpt>
      <trkpt lat="37.3862" lon="-6.0811">
        <ele>115.2307</ele>
        <time>2021-07-13T14:09:41Z</time>
      </trkpt>
      <trkpt lat="37.38649" lon="-6.08087">
        <ele>118.3488</ele>
        <time>2021-07-13T14:09:52Z</time>
      </trkpt>
      <trkpt lat="37.38747" lon="-6.0804">
        <ele>118.3911</ele>
        <time>2021-07-13T14:10:03Z</time>
      </trkpt>
      <trkpt lat="37.38779" lon="-6.08028">
        <ele>119.3644</ele>
        <time>2021-07-13T14:10:14Z</time>
      </trkpt>
      <trkpt lat="37.38825" lon="-6.08025">
        <ele>119.3079</ele>
        <time>2021-07-13T14:10:25Z</time>
      </trkpt>
      <trkpt lat="37.389" lon="-6.08022">
        <ele>114.0269</ele>
        <time>2021-07-13T14:10:36Z</time>
      </trkpt>
      <trkpt lat="37.38976" lon="-6.08016">
        <ele>112.2388</ele>
        <time>2021-07-13T14:10:47Z</time>
      </trkpt>
      <trkpt lat="37.39112" lon="-6.08013">
        <ele>111.6146</ele>
        <time>2021-07-13T14:10:58Z</time>
      </trkpt>
      <trkpt lat="37.39242" lon="-6.08008">
        <ele>113.5375</ele>
        <time>2021-07-13T14:11:09Z</time>
      </trkpt>
      <trkpt lat="37.39318" lon="-6.0803">
        <ele>112.1702</ele>
        <time>2021-07-13T14:11:20Z</time>
      </trkpt>
      <trkpt lat="37.39388" lon="-6.08051">
        <ele>112.292</ele>
        <time>2021-07-13T14:11:31Z</time>
      </trkpt>
      <trkpt lat="37.39522" lon="-6.08079">
        <ele>113.0539</ele>
        <time>2021-07-13T14:11:42Z</time>
      </trkpt>
      <trkpt lat="37.39723" lon="-6.08062">
        <ele>117.7236</ele>
        <time>2021-07-13T14:11:53Z</time>
      </trkpt>
      <trkpt lat="37.39891" lon="-6.0803">
        <ele>123.0827</ele>
        <time>2021-07-13T14:12:04Z</time>
      </trkpt>
      <trkpt lat="37.40056" lon="-6.07934">
        <ele>125.1507</ele>
        <time>2021-07-13T14:12:15Z</time>
      </trkpt>
      <trkpt lat="37.40187" lon="-6.07867">
        <ele>127.7086</ele>
        <time>2021-07-13T14:12:26Z</time>
      </trkpt>
      <trkpt lat="37.4037" lon="-6.0776">
        <ele>131.0016</ele>
        <time>2021-07-13T14:12:37Z</time>
      </trkpt>
      <trkpt lat="37.40552" lon="-6.07678">
        <ele>134.895</ele>
        <time>2021-07-13T14:12:48Z</time>
      </trkpt>
      <trkpt lat="37.40732" lon="-6.07572">
        <ele>136.373</ele>
        <time>2021-07-13T14:12:59Z</time>
      </trkpt>
      <trkpt lat="37.40859" lon="-6.07502">
        <ele>139.8785</ele>
        <time>2021-07-13T14:13:10Z</time>
      </trkpt>
      <trkpt lat="37.40969" lon="-6.07487">
        <ele>142.9123</ele>
        <time>2021-07-13T14:13:21Z</time>
      </trkpt>
      <trkpt lat="37.41111" lon="-6.075">
        <ele>147.5998</ele>
        <time>2021-07-13T14:13:32Z</time>
      </trkpt>
      <trkpt lat="37.4124" lon="-6.07585">
        <ele>146.1934</ele>
        <time>2021-07-13T14:13:43Z</time>
      </trkpt>
      <trkpt lat="37.41364" lon="-6.07625">
        <ele>144.1402</ele>
        <time>2021-07-13T14:13:54Z</time>
      </trkpt>
      <trkpt lat="37.41433" lon="-6.07618">
        <ele>146.1748</ele>
        <time>2021-07-13T14:14:05Z</time>
      </trkpt>
      <trkpt lat="37.41499" lon="-6.07606">
        <ele>146.4317</ele>
        <time>2021-07-13T14:14:16Z</time>
      </trkpt>
      <trkpt lat="37.41571" lon="-6.07591">
        <ele>148.1233</ele>
        <time>2021-07-13T14:14:27Z</time>
      </trkpt>
      <trkpt lat="37.41608" lon="-6.07585">
        <ele>157.2148</ele>
        <time>2021-07-13T14:14:38Z</time>
      </trkpt>
      <trkpt lat="37.41672" lon="-6.07592">
        <ele>158.3102</ele>
        <time>2021-07-13T14:14:49Z</time>
      </trkpt>
      <trkpt lat="37.41676" lon="-6.07593">
        <ele>165.0176</ele>
        <time>2021-07-13T14:15:00Z</time>
      </trkpt>
      <trkpt lat="37.41679" lon="-6.07591">
        <ele>169.2288</ele>
        <time>2021-07-13T14:15:13Z</time>
      </trkpt>
      <trkpt lat="37.41718" lon="-6.07594">
        <ele>170.5966</ele>
        <time>2021-07-13T14:15:24Z</time>
      </trkpt>
      <trkpt lat="37.4179" lon="-6.07585">
        <ele>156.2047</ele>
        <time>2021-07-13T14:15:35Z</time>
      </trkpt>
      <trkpt lat="37.41858" lon="-6.07552">
        <ele>152.808</ele>
        <time>2021-07-13T14:15:46Z</time>
      </trkpt>
      <trkpt lat="37.4195" lon="-6.07504">
        <ele>151.3267</ele>
        <time>2021-07-13T14:15:57Z</time>
      </trkpt>
      <trkpt lat="37.42026" lon="-6.0751">
        <ele>149.1842</ele>
        <time>2021-07-13T14:16:08Z</time>
      </trkpt>
      <trkpt lat="37.42153" lon="-6.07487">
        <ele>148.7106</ele>
        <time>2021-07-13T14:16:19Z</time>
      </trkpt>
      <trkpt lat="37.42342" lon="-6.07389">
        <ele>153.4689</ele>
        <time>2021-07-13T14:16:30Z</time>
      </trkpt>
      <trkpt lat="37.42511" lon="-6.07213">
        <ele>135.6287</ele>
        <time>2021-07-13T14:16:41Z</time>
      </trkpt>
      <trkpt lat="37.42684" lon="-6.07054">
        <ele>116.4902</ele>
        <time>2021-07-13T14:16:52Z</time>
      </trkpt>
      <trkpt lat="37.42814" lon="-6.0686">
        <ele>98.54894</ele>
        <time>2021-07-13T14:17:03Z</time>
      </trkpt>
      <trkpt lat="37.42901" lon="-6.06616">
        <ele>79.69079</ele>
        <time>2021-07-13T14:17:14Z</time>
      </trkpt>
      <trkpt lat="37.43051" lon="-6.06408">
        <ele>72.62905</ele>
        <time>2021-07-13T14:17:25Z</time>
      </trkpt>
      <trkpt lat="37.43194" lon="-6.06206">
        <ele>58.99658</ele>
        <time>2021-07-13T14:17:36Z</time>
      </trkpt>
      <trkpt lat="37.43363" lon="-6.06025">
        <ele>52.08541</ele>
        <time>2021-07-13T14:17:47Z</time>
      </trkpt>
      <trkpt lat="37.43411" lon="-6.05819">
        <ele>46.61357</ele>
        <time>2021-07-13T14:17:58Z</time>
      </trkpt>
      <trkpt lat="37.43375" lon="-6.05519">
        <ele>35.69997</ele>
        <time>2021-07-13T14:18:09Z</time>
      </trkpt>
      <trkpt lat="37.43377" lon="-6.05358">
        <ele>33.36022</ele>
        <time>2021-07-13T14:18:20Z</time>
      </trkpt>
      <trkpt lat="37.43348" lon="-6.05113">
        <ele>34.78989</ele>
        <time>2021-07-13T14:18:31Z</time>
      </trkpt>
      <trkpt lat="37.43323" lon="-6.04924">
        <ele>31.24222</ele>
        <time>2021-07-13T14:18:42Z</time>
      </trkpt>
      <trkpt lat="37.43328" lon="-6.04788">
        <ele>29.5544</ele>
        <time>2021-07-13T14:18:53Z</time>
      </trkpt>
      <trkpt lat="37.4333" lon="-6.04657">
        <ele>26.86011</ele>
        <time>2021-07-13T14:19:04Z</time>
      </trkpt>
      <trkpt lat="37.43327" lon="-6.04566">
        <ele>27.35952</ele>
        <time>2021-07-13T14:19:15Z</time>
      </trkpt>
      <trkpt lat="37.43346" lon="-6.04453">
        <ele>28.97343</ele>
        <time>2021-07-13T14:19:26Z</time>
      </trkpt>
      <trkpt lat="37.43365" lon="-6.04323">
        <ele>28.03948</ele>
        <time>2021-07-13T14:19:37Z</time>
      </trkpt>
      <trkpt lat="37.43395" lon="-6.04201">
        <ele>28.26829</ele>
        <time>2021-07-13T14:19:48Z</time>
      </trkpt>
      <trkpt lat="37.43428" lon="-6.0407">
        <ele>23.77632</ele>
        <time>2021-07-13T14:19:59Z</time>
      </trkpt>
      <trkpt lat="37.43461" lon="-6.03947">
        <ele>24.79567</ele>
        <time>2021-07-13T14:20:10Z</time>
      </trkpt>
      <trkpt lat="37.43481" lon="-6.03868">
        <ele>25.79334</ele>
        <time>2021-07-13T14:20:21Z</time>
      </trkpt>
      <trkpt lat="37.43512" lon="-6.03771">
        <ele>22.1201</ele>
        <time>2021-07-13T14:20:32Z</time>
      </trkpt>
      <trkpt lat="37.43606" lon="-6.03739">
        <ele>16.67613</ele>
        <time>2021-07-13T14:20:43Z</time>
      </trkpt>
      <trkpt lat="37.43686" lon="-6.0381">
        <ele>15.499</ele>
        <time>2021-07-13T14:20:54Z</time>
      </trkpt>
      <trkpt lat="37.43707" lon="-6.03709">
        <ele>13.26276</ele>
        <time>2021-07-13T14:21:05Z</time>
      </trkpt>
      <trkpt lat="37.43712" lon="-6.03611">
        <ele>11.64584</ele>
        <time>2021-07-13T14:21:16Z</time>
      </trkpt>
      <trkpt lat="37.43558" lon="-6.03596">
        <ele>10.39247</ele>
        <time>2021-07-13T14:21:27Z</time>
      </trkpt>
      <trkpt lat="37.43401" lon="-6.03578">
        <ele>11.10982</ele>
        <time>2021-07-13T14:21:38Z</time>
      </trkpt>
      <trkpt lat="37.43217" lon="-6.03555">
        <ele>11.10776</ele>
        <time>2021-07-13T14:21:49Z</time>
      </trkpt>
      <trkpt lat="37.43031" lon="-6.03553">
        <ele>13.33675</ele>
        <time>2021-07-13T14:22:00Z</time>
      </trkpt>
      <trkpt lat="37.42839" lon="-6.0355">
        <ele>10.66374</ele>
        <time>2021-07-13T14:22:11Z</time>
      </trkpt>
      <trkpt lat="37.42647" lon="-6.03549">
        <ele>11.95893</ele>
        <time>2021-07-13T14:22:22Z</time>
      </trkpt>
      <trkpt lat="37.42423" lon="-6.0355">
        <ele>13.79325</ele>
        <time>2021-07-13T14:22:33Z</time>
      </trkpt>
      <trkpt lat="37.42264" lon="-6.03547">
        <ele>14.19569</ele>
        <time>2021-07-13T14:22:44Z</time>
      </trkpt>
      <trkpt lat="37.42111" lon="-6.03544">
        <ele>14.45971</ele>
        <time>2021-07-13T14:22:55Z</time>
      </trkpt>
      <trkpt lat="37.41944" lon="-6.03545">
        <ele>14.40807</ele>
        <time>2021-07-13T14:23:06Z</time>
      </trkpt>
      <trkpt lat="37.41755" lon="-6.03536">
        <ele>16.22239</ele>
        <time>2021-07-13T14:23:17Z</time>
      </trkpt>
      <trkpt lat="37.41563" lon="-6.03517">
        <ele>15.76007</ele>
        <time>2021-07-13T14:23:28Z</time>
      </trkpt>
      <trkpt lat="37.41386" lon="-6.0349">
        <ele>13.62495</ele>
        <time>2021-07-13T14:23:39Z</time>
      </trkpt>
      <trkpt lat="37.4131" lon="-6.03307">
        <ele>8.944736</ele>
        <time>2021-07-13T14:23:51Z</time>
      </trkpt>
      <trkpt lat="37.41383" lon="-6.03092">
        <ele>9.829739</ele>
        <time>2021-07-13T14:24:02Z</time>
      </trkpt>
      <trkpt lat="37.41376" lon="-6.02821">
        <ele>12.49254</ele>
        <time>2021-07-13T14:24:13Z</time>
      </trkpt>
      <trkpt lat="37.41372" lon="-6.02536">
        <ele>12.57039</ele>
        <time>2021-07-13T14:24:24Z</time>
      </trkpt>
      <trkpt lat="37.41368" lon="-6.02239">
        <ele>9.980493</ele>
        <time>2021-07-13T14:24:35Z</time>
      </trkpt>
      <trkpt lat="37.41364" lon="-6.01943">
        <ele>8.473931</ele>
        <time>2021-07-13T14:24:46Z</time>
      </trkpt>
      <trkpt lat="37.41361" lon="-6.0164">
        <ele>9.367449</ele>
        <time>2021-07-13T14:24:57Z</time>
      </trkpt>
      <trkpt lat="37.41359" lon="-6.01351">
        <ele>13.22864</ele>
        <time>2021-07-13T14:25:08Z</time>
      </trkpt>
      <trkpt lat="37.41357" lon="-6.01088">
        <ele>18.43767</ele>
        <time>2021-07-13T14:25:19Z</time>
      </trkpt>
      <trkpt lat="37.41353" lon="-6.00823">
        <ele>17.04226</ele>
        <time>2021-07-13T14:25:30Z</time>
      </trkpt>
      <trkpt lat="37.4135" lon="-6.00555">
        <ele>16.46911</ele>
        <time>2021-07-13T14:25:41Z</time>
      </trkpt>
      <trkpt lat="37.41347" lon="-6.00283">
        <ele>16.23619</ele>
        <time>2021-07-13T14:25:52Z</time>
      </trkpt>
      <trkpt lat="37.41344" lon="-6.00004">
        <ele>16.38945</ele>
        <time>2021-07-13T14:26:03Z</time>
      </trkpt>
      <trkpt lat="37.41339" lon="-5.99719">
        <ele>16.2753</ele>
        <time>2021-07-13T14:26:14Z</time>
      </trkpt>
      <trkpt lat="37.41329" lon="-5.99459">
        <ele>12.9689</ele>
        <time>2021-07-13T14:26:25Z</time>
      </trkpt>
      <trkpt lat="37.41315" lon="-5.99226">
        <ele>10.32892</ele>
        <time>2021-07-13T14:26:36Z</time>
      </trkpt>
      <trkpt lat="37.41328" lon="-5.99025">
        <ele>5.439652</ele>
        <time>2021-07-13T14:26:47Z</time>
      </trkpt>
      <trkpt lat="37.41324" lon="-5.98945">
        <ele>6.366213</ele>
        <time>2021-07-13T14:26:58Z</time>
      </trkpt>
      <trkpt lat="37.41324" lon="-5.98939">
        <ele>5.53509</ele>
        <time>2021-07-13T14:27:14Z</time>
      </trkpt>
      <trkpt lat="37.41299" lon="-5.9886">
        <ele>4.156858</ele>
        <time>2021-07-13T14:27:25Z</time>
      </trkpt>
      <trkpt lat="37.41322" lon="-5.98747">
        <ele>4.772177</ele>
        <time>2021-07-13T14:27:36Z</time>
      </trkpt>
      <trkpt lat="37.41329" lon="-5.98575">
        <ele>7.497303</ele>
        <time>2021-07-13T14:27:47Z</time>
      </trkpt>
      <trkpt lat="37.41333" lon="-5.98435">
        <ele>9.405391</ele>
        <time>2021-07-13T14:27:58Z</time>
      </trkpt>
      <trkpt lat="37.41335" lon="-5.9843">
        <ele>10.84793</ele>
        <time>2021-07-13T14:28:09Z</time>
      </trkpt>
      <trkpt lat="37.41337" lon="-5.98426">
        <ele>18.43859</ele>
        <time>2021-07-13T14:28:33Z</time>
      </trkpt>
      <trkpt lat="37.41337" lon="-5.98418">
        <ele>22.89516</ele>
        <time>2021-07-13T14:29:01Z</time>
      </trkpt>
      <trkpt lat="37.41305" lon="-5.98375">
        <ele>17.04931</ele>
        <time>2021-07-13T14:29:12Z</time>
      </trkpt>
      <trkpt lat="37.41288" lon="-5.98371">
        <ele>14.82852</ele>
        <time>2021-07-13T14:29:23Z</time>
      </trkpt>
      <trkpt lat="37.41158" lon="-5.98402">
        <ele>13.77914</ele>
        <time>2021-07-13T14:29:34Z</time>
      </trkpt>
      <trkpt lat="37.41035" lon="-5.98443">
        <ele>15.07325</ele>
        <time>2021-07-13T14:29:45Z</time>
      </trkpt>
      <trkpt lat="37.41007" lon="-5.98452">
        <ele>18.20781</ele>
        <time>2021-07-13T14:29:56Z</time>
      </trkpt>
      <trkpt lat="37.41003" lon="-5.98454">
        <ele>24.33428</ele>
        <time>2021-07-13T14:30:23Z</time>
      </trkpt>
      <trkpt lat="37.40907" lon="-5.98489">
        <ele>20.4857</ele>
        <time>2021-07-13T14:30:34Z</time>
      </trkpt>
      <trkpt lat="37.40817" lon="-5.98522">
        <ele>21.26976</ele>
        <time>2021-07-13T14:30:45Z</time>
      </trkpt>
      <trkpt lat="37.40771" lon="-5.98539">
        <ele>21.7026</ele>
        <time>2021-07-13T14:30:56Z</time>
      </trkpt>
      <trkpt lat="37.40766" lon="-5.98541">
        <ele>22.63349</ele>
        <time>2021-07-13T14:31:22Z</time>
      </trkpt>
      <trkpt lat="37.40642" lon="-5.98592">
        <ele>16.17213</ele>
        <time>2021-07-13T14:31:33Z</time>
      </trkpt>
      <trkpt lat="37.40517" lon="-5.98665">
        <ele>10.07454</ele>
        <time>2021-07-13T14:31:44Z</time>
      </trkpt>
      <trkpt lat="37.40387" lon="-5.98747">
        <ele>6.72469</ele>
        <time>2021-07-13T14:31:55Z</time>
      </trkpt>
      <trkpt lat="37.40296" lon="-5.98762">
        <ele>7.760713</ele>
        <time>2021-07-13T14:32:06Z</time>
      </trkpt>
      <trkpt lat="37.40249" lon="-5.98686">
        <ele>13.07786</ele>
        <time>2021-07-13T14:32:17Z</time>
      </trkpt>
      <trkpt lat="37.4021" lon="-5.98621">
        <ele>17.44339</ele>
        <time>2021-07-13T14:32:28Z</time>
      </trkpt>
      <trkpt lat="37.40149" lon="-5.98561">
        <ele>19.1114</ele>
        <time>2021-07-13T14:32:39Z</time>
      </trkpt>
      <trkpt lat="37.40042" lon="-5.98487">
        <ele>21.3896</ele>
        <time>2021-07-13T14:32:50Z</time>
      </trkpt>
      <trkpt lat="37.3997" lon="-5.98375">
        <ele>19.5035</ele>
        <time>2021-07-13T14:33:01Z</time>
      </trkpt>
      <trkpt lat="37.39923" lon="-5.9827">
        <ele>15.21451</ele>
        <time>2021-07-13T14:33:12Z</time>
      </trkpt>
      <trkpt lat="37.39857" lon="-5.98175">
        <ele>16.34497</ele>
        <time>2021-07-13T14:33:23Z</time>
      </trkpt>
      <trkpt lat="37.39743" lon="-5.98148">
        <ele>12.77853</ele>
        <time>2021-07-13T14:33:34Z</time>
      </trkpt>
      <trkpt lat="37.39651" lon="-5.98204">
        <ele>13.70525</ele>
        <time>2021-07-13T14:33:45Z</time>
      </trkpt>
      <trkpt lat="37.39525" lon="-5.98304">
        <ele>15.6198</ele>
        <time>2021-07-13T14:33:56Z</time>
      </trkpt>
      <trkpt lat="37.39411" lon="-5.98375">
        <ele>17.76736</ele>
        <time>2021-07-13T14:34:07Z</time>
      </trkpt>
      <trkpt lat="37.39318" lon="-5.98402">
        <ele>18.19624</ele>
        <time>2021-07-13T14:34:18Z</time>
      </trkpt>
      <trkpt lat="37.3932" lon="-5.98442">
        <ele>21.19265</ele>
        <time>2021-07-13T14:34:29Z</time>
      </trkpt>
      <trkpt lat="37.39323" lon="-5.98456">
        <ele>21.28034</ele>
        <time>2021-07-13T14:34:40Z</time>
      </trkpt>
      <trkpt lat="37.39324" lon="-5.98462">
        <ele>25.68439</ele>
        <time>2021-07-13T14:35:10Z</time>
      </trkpt>
      <trkpt lat="37.39354" lon="-5.98504">
        <ele>23.13993</ele>
        <time>2021-07-13T14:35:21Z</time>
      </trkpt>
      <trkpt lat="37.39408" lon="-5.98549">
        <ele>27.65094</ele>
        <time>2021-07-13T14:35:32Z</time>
      </trkpt>
      <trkpt lat="37.3946" lon="-5.98607">
        <ele>21.36526</ele>
        <time>2021-07-13T14:35:43Z</time>
      </trkpt>
      <trkpt lat="37.39489" lon="-5.98607">
        <ele>16.17291</ele>
        <time>2021-07-13T14:35:54Z</time>
      </trkpt>
      <trkpt lat="37.39518" lon="-5.98556">
        <ele>13.34677</ele>
        <time>2021-07-13T14:36:05Z</time>
      </trkpt>
      <trkpt lat="37.39546" lon="-5.98512">
        <ele>17.15167</ele>
        <time>2021-07-13T14:36:16Z</time>
      </trkpt>
      <trkpt lat="37.39562" lon="-5.98484">
        <ele>17.64936</ele>
        <time>2021-07-13T14:36:27Z</time>
      </trkpt>
      <trkpt lat="37.39564" lon="-5.9848">
        <ele>21.69502</ele>
        <time>2021-07-13T14:36:57Z</time>
      </trkpt>
      <trkpt lat="37.39562" lon="-5.98461">
        <ele>18.79113</ele>
        <time>2021-07-13T14:37:08Z</time>
      </trkpt>
      <trkpt lat="37.39565" lon="-5.98462">
        <ele>9.035037</ele>
        <time>2021-07-13T14:37:38Z</time>
      </trkpt>
      <trkpt lat="37.39565" lon="-5.98457">
        <ele>8.249974</ele>
        <time>2021-07-13T14:37:50Z</time>
      </trkpt>
      <trkpt lat="37.39564" lon="-5.98461">
        <ele>9.221328</ele>
        <time>2021-07-13T14:38:05Z</time>
      </trkpt>
    </trkseg>
  </trk>
</gpx>